<?xml version="1.0" encoding="UTF-8" standalone="no" ?>
<gpx xmlns="http://www.topografix.com/GPX/1/1" xmlns:xsi="http://www.w3.org/2001/XMLSchema-instance" xsi:schemaLocation="http://www.topografix.com/GPX/1/1 http://www.topografix.com/GPX/1/1/gpx.xsd" version="1.1" creator="VisuGPX - https://www.visugpx.com">
  <metadata>
    <name>Tour du Lot</name>
    <desc><![CDATA[Tour du lot des deux cotés à partir de vers. VTT nécessaire pour le dernier tiers seulement.]]></desc>
  </metadata>
  <trk>
    <name><![CDATA[Tour du Lot_1]]></name>
    <trkseg>
      <trkpt lat="44.48582" lon="1.55296">
        <ele>179.5</ele>
        <time>2015-09-21T12:22:38Z</time>
      </trkpt>
      <trkpt lat="44.4858" lon="1.55297">
        <ele>179.5</ele>
        <time>2015-09-21T12:22:43Z</time>
      </trkpt>
      <trkpt lat="44.48597" lon="1.55307">
        <ele>137.19241094639</ele>
        <time>2015-09-21T12:22:58Z</time>
      </trkpt>
      <trkpt lat="44.48601" lon="1.55306">
        <ele>137.19241094639</ele>
        <time>2015-09-21T12:23:03Z</time>
      </trkpt>
      <trkpt lat="44.48597" lon="1.55289">
        <ele>136.77470859572</ele>
        <time>2015-09-21T12:25:08Z</time>
      </trkpt>
      <trkpt lat="44.486" lon="1.55306">
        <ele>137.25832567601</ele>
        <time>2015-09-21T12:25:13Z</time>
      </trkpt>
      <trkpt lat="44.48594" lon="1.55346">
        <ele>137.8724621301</ele>
        <time>2015-09-21T12:25:23Z</time>
      </trkpt>
      <trkpt lat="44.48583" lon="1.55359">
        <ele>138.49792228953</ele>
        <time>2015-09-21T12:25:28Z</time>
      </trkpt>
      <trkpt lat="44.48553" lon="1.55369">
        <ele>139.0548841312</ele>
        <time>2015-09-21T12:25:38Z</time>
      </trkpt>
      <trkpt lat="44.48543" lon="1.55376">
        <ele>139.52468461943</ele>
        <time>2015-09-21T12:25:43Z</time>
      </trkpt>
      <trkpt lat="44.4855" lon="1.55447">
        <ele>139.24323128775</ele>
        <time>2015-09-21T12:25:58Z</time>
      </trkpt>
      <trkpt lat="44.48568" lon="1.5547">
        <ele>138.43365981842</ele>
        <time>2015-09-21T12:26:03Z</time>
      </trkpt>
      <trkpt lat="44.48588" lon="1.55524">
        <ele>137.95662654308</ele>
        <time>2015-09-21T12:26:13Z</time>
      </trkpt>
      <trkpt lat="44.48593" lon="1.55545">
        <ele>137.50386966107</ele>
        <time>2015-09-21T12:26:18Z</time>
      </trkpt>
      <trkpt lat="44.4862" lon="1.55567">
        <ele>137.12753183057</ele>
        <time>2015-09-21T12:26:28Z</time>
      </trkpt>
      <trkpt lat="44.48628" lon="1.55592">
        <ele>137.09886360612</ele>
        <time>2015-09-21T12:26:33Z</time>
      </trkpt>
      <trkpt lat="44.48641" lon="1.55653">
        <ele>137.68140766115</ele>
        <time>2015-09-21T12:26:43Z</time>
      </trkpt>
      <trkpt lat="44.48647" lon="1.5569">
        <ele>138.09271597897</ele>
        <time>2015-09-21T12:26:48Z</time>
      </trkpt>
      <trkpt lat="44.48656" lon="1.55758">
        <ele>138.50115745544</ele>
        <time>2015-09-21T12:26:58Z</time>
      </trkpt>
      <trkpt lat="44.48657" lon="1.55796">
        <ele>138.86125185673</ele>
        <time>2015-09-21T12:27:03Z</time>
      </trkpt>
      <trkpt lat="44.48653" lon="1.5588">
        <ele>139.05210275167</ele>
        <time>2015-09-21T12:27:13Z</time>
      </trkpt>
      <trkpt lat="44.48652" lon="1.55914">
        <ele>139.43036092866</ele>
        <time>2015-09-21T12:27:18Z</time>
      </trkpt>
      <trkpt lat="44.48653" lon="1.56007">
        <ele>139.67839709276</ele>
        <time>2015-09-21T12:27:33Z</time>
      </trkpt>
      <trkpt lat="44.48653" lon="1.56047">
        <ele>140.01381998803</ele>
        <time>2015-09-21T12:27:38Z</time>
      </trkpt>
      <trkpt lat="44.48651" lon="1.5611">
        <ele>140.36673406382</ele>
        <time>2015-09-21T12:27:48Z</time>
      </trkpt>
      <trkpt lat="44.48651" lon="1.5614">
        <ele>141.02041911027</ele>
        <time>2015-09-21T12:27:53Z</time>
      </trkpt>
      <trkpt lat="44.48646" lon="1.56222">
        <ele>141.26156435265</ele>
        <time>2015-09-21T12:28:03Z</time>
      </trkpt>
      <trkpt lat="44.48639" lon="1.56263">
        <ele>141.44122763436</ele>
        <time>2015-09-21T12:28:08Z</time>
      </trkpt>
      <trkpt lat="44.48614" lon="1.56343">
        <ele>141.69542074833</ele>
        <time>2015-09-21T12:28:18Z</time>
      </trkpt>
      <trkpt lat="44.48597" lon="1.5638">
        <ele>141.75993342336</ele>
        <time>2015-09-21T12:28:23Z</time>
      </trkpt>
      <trkpt lat="44.48558" lon="1.56442">
        <ele>141.68092789533</ele>
        <time>2015-09-21T12:28:33Z</time>
      </trkpt>
      <trkpt lat="44.48538" lon="1.56471">
        <ele>141.45704035967</ele>
        <time>2015-09-21T12:28:38Z</time>
      </trkpt>
      <trkpt lat="44.48496" lon="1.56531">
        <ele>141.21182335441</ele>
        <time>2015-09-21T12:28:48Z</time>
      </trkpt>
      <trkpt lat="44.4847" lon="1.56558">
        <ele>141.09935637105</ele>
        <time>2015-09-21T12:28:53Z</time>
      </trkpt>
      <trkpt lat="44.48389" lon="1.56622">
        <ele>140.80372418124</ele>
        <time>2015-09-21T12:29:08Z</time>
      </trkpt>
      <trkpt lat="44.48368" lon="1.56638">
        <ele>140.46309852796</ele>
        <time>2015-09-21T12:29:13Z</time>
      </trkpt>
      <trkpt lat="44.48324" lon="1.56654">
        <ele>140.30331379298</ele>
        <time>2015-09-21T12:29:23Z</time>
      </trkpt>
      <trkpt lat="44.48297" lon="1.5666">
        <ele>140.11770229857</ele>
        <time>2015-09-21T12:29:28Z</time>
      </trkpt>
      <trkpt lat="44.48235" lon="1.56669">
        <ele>139.51620960993</ele>
        <time>2015-09-21T12:29:38Z</time>
      </trkpt>
      <trkpt lat="44.48203" lon="1.56669">
        <ele>138.97641307192</ele>
        <time>2015-09-21T12:29:43Z</time>
      </trkpt>
      <trkpt lat="44.48142" lon="1.56659">
        <ele>138.44018824053</ele>
        <time>2015-09-21T12:29:53Z</time>
      </trkpt>
      <trkpt lat="44.48112" lon="1.56652">
        <ele>137.96695086154</ele>
        <time>2015-09-21T12:29:58Z</time>
      </trkpt>
      <trkpt lat="44.48051" lon="1.56632">
        <ele>137.41202844212</ele>
        <time>2015-09-21T12:30:08Z</time>
      </trkpt>
      <trkpt lat="44.4802" lon="1.5662">
        <ele>137.08701040683</ele>
        <time>2015-09-21T12:30:13Z</time>
      </trkpt>
      <trkpt lat="44.4796" lon="1.56606">
        <ele>137.14136046332</ele>
        <time>2015-09-21T12:30:23Z</time>
      </trkpt>
      <trkpt lat="44.47934" lon="1.56605">
        <ele>137.04050391767</ele>
        <time>2015-09-21T12:30:28Z</time>
      </trkpt>
      <trkpt lat="44.47892" lon="1.56574">
        <ele>137.20789099647</ele>
        <time>2015-09-21T12:30:38Z</time>
      </trkpt>
      <trkpt lat="44.47864" lon="1.56566">
        <ele>137.07838536387</ele>
        <time>2015-09-21T12:30:43Z</time>
      </trkpt>
      <trkpt lat="44.47776" lon="1.56537">
        <ele>137.0294716115</ele>
        <time>2015-09-21T12:30:58Z</time>
      </trkpt>
      <trkpt lat="44.47746" lon="1.56527">
        <ele>137.01182130598</ele>
        <time>2015-09-21T12:31:03Z</time>
      </trkpt>
      <trkpt lat="44.47687" lon="1.56507">
        <ele>137.09893163215</ele>
        <time>2015-09-21T12:31:13Z</time>
      </trkpt>
      <trkpt lat="44.47657" lon="1.56498">
        <ele>137.07297664279</ele>
        <time>2015-09-21T12:31:18Z</time>
      </trkpt>
      <trkpt lat="44.47596" lon="1.56487">
        <ele>136.97262270351</ele>
        <time>2015-09-21T12:31:28Z</time>
      </trkpt>
      <trkpt lat="44.47563" lon="1.56488">
        <ele>136.65317617941</ele>
        <time>2015-09-21T12:31:33Z</time>
      </trkpt>
      <trkpt lat="44.47504" lon="1.56492">
        <ele>135.93634526578</ele>
        <time>2015-09-21T12:31:43Z</time>
      </trkpt>
      <trkpt lat="44.47472" lon="1.56494">
        <ele>135.42916745496</ele>
        <time>2015-09-21T12:31:48Z</time>
      </trkpt>
      <trkpt lat="44.47412" lon="1.56495">
        <ele>134.93649965195</ele>
        <time>2015-09-21T12:31:58Z</time>
      </trkpt>
      <trkpt lat="44.47382" lon="1.56487">
        <ele>134.62495299791</ele>
        <time>2015-09-21T12:32:03Z</time>
      </trkpt>
      <trkpt lat="44.47325" lon="1.5645">
        <ele>134.70707940758</ele>
        <time>2015-09-21T12:32:13Z</time>
      </trkpt>
      <trkpt lat="44.473" lon="1.56427">
        <ele>134.9105542543</ele>
        <time>2015-09-21T12:32:18Z</time>
      </trkpt>
      <trkpt lat="44.47249" lon="1.56385">
        <ele>134.56499671773</ele>
        <time>2015-09-21T12:32:28Z</time>
      </trkpt>
      <trkpt lat="44.47222" lon="1.56363">
        <ele>134.0005434104</ele>
        <time>2015-09-21T12:32:33Z</time>
      </trkpt>
      <trkpt lat="44.47133" lon="1.56334">
        <ele>134.01317616569</ele>
        <time>2015-09-21T12:32:48Z</time>
      </trkpt>
      <trkpt lat="44.47103" lon="1.56345">
        <ele>134.00452138368</ele>
        <time>2015-09-21T12:32:53Z</time>
      </trkpt>
      <trkpt lat="44.47045" lon="1.56377">
        <ele>133.9466003076</ele>
        <time>2015-09-21T12:33:03Z</time>
      </trkpt>
      <trkpt lat="44.47017" lon="1.56395">
        <ele>133.85838563746</ele>
        <time>2015-09-21T12:33:08Z</time>
      </trkpt>
      <trkpt lat="44.46966" lon="1.56447">
        <ele>133.96428285154</ele>
        <time>2015-09-21T12:33:18Z</time>
      </trkpt>
      <trkpt lat="44.46947" lon="1.56478">
        <ele>134.05644896458</ele>
        <time>2015-09-21T12:33:23Z</time>
      </trkpt>
      <trkpt lat="44.4691" lon="1.56548">
        <ele>133.81203223314</ele>
        <time>2015-09-21T12:33:33Z</time>
      </trkpt>
      <trkpt lat="44.46898" lon="1.56588">
        <ele>133.77248953222</ele>
        <time>2015-09-21T12:33:38Z</time>
      </trkpt>
      <trkpt lat="44.46889" lon="1.56672">
        <ele>133.74562347659</ele>
        <time>2015-09-21T12:33:48Z</time>
      </trkpt>
      <trkpt lat="44.46891" lon="1.56716">
        <ele>133.48188909208</ele>
        <time>2015-09-21T12:33:53Z</time>
      </trkpt>
      <trkpt lat="44.46934" lon="1.56774">
        <ele>133.01520689703</ele>
        <time>2015-09-21T12:34:03Z</time>
      </trkpt>
      <trkpt lat="44.46961" lon="1.56797">
        <ele>132.58108030051</ele>
        <time>2015-09-21T12:34:08Z</time>
      </trkpt>
      <trkpt lat="44.47043" lon="1.56858">
        <ele>132.49782178612</ele>
        <time>2015-09-21T12:34:23Z</time>
      </trkpt>
      <trkpt lat="44.47071" lon="1.5688">
        <ele>132.40415866932</ele>
        <time>2015-09-21T12:34:28Z</time>
      </trkpt>
      <trkpt lat="44.47127" lon="1.56925">
        <ele>132.77956922126</ele>
        <time>2015-09-21T12:34:38Z</time>
      </trkpt>
      <trkpt lat="44.47157" lon="1.56948">
        <ele>133.6013293841</ele>
        <time>2015-09-21T12:34:43Z</time>
      </trkpt>
      <trkpt lat="44.47219" lon="1.56957">
        <ele>133.21199354051</ele>
        <time>2015-09-21T12:34:53Z</time>
      </trkpt>
      <trkpt lat="44.47246" lon="1.56957">
        <ele>132.45640493996</ele>
        <time>2015-09-21T12:34:58Z</time>
      </trkpt>
      <trkpt lat="44.47309" lon="1.56977">
        <ele>131.91309358811</ele>
        <time>2015-09-21T12:35:08Z</time>
      </trkpt>
      <trkpt lat="44.47338" lon="1.56995">
        <ele>131.32167992046</ele>
        <time>2015-09-21T12:35:13Z</time>
      </trkpt>
      <trkpt lat="44.47395" lon="1.57041">
        <ele>131.01905035314</ele>
        <time>2015-09-21T12:35:23Z</time>
      </trkpt>
      <trkpt lat="44.47422" lon="1.57064">
        <ele>131.07071181304</ele>
        <time>2015-09-21T12:35:28Z</time>
      </trkpt>
      <trkpt lat="44.4748" lon="1.57098">
        <ele>131.14689629939</ele>
        <time>2015-09-21T12:35:38Z</time>
      </trkpt>
      <trkpt lat="44.47512" lon="1.57107">
        <ele>131.40389269776</ele>
        <time>2015-09-21T12:35:43Z</time>
      </trkpt>
      <trkpt lat="44.4757" lon="1.57131">
        <ele>131.9137923073</ele>
        <time>2015-09-21T12:35:53Z</time>
      </trkpt>
      <trkpt lat="44.47599" lon="1.57151">
        <ele>131.87755199575</ele>
        <time>2015-09-21T12:35:58Z</time>
      </trkpt>
      <trkpt lat="44.47649" lon="1.57201">
        <ele>131.81094495115</ele>
        <time>2015-09-21T12:36:08Z</time>
      </trkpt>
      <trkpt lat="44.47675" lon="1.57228">
        <ele>131.8025090291</ele>
        <time>2015-09-21T12:36:13Z</time>
      </trkpt>
      <trkpt lat="44.47723" lon="1.57285">
        <ele>131.68900744367</ele>
        <time>2015-09-21T12:36:23Z</time>
      </trkpt>
      <trkpt lat="44.47744" lon="1.57321">
        <ele>131.42041101499</ele>
        <time>2015-09-21T12:36:28Z</time>
      </trkpt>
      <trkpt lat="44.47787" lon="1.5744">
        <ele>131.12381264035</ele>
        <time>2015-09-21T12:36:43Z</time>
      </trkpt>
      <trkpt lat="44.47806" lon="1.57473">
        <ele>131.03241478988</ele>
        <time>2015-09-21T12:36:48Z</time>
      </trkpt>
      <trkpt lat="44.47827" lon="1.57554">
        <ele>130.23696724311</ele>
        <time>2015-09-21T12:36:58Z</time>
      </trkpt>
      <trkpt lat="44.47837" lon="1.57596">
        <ele>129.88696415807</ele>
        <time>2015-09-21T12:37:03Z</time>
      </trkpt>
      <trkpt lat="44.47841" lon="1.57685">
        <ele>129.87819499269</ele>
        <time>2015-09-21T12:37:13Z</time>
      </trkpt>
      <trkpt lat="44.47843" lon="1.57729">
        <ele>130.15638675941</ele>
        <time>2015-09-21T12:37:18Z</time>
      </trkpt>
      <trkpt lat="44.47843" lon="1.57814">
        <ele>130.77138988575</ele>
        <time>2015-09-21T12:37:28Z</time>
      </trkpt>
      <trkpt lat="44.47831" lon="1.57852">
        <ele>131.42226847407</ele>
        <time>2015-09-21T12:37:33Z</time>
      </trkpt>
      <trkpt lat="44.4783" lon="1.57925">
        <ele>132.07528756153</ele>
        <time>2015-09-21T12:37:43Z</time>
      </trkpt>
      <trkpt lat="44.47836" lon="1.57966">
        <ele>132.58380087873</ele>
        <time>2015-09-21T12:37:48Z</time>
      </trkpt>
      <trkpt lat="44.47844" lon="1.58049">
        <ele>132.69697009632</ele>
        <time>2015-09-21T12:37:58Z</time>
      </trkpt>
      <trkpt lat="44.47847" lon="1.58088">
        <ele>133.07785092572</ele>
        <time>2015-09-21T12:38:03Z</time>
      </trkpt>
      <trkpt lat="44.47856" lon="1.58173">
        <ele>133.07067777645</ele>
        <time>2015-09-21T12:38:13Z</time>
      </trkpt>
      <trkpt lat="44.47851" lon="1.58216">
        <ele>133.04987423723</ele>
        <time>2015-09-21T12:38:18Z</time>
      </trkpt>
      <trkpt lat="44.47837" lon="1.58298">
        <ele>132.91524515677</ele>
        <time>2015-09-21T12:38:28Z</time>
      </trkpt>
      <trkpt lat="44.4783" lon="1.58337">
        <ele>133.19450224853</ele>
        <time>2015-09-21T12:38:33Z</time>
      </trkpt>
      <trkpt lat="44.47811" lon="1.58408">
        <ele>133.8128785628</ele>
        <time>2015-09-21T12:38:43Z</time>
      </trkpt>
      <trkpt lat="44.4779" lon="1.58438">
        <ele>134.45501097019</ele>
        <time>2015-09-21T12:38:48Z</time>
      </trkpt>
      <trkpt lat="44.47739" lon="1.58488">
        <ele>134.46820131476</ele>
        <time>2015-09-21T12:38:58Z</time>
      </trkpt>
      <trkpt lat="44.47715" lon="1.58513">
        <ele>134.17253423318</ele>
        <time>2015-09-21T12:39:03Z</time>
      </trkpt>
      <trkpt lat="44.47661" lon="1.58551">
        <ele>134.3124130225</ele>
        <time>2015-09-21T12:39:13Z</time>
      </trkpt>
      <trkpt lat="44.47633" lon="1.58542">
        <ele>134.1631540679</ele>
        <time>2015-09-21T12:39:18Z</time>
      </trkpt>
      <trkpt lat="44.47574" lon="1.58531">
        <ele>133.68869342221</ele>
        <time>2015-09-21T12:39:28Z</time>
      </trkpt>
      <trkpt lat="44.47549" lon="1.58554">
        <ele>133.15931769019</ele>
        <time>2015-09-21T12:39:33Z</time>
      </trkpt>
      <trkpt lat="44.47471" lon="1.58628">
        <ele>132.78232158892</ele>
        <time>2015-09-21T12:39:48Z</time>
      </trkpt>
      <trkpt lat="44.4744" lon="1.5864">
        <ele>132.44658062938</ele>
        <time>2015-09-21T12:39:53Z</time>
      </trkpt>
      <trkpt lat="44.47378" lon="1.58657">
        <ele>132.03463007662</ele>
        <time>2015-09-21T12:40:03Z</time>
      </trkpt>
      <trkpt lat="44.47346" lon="1.58666">
        <ele>131.9279732365</ele>
        <time>2015-09-21T12:40:08Z</time>
      </trkpt>
      <trkpt lat="44.47288" lon="1.5868">
        <ele>132.16206376584</ele>
        <time>2015-09-21T12:40:18Z</time>
      </trkpt>
      <trkpt lat="44.47261" lon="1.58689">
        <ele>132.26431420127</ele>
        <time>2015-09-21T12:40:23Z</time>
      </trkpt>
      <trkpt lat="44.47221" lon="1.58704">
        <ele>132.15761690588</ele>
        <time>2015-09-21T12:40:33Z</time>
      </trkpt>
      <trkpt lat="44.47195" lon="1.58716">
        <ele>132.17468362955</ele>
        <time>2015-09-21T12:40:38Z</time>
      </trkpt>
      <trkpt lat="44.4714" lon="1.58753">
        <ele>132.20544120405</ele>
        <time>2015-09-21T12:40:48Z</time>
      </trkpt>
      <trkpt lat="44.47113" lon="1.58772">
        <ele>132.20552482299</ele>
        <time>2015-09-21T12:40:53Z</time>
      </trkpt>
      <trkpt lat="44.47057" lon="1.5881">
        <ele>132.22039145775</ele>
        <time>2015-09-21T12:41:03Z</time>
      </trkpt>
      <trkpt lat="44.47028" lon="1.58828">
        <ele>132.14799735965</ele>
        <time>2015-09-21T12:41:08Z</time>
      </trkpt>
      <trkpt lat="44.46973" lon="1.58867">
        <ele>132.6578653219</ele>
        <time>2015-09-21T12:41:18Z</time>
      </trkpt>
      <trkpt lat="44.46945" lon="1.58886">
        <ele>133.38869679173</ele>
        <time>2015-09-21T12:41:23Z</time>
      </trkpt>
      <trkpt lat="44.46891" lon="1.58924">
        <ele>133.45750040254</ele>
        <time>2015-09-21T12:41:33Z</time>
      </trkpt>
      <trkpt lat="44.46863" lon="1.58945">
        <ele>133.44593475068</ele>
        <time>2015-09-21T12:41:38Z</time>
      </trkpt>
      <trkpt lat="44.4681" lon="1.58993">
        <ele>133.70580546697</ele>
        <time>2015-09-21T12:41:48Z</time>
      </trkpt>
      <trkpt lat="44.46784" lon="1.59018">
        <ele>133.94263609576</ele>
        <time>2015-09-21T12:41:53Z</time>
      </trkpt>
      <trkpt lat="44.46732" lon="1.59066">
        <ele>133.98453970627</ele>
        <time>2015-09-21T12:42:03Z</time>
      </trkpt>
      <trkpt lat="44.46705" lon="1.59093">
        <ele>134.11956343193</ele>
        <time>2015-09-21T12:42:08Z</time>
      </trkpt>
      <trkpt lat="44.4665" lon="1.59147">
        <ele>134.44141021269</ele>
        <time>2015-09-21T12:42:18Z</time>
      </trkpt>
      <trkpt lat="44.46623" lon="1.59172">
        <ele>134.89227637239</ele>
        <time>2015-09-21T12:42:23Z</time>
      </trkpt>
      <trkpt lat="44.46557" lon="1.59263">
        <ele>135.1444419019</ele>
        <time>2015-09-21T12:42:38Z</time>
      </trkpt>
      <trkpt lat="44.46545" lon="1.59301">
        <ele>135.51451903866</ele>
        <time>2015-09-21T12:42:43Z</time>
      </trkpt>
      <trkpt lat="44.46524" lon="1.59389">
        <ele>136.03614557328</ele>
        <time>2015-09-21T12:42:53Z</time>
      </trkpt>
      <trkpt lat="44.46513" lon="1.59429">
        <ele>136.61038011279</ele>
        <time>2015-09-21T12:42:58Z</time>
      </trkpt>
      <trkpt lat="44.46492" lon="1.59515">
        <ele>137.17424538198</ele>
        <time>2015-09-21T12:43:08Z</time>
      </trkpt>
      <trkpt lat="44.46482" lon="1.59558">
        <ele>137.61179694337</ele>
        <time>2015-09-21T12:43:13Z</time>
      </trkpt>
      <trkpt lat="44.46461" lon="1.5964">
        <ele>138.42126826454</ele>
        <time>2015-09-21T12:43:23Z</time>
      </trkpt>
      <trkpt lat="44.46451" lon="1.59682">
        <ele>139.15535766239</ele>
        <time>2015-09-21T12:43:28Z</time>
      </trkpt>
      <trkpt lat="44.4644" lon="1.59764">
        <ele>139.54397804627</ele>
        <time>2015-09-21T12:43:38Z</time>
      </trkpt>
      <trkpt lat="44.4645" lon="1.59804">
        <ele>139.58287921366</ele>
        <time>2015-09-21T12:43:43Z</time>
      </trkpt>
      <trkpt lat="44.46473" lon="1.59886">
        <ele>139.11060976567</ele>
        <time>2015-09-21T12:43:53Z</time>
      </trkpt>
      <trkpt lat="44.46493" lon="1.59916">
        <ele>138.31050512025</ele>
        <time>2015-09-21T12:43:58Z</time>
      </trkpt>
      <trkpt lat="44.46545" lon="1.59964">
        <ele>137.20925923222</ele>
        <time>2015-09-21T12:44:08Z</time>
      </trkpt>
      <trkpt lat="44.46565" lon="1.59994">
        <ele>136.39451073933</ele>
        <time>2015-09-21T12:44:13Z</time>
      </trkpt>
      <trkpt lat="44.4662" lon="1.60093">
        <ele>135.90552796468</ele>
        <time>2015-09-21T12:44:28Z</time>
      </trkpt>
      <trkpt lat="44.46639" lon="1.60126">
        <ele>135.31661012412</ele>
        <time>2015-09-21T12:44:33Z</time>
      </trkpt>
      <trkpt lat="44.46676" lon="1.60189">
        <ele>134.59388572509</ele>
        <time>2015-09-21T12:44:43Z</time>
      </trkpt>
      <trkpt lat="44.46697" lon="1.6022">
        <ele>134.12426215717</ele>
        <time>2015-09-21T12:44:48Z</time>
      </trkpt>
      <trkpt lat="44.46747" lon="1.60271">
        <ele>133.71785871139</ele>
        <time>2015-09-21T12:44:58Z</time>
      </trkpt>
      <trkpt lat="44.46775" lon="1.60295">
        <ele>133.47235897886</ele>
        <time>2015-09-21T12:45:03Z</time>
      </trkpt>
      <trkpt lat="44.46832" lon="1.60333">
        <ele>133.52102658661</ele>
        <time>2015-09-21T12:45:13Z</time>
      </trkpt>
      <trkpt lat="44.4686" lon="1.60351">
        <ele>133.65502202717</ele>
        <time>2015-09-21T12:45:18Z</time>
      </trkpt>
      <trkpt lat="44.46917" lon="1.60384">
        <ele>133.56529194727</ele>
        <time>2015-09-21T12:45:28Z</time>
      </trkpt>
      <trkpt lat="44.46947" lon="1.604">
        <ele>133.3551948899</ele>
        <time>2015-09-21T12:45:33Z</time>
      </trkpt>
      <trkpt lat="44.47008" lon="1.60433">
        <ele>132.96228468902</ele>
        <time>2015-09-21T12:45:43Z</time>
      </trkpt>
      <trkpt lat="44.47036" lon="1.60448">
        <ele>132.68947205467</ele>
        <time>2015-09-21T12:45:48Z</time>
      </trkpt>
      <trkpt lat="44.47093" lon="1.60473">
        <ele>132.87469754045</ele>
        <time>2015-09-21T12:45:58Z</time>
      </trkpt>
      <trkpt lat="44.47127" lon="1.60482">
        <ele>132.74892318616</ele>
        <time>2015-09-21T12:46:03Z</time>
      </trkpt>
      <trkpt lat="44.47191" lon="1.60497">
        <ele>132.047201973</ele>
        <time>2015-09-21T12:46:13Z</time>
      </trkpt>
      <trkpt lat="44.47223" lon="1.60505">
        <ele>131.01562018671</ele>
        <time>2015-09-21T12:46:18Z</time>
      </trkpt>
      <trkpt lat="44.47281" lon="1.60518">
        <ele>129.98395973431</ele>
        <time>2015-09-21T12:46:28Z</time>
      </trkpt>
      <trkpt lat="44.47311" lon="1.60526">
        <ele>129.20009749238</ele>
        <time>2015-09-21T12:46:33Z</time>
      </trkpt>
      <trkpt lat="44.47369" lon="1.60541">
        <ele>129.05149079195</ele>
        <time>2015-09-21T12:46:43Z</time>
      </trkpt>
      <trkpt lat="44.47396" lon="1.60551">
        <ele>129.65032322331</ele>
        <time>2015-09-21T12:46:48Z</time>
      </trkpt>
      <trkpt lat="44.47461" lon="1.6057">
        <ele>130.03197837341</ele>
        <time>2015-09-21T12:46:58Z</time>
      </trkpt>
      <trkpt lat="44.47492" lon="1.6058">
        <ele>130.4561692788</ele>
        <time>2015-09-21T12:47:03Z</time>
      </trkpt>
      <trkpt lat="44.47587" lon="1.60614">
        <ele>130.8319276579</ele>
        <time>2015-09-21T12:47:18Z</time>
      </trkpt>
      <trkpt lat="44.47618" lon="1.60624">
        <ele>131.16154954594</ele>
        <time>2015-09-21T12:47:23Z</time>
      </trkpt>
      <trkpt lat="44.4768" lon="1.60641">
        <ele>131.47609840143</ele>
        <time>2015-09-21T12:47:33Z</time>
      </trkpt>
      <trkpt lat="44.47711" lon="1.60643">
        <ele>131.64586466598</ele>
        <time>2015-09-21T12:47:38Z</time>
      </trkpt>
      <trkpt lat="44.47775" lon="1.60647">
        <ele>131.78164418955</ele>
        <time>2015-09-21T12:47:48Z</time>
      </trkpt>
      <trkpt lat="44.47806" lon="1.60649">
        <ele>131.82766256383</ele>
        <time>2015-09-21T12:47:53Z</time>
      </trkpt>
      <trkpt lat="44.47867" lon="1.6066">
        <ele>132.07835965691</ele>
        <time>2015-09-21T12:48:03Z</time>
      </trkpt>
      <trkpt lat="44.47899" lon="1.60668">
        <ele>132.47451685754</ele>
        <time>2015-09-21T12:48:08Z</time>
      </trkpt>
      <trkpt lat="44.47963" lon="1.60685">
        <ele>132.91762799123</ele>
        <time>2015-09-21T12:48:18Z</time>
      </trkpt>
      <trkpt lat="44.47994" lon="1.60693">
        <ele>133.02807525042</ele>
        <time>2015-09-21T12:48:23Z</time>
      </trkpt>
      <trkpt lat="44.48056" lon="1.60714">
        <ele>133.10356981699</ele>
        <time>2015-09-21T12:48:33Z</time>
      </trkpt>
      <trkpt lat="44.48086" lon="1.6073">
        <ele>133.14625062872</ele>
        <time>2015-09-21T12:48:38Z</time>
      </trkpt>
      <trkpt lat="44.48144" lon="1.60767">
        <ele>133.40319263908</ele>
        <time>2015-09-21T12:48:48Z</time>
      </trkpt>
      <trkpt lat="44.4817" lon="1.6079">
        <ele>133.85774393095</ele>
        <time>2015-09-21T12:48:53Z</time>
      </trkpt>
      <trkpt lat="44.48217" lon="1.60841">
        <ele>134.09042454494</ele>
        <time>2015-09-21T12:49:03Z</time>
      </trkpt>
      <trkpt lat="44.48239" lon="1.60866">
        <ele>134.14554124545</ele>
        <time>2015-09-21T12:49:08Z</time>
      </trkpt>
      <trkpt lat="44.48316" lon="1.60892">
        <ele>134.07907214941</ele>
        <time>2015-09-21T12:49:23Z</time>
      </trkpt>
      <trkpt lat="44.48355" lon="1.60893">
        <ele>134.10176387244</ele>
        <time>2015-09-21T12:49:28Z</time>
      </trkpt>
      <trkpt lat="44.48415" lon="1.60894">
        <ele>134.20689256248</ele>
        <time>2015-09-21T12:49:38Z</time>
      </trkpt>
      <trkpt lat="44.48448" lon="1.60901">
        <ele>134.63300283374</ele>
        <time>2015-09-21T12:49:43Z</time>
      </trkpt>
      <trkpt lat="44.48504" lon="1.60934">
        <ele>135.54258898864</ele>
        <time>2015-09-21T12:49:53Z</time>
      </trkpt>
      <trkpt lat="44.48532" lon="1.60952">
        <ele>136.32108312793</ele>
        <time>2015-09-21T12:49:58Z</time>
      </trkpt>
      <trkpt lat="44.48587" lon="1.60987">
        <ele>136.80296634872</ele>
        <time>2015-09-21T12:50:08Z</time>
      </trkpt>
      <trkpt lat="44.48615" lon="1.61007">
        <ele>136.93661568844</ele>
        <time>2015-09-21T12:50:13Z</time>
      </trkpt>
      <trkpt lat="44.48656" lon="1.61069">
        <ele>136.70402808302</ele>
        <time>2015-09-21T12:50:23Z</time>
      </trkpt>
      <trkpt lat="44.48675" lon="1.611">
        <ele>136.46426750124</ele>
        <time>2015-09-21T12:50:28Z</time>
      </trkpt>
      <trkpt lat="44.48714" lon="1.61165">
        <ele>136.11773269566</ele>
        <time>2015-09-21T12:50:38Z</time>
      </trkpt>
      <trkpt lat="44.48727" lon="1.61207">
        <ele>135.65892627146</ele>
        <time>2015-09-21T12:50:43Z</time>
      </trkpt>
      <trkpt lat="44.48753" lon="1.61283">
        <ele>135.78923184663</ele>
        <time>2015-09-21T12:50:53Z</time>
      </trkpt>
      <trkpt lat="44.48764" lon="1.61323">
        <ele>135.91751430557</ele>
        <time>2015-09-21T12:50:58Z</time>
      </trkpt>
      <trkpt lat="44.48782" lon="1.61406">
        <ele>135.64019099815</ele>
        <time>2015-09-21T12:51:08Z</time>
      </trkpt>
      <trkpt lat="44.48788" lon="1.61451">
        <ele>135.62207423806</ele>
        <time>2015-09-21T12:51:13Z</time>
      </trkpt>
      <trkpt lat="44.48797" lon="1.61532">
        <ele>135.87315359344</ele>
        <time>2015-09-21T12:51:23Z</time>
      </trkpt>
      <trkpt lat="44.48802" lon="1.61578">
        <ele>135.86872529239</ele>
        <time>2015-09-21T12:51:28Z</time>
      </trkpt>
      <trkpt lat="44.48816" lon="1.6171">
        <ele>135.94478712078</ele>
        <time>2015-09-21T12:51:43Z</time>
      </trkpt>
      <trkpt lat="44.48821" lon="1.61753">
        <ele>135.8504008626</ele>
        <time>2015-09-21T12:51:48Z</time>
      </trkpt>
      <trkpt lat="44.48829" lon="1.61837">
        <ele>136.13174640002</ele>
        <time>2015-09-21T12:51:58Z</time>
      </trkpt>
      <trkpt lat="44.48834" lon="1.61882">
        <ele>136.55886606355</ele>
        <time>2015-09-21T12:52:03Z</time>
      </trkpt>
      <trkpt lat="44.48843" lon="1.61971">
        <ele>137.55238259735</ele>
        <time>2015-09-21T12:52:13Z</time>
      </trkpt>
      <trkpt lat="44.48847" lon="1.62013">
        <ele>138.54930796013</ele>
        <time>2015-09-21T12:52:18Z</time>
      </trkpt>
      <trkpt lat="44.48855" lon="1.62096">
        <ele>138.76861552123</ele>
        <time>2015-09-21T12:52:28Z</time>
      </trkpt>
      <trkpt lat="44.48859" lon="1.62136">
        <ele>138.61291830874</ele>
        <time>2015-09-21T12:52:33Z</time>
      </trkpt>
      <trkpt lat="44.48865" lon="1.62223">
        <ele>138.75895803261</ele>
        <time>2015-09-21T12:52:43Z</time>
      </trkpt>
      <trkpt lat="44.48868" lon="1.62261">
        <ele>138.96826854378</ele>
        <time>2015-09-21T12:52:48Z</time>
      </trkpt>
      <trkpt lat="44.48873" lon="1.62382">
        <ele>138.94768524759</ele>
        <time>2015-09-21T12:53:03Z</time>
      </trkpt>
      <trkpt lat="44.48874" lon="1.62429">
        <ele>138.68563917341</ele>
        <time>2015-09-21T12:53:08Z</time>
      </trkpt>
      <trkpt lat="44.48877" lon="1.62508">
        <ele>138.18651185593</ele>
        <time>2015-09-21T12:53:18Z</time>
      </trkpt>
      <trkpt lat="44.48877" lon="1.62559">
        <ele>137.78649234808</ele>
        <time>2015-09-21T12:53:23Z</time>
      </trkpt>
      <trkpt lat="44.48879" lon="1.62646">
        <ele>137.71033342594</ele>
        <time>2015-09-21T12:53:33Z</time>
      </trkpt>
      <trkpt lat="44.48881" lon="1.62691">
        <ele>137.48804731857</ele>
        <time>2015-09-21T12:53:38Z</time>
      </trkpt>
      <trkpt lat="44.48884" lon="1.62778">
        <ele>137.18896747966</ele>
        <time>2015-09-21T12:53:48Z</time>
      </trkpt>
      <trkpt lat="44.48885" lon="1.62823">
        <ele>136.92077731031</ele>
        <time>2015-09-21T12:53:53Z</time>
      </trkpt>
      <trkpt lat="44.48886" lon="1.62903">
        <ele>136.43728784117</ele>
        <time>2015-09-21T12:54:03Z</time>
      </trkpt>
      <trkpt lat="44.48886" lon="1.62947">
        <ele>136.05860979965</ele>
        <time>2015-09-21T12:54:08Z</time>
      </trkpt>
      <trkpt lat="44.48879" lon="1.63035">
        <ele>136.09544182231</ele>
        <time>2015-09-21T12:54:18Z</time>
      </trkpt>
      <trkpt lat="44.48873" lon="1.63078">
        <ele>136.14274375428</ele>
        <time>2015-09-21T12:54:23Z</time>
      </trkpt>
      <trkpt lat="44.48857" lon="1.63162">
        <ele>136.24310592267</ele>
        <time>2015-09-21T12:54:33Z</time>
      </trkpt>
      <trkpt lat="44.4885" lon="1.63203">
        <ele>136.21965807689</ele>
        <time>2015-09-21T12:54:38Z</time>
      </trkpt>
      <trkpt lat="44.48836" lon="1.6329">
        <ele>136.18266574236</ele>
        <time>2015-09-21T12:54:48Z</time>
      </trkpt>
      <trkpt lat="44.48827" lon="1.63333">
        <ele>136.21990646322</ele>
        <time>2015-09-21T12:54:53Z</time>
      </trkpt>
      <trkpt lat="44.48806" lon="1.63455">
        <ele>136.51336551078</ele>
        <time>2015-09-21T12:55:08Z</time>
      </trkpt>
      <trkpt lat="44.48799" lon="1.63497">
        <ele>136.56801663309</ele>
        <time>2015-09-21T12:55:13Z</time>
      </trkpt>
      <trkpt lat="44.48785" lon="1.63578">
        <ele>137.29491347642</ele>
        <time>2015-09-21T12:55:23Z</time>
      </trkpt>
      <trkpt lat="44.48777" lon="1.63618">
        <ele>138.15282417298</ele>
        <time>2015-09-21T12:55:28Z</time>
      </trkpt>
      <trkpt lat="44.48763" lon="1.63696">
        <ele>138.33727095669</ele>
        <time>2015-09-21T12:55:38Z</time>
      </trkpt>
      <trkpt lat="44.48756" lon="1.6374">
        <ele>138.50264023503</ele>
        <time>2015-09-21T12:55:43Z</time>
      </trkpt>
      <trkpt lat="44.48743" lon="1.63828">
        <ele>138.82297104209</ele>
        <time>2015-09-21T12:55:53Z</time>
      </trkpt>
      <trkpt lat="44.48734" lon="1.63873">
        <ele>139.11322157933</ele>
        <time>2015-09-21T12:55:58Z</time>
      </trkpt>
      <trkpt lat="44.48716" lon="1.63956">
        <ele>139.2020338242</ele>
        <time>2015-09-21T12:56:08Z</time>
      </trkpt>
      <trkpt lat="44.4871" lon="1.63996">
        <ele>139.79587763739</ele>
        <time>2015-09-21T12:56:13Z</time>
      </trkpt>
      <trkpt lat="44.4869" lon="1.64074">
        <ele>139.89063971147</ele>
        <time>2015-09-21T12:56:23Z</time>
      </trkpt>
      <trkpt lat="44.48677" lon="1.64111">
        <ele>140.0129009525</ele>
        <time>2015-09-21T12:56:28Z</time>
      </trkpt>
      <trkpt lat="44.48659" lon="1.64194">
        <ele>140.44873797291</ele>
        <time>2015-09-21T12:56:38Z</time>
      </trkpt>
      <trkpt lat="44.48651" lon="1.64234">
        <ele>140.62649938282</ele>
        <time>2015-09-21T12:56:43Z</time>
      </trkpt>
      <trkpt lat="44.48626" lon="1.64319">
        <ele>141.60248691095</ele>
        <time>2015-09-21T12:56:53Z</time>
      </trkpt>
      <trkpt lat="44.48615" lon="1.64346">
        <ele>142.35003786078</ele>
        <time>2015-09-21T12:56:58Z</time>
      </trkpt>
      <trkpt lat="44.48586" lon="1.64412">
        <ele>143.07145640303</ele>
        <time>2015-09-21T12:57:08Z</time>
      </trkpt>
      <trkpt lat="44.48569" lon="1.64449">
        <ele>143.99751491328</ele>
        <time>2015-09-21T12:57:13Z</time>
      </trkpt>
      <trkpt lat="44.48507" lon="1.64557">
        <ele>144.37594071909</ele>
        <time>2015-09-21T12:57:28Z</time>
      </trkpt>
      <trkpt lat="44.48486" lon="1.64588">
        <ele>144.52006549628</ele>
        <time>2015-09-21T12:57:33Z</time>
      </trkpt>
      <trkpt lat="44.48441" lon="1.64635">
        <ele>144.95146861421</ele>
        <time>2015-09-21T12:57:43Z</time>
      </trkpt>
      <trkpt lat="44.48418" lon="1.64652">
        <ele>145.33120479731</ele>
        <time>2015-09-21T12:57:48Z</time>
      </trkpt>
      <trkpt lat="44.48371" lon="1.64696">
        <ele>145.70567950508</ele>
        <time>2015-09-21T12:57:58Z</time>
      </trkpt>
      <trkpt lat="44.48342" lon="1.64721">
        <ele>145.88735441903</ele>
        <time>2015-09-21T12:58:03Z</time>
      </trkpt>
      <trkpt lat="44.48284" lon="1.64751">
        <ele>145.60215725127</ele>
        <time>2015-09-21T12:58:13Z</time>
      </trkpt>
      <trkpt lat="44.48257" lon="1.64768">
        <ele>145.64949447996</ele>
        <time>2015-09-21T12:58:18Z</time>
      </trkpt>
      <trkpt lat="44.482" lon="1.64795">
        <ele>146.38003816895</ele>
        <time>2015-09-21T12:58:28Z</time>
      </trkpt>
      <trkpt lat="44.4817" lon="1.64807">
        <ele>146.90627065336</ele>
        <time>2015-09-21T12:58:33Z</time>
      </trkpt>
      <trkpt lat="44.48112" lon="1.64834">
        <ele>146.50734052618</ele>
        <time>2015-09-21T12:58:43Z</time>
      </trkpt>
      <trkpt lat="44.48082" lon="1.64847">
        <ele>146.016717971</ele>
        <time>2015-09-21T12:58:48Z</time>
      </trkpt>
      <trkpt lat="44.48023" lon="1.64873">
        <ele>145.81781791468</ele>
        <time>2015-09-21T12:58:58Z</time>
      </trkpt>
      <trkpt lat="44.47995" lon="1.64886">
        <ele>145.55893594005</ele>
        <time>2015-09-21T12:59:03Z</time>
      </trkpt>
      <trkpt lat="44.47911" lon="1.64931">
        <ele>144.89996394946</ele>
        <time>2015-09-21T12:59:18Z</time>
      </trkpt>
      <trkpt lat="44.47885" lon="1.64955">
        <ele>144.27627589185</ele>
        <time>2015-09-21T12:59:23Z</time>
      </trkpt>
      <trkpt lat="44.47843" lon="1.65002">
        <ele>143.11119925606</ele>
        <time>2015-09-21T12:59:33Z</time>
      </trkpt>
      <trkpt lat="44.47826" lon="1.65025">
        <ele>141.88070343879</ele>
        <time>2015-09-21T12:59:38Z</time>
      </trkpt>
      <trkpt lat="44.47788" lon="1.6507">
        <ele>141.31417454075</ele>
        <time>2015-09-21T12:59:48Z</time>
      </trkpt>
      <trkpt lat="44.47767" lon="1.65094">
        <ele>140.78852332568</ele>
        <time>2015-09-21T12:59:53Z</time>
      </trkpt>
      <trkpt lat="44.47726" lon="1.65143">
        <ele>140.12979072616</ele>
        <time>2015-09-21T13:00:03Z</time>
      </trkpt>
      <trkpt lat="44.47703" lon="1.65169">
        <ele>139.58063868239</ele>
        <time>2015-09-21T13:00:08Z</time>
      </trkpt>
      <trkpt lat="44.47657" lon="1.65212">
        <ele>139.50966238718</ele>
        <time>2015-09-21T13:00:18Z</time>
      </trkpt>
      <trkpt lat="44.47631" lon="1.65225">
        <ele>139.17615868948</ele>
        <time>2015-09-21T13:00:23Z</time>
      </trkpt>
      <trkpt lat="44.47592" lon="1.65267">
        <ele>138.81683681709</ele>
        <time>2015-09-21T13:00:33Z</time>
      </trkpt>
      <trkpt lat="44.47567" lon="1.65295">
        <ele>138.34840903625</ele>
        <time>2015-09-21T13:00:38Z</time>
      </trkpt>
      <trkpt lat="44.47408" lon="1.65615">
        <ele>143.25666475601</ele>
        <time>2015-09-21T13:01:23Z</time>
      </trkpt>
      <trkpt lat="44.474" lon="1.65653">
        <ele>144.94756011259</ele>
        <time>2015-09-21T13:01:28Z</time>
      </trkpt>
      <trkpt lat="44.4739" lon="1.65733">
        <ele>144.79136636523</ele>
        <time>2015-09-21T13:01:38Z</time>
      </trkpt>
      <trkpt lat="44.47386" lon="1.6578">
        <ele>144.30786190653</ele>
        <time>2015-09-21T13:01:43Z</time>
      </trkpt>
      <trkpt lat="44.47381" lon="1.65864">
        <ele>143.8540936609</ele>
        <time>2015-09-21T13:01:53Z</time>
      </trkpt>
      <trkpt lat="44.47376" lon="1.65901">
        <ele>143.42934363638</ele>
        <time>2015-09-21T13:01:58Z</time>
      </trkpt>
      <trkpt lat="44.47346" lon="1.65978">
        <ele>143.45078677629</ele>
        <time>2015-09-21T13:02:08Z</time>
      </trkpt>
      <trkpt lat="44.47333" lon="1.66004">
        <ele>143.40888061324</ele>
        <time>2015-09-21T13:02:13Z</time>
      </trkpt>
      <trkpt lat="44.47331" lon="1.66109">
        <ele>143.36697445018</ele>
        <time>2015-09-21T13:02:23Z</time>
      </trkpt>
      <trkpt lat="44.47325" lon="1.66155">
        <ele>143.44545715849</ele>
        <time>2015-09-21T13:02:28Z</time>
      </trkpt>
      <trkpt lat="44.47312" lon="1.66238">
        <ele>143.94808173686</ele>
        <time>2015-09-21T13:02:38Z</time>
      </trkpt>
      <trkpt lat="44.47305" lon="1.6628">
        <ele>144.2227764853</ele>
        <time>2015-09-21T13:02:43Z</time>
      </trkpt>
      <trkpt lat="44.47283" lon="1.66364">
        <ele>144.429796367</ele>
        <time>2015-09-21T13:02:53Z</time>
      </trkpt>
      <trkpt lat="44.47269" lon="1.66405">
        <ele>144.55929080874</ele>
        <time>2015-09-21T13:02:58Z</time>
      </trkpt>
      <trkpt lat="44.47235" lon="1.66474">
        <ele>143.98267183348</ele>
        <time>2015-09-21T13:03:08Z</time>
      </trkpt>
      <trkpt lat="44.47217" lon="1.66499">
        <ele>143.30121772135</ele>
        <time>2015-09-21T13:03:13Z</time>
      </trkpt>
      <trkpt lat="44.47168" lon="1.66544">
        <ele>142.19324746011</ele>
        <time>2015-09-21T13:03:23Z</time>
      </trkpt>
      <trkpt lat="44.4714" lon="1.66563">
        <ele>141.21215157989</ele>
        <time>2015-09-21T13:03:28Z</time>
      </trkpt>
      <trkpt lat="44.47083" lon="1.66603">
        <ele>140.3226722982</ele>
        <time>2015-09-21T13:03:38Z</time>
      </trkpt>
      <trkpt lat="44.47054" lon="1.66624">
        <ele>139.76567151111</ele>
        <time>2015-09-21T13:03:43Z</time>
      </trkpt>
      <trkpt lat="44.46977" lon="1.66675">
        <ele>139.38866611766</ele>
        <time>2015-09-21T13:03:58Z</time>
      </trkpt>
      <trkpt lat="44.4695" lon="1.66692">
        <ele>139.12189209501</ele>
        <time>2015-09-21T13:04:03Z</time>
      </trkpt>
      <trkpt lat="44.46904" lon="1.66725">
        <ele>138.62655496993</ele>
        <time>2015-09-21T13:04:13Z</time>
      </trkpt>
      <trkpt lat="44.46882" lon="1.66747">
        <ele>138.09374233181</ele>
        <time>2015-09-21T13:04:18Z</time>
      </trkpt>
      <trkpt lat="44.46839" lon="1.66793">
        <ele>137.68616207552</ele>
        <time>2015-09-21T13:04:28Z</time>
      </trkpt>
      <trkpt lat="44.46821" lon="1.6682">
        <ele>137.39565902196</ele>
        <time>2015-09-21T13:04:33Z</time>
      </trkpt>
      <trkpt lat="44.46787" lon="1.66891">
        <ele>137.5025342607</ele>
        <time>2015-09-21T13:04:43Z</time>
      </trkpt>
      <trkpt lat="44.46775" lon="1.66931">
        <ele>137.91948180604</ele>
        <time>2015-09-21T13:04:48Z</time>
      </trkpt>
      <trkpt lat="44.46762" lon="1.67015">
        <ele>138.7952867177</ele>
        <time>2015-09-21T13:04:58Z</time>
      </trkpt>
      <trkpt lat="44.46763" lon="1.67059">
        <ele>139.3585921484</ele>
        <time>2015-09-21T13:05:03Z</time>
      </trkpt>
      <trkpt lat="44.46778" lon="1.67144">
        <ele>139.54406332932</ele>
        <time>2015-09-21T13:05:13Z</time>
      </trkpt>
      <trkpt lat="44.46787" lon="1.67183">
        <ele>139.53720145735</ele>
        <time>2015-09-21T13:05:18Z</time>
      </trkpt>
      <trkpt lat="44.46807" lon="1.67267">
        <ele>139.71216840779</ele>
        <time>2015-09-21T13:05:28Z</time>
      </trkpt>
      <trkpt lat="44.46818" lon="1.67307">
        <ele>139.75221400906</ele>
        <time>2015-09-21T13:05:33Z</time>
      </trkpt>
      <trkpt lat="44.46838" lon="1.67386">
        <ele>140.04155480304</ele>
        <time>2015-09-21T13:05:43Z</time>
      </trkpt>
      <trkpt lat="44.46854" lon="1.67419">
        <ele>140.4166833971</ele>
        <time>2015-09-21T13:05:48Z</time>
      </trkpt>
      <trkpt lat="44.46906" lon="1.67464">
        <ele>140.61057647484</ele>
        <time>2015-09-21T13:05:58Z</time>
      </trkpt>
      <trkpt lat="44.46936" lon="1.67476">
        <ele>140.67897288132</ele>
        <time>2015-09-21T13:06:03Z</time>
      </trkpt>
      <trkpt lat="44.47006" lon="1.67534">
        <ele>141.46648873141</ele>
        <time>2015-09-21T13:06:18Z</time>
      </trkpt>
      <trkpt lat="44.47026" lon="1.67565">
        <ele>142.32698931484</ele>
        <time>2015-09-21T13:06:23Z</time>
      </trkpt>
      <trkpt lat="44.47066" lon="1.6762">
        <ele>143.19482773863</ele>
        <time>2015-09-21T13:06:33Z</time>
      </trkpt>
      <trkpt lat="44.47082" lon="1.67657">
        <ele>144.03800319643</ele>
        <time>2015-09-21T13:06:38Z</time>
      </trkpt>
      <trkpt lat="44.47118" lon="1.67724">
        <ele>144.4234509292</ele>
        <time>2015-09-21T13:06:48Z</time>
      </trkpt>
      <trkpt lat="44.4713" lon="1.67755">
        <ele>144.96001298795</ele>
        <time>2015-09-21T13:06:53Z</time>
      </trkpt>
      <trkpt lat="44.47138" lon="1.67826">
        <ele>145.10176087006</ele>
        <time>2015-09-21T13:07:03Z</time>
      </trkpt>
      <trkpt lat="44.47148" lon="1.67861">
        <ele>144.90604587841</ele>
        <time>2015-09-21T13:07:08Z</time>
      </trkpt>
      <trkpt lat="44.47178" lon="1.67938">
        <ele>145.01784325795</ele>
        <time>2015-09-21T13:07:18Z</time>
      </trkpt>
      <trkpt lat="44.47191" lon="1.67976">
        <ele>144.89544038592</ele>
        <time>2015-09-21T13:07:23Z</time>
      </trkpt>
      <trkpt lat="44.47209" lon="1.6806">
        <ele>144.29700451993</ele>
        <time>2015-09-21T13:07:33Z</time>
      </trkpt>
      <trkpt lat="44.47213" lon="1.68102">
        <ele>143.93655070591</ele>
        <time>2015-09-21T13:07:38Z</time>
      </trkpt>
      <trkpt lat="44.47218" lon="1.68191">
        <ele>143.17799449793</ele>
        <time>2015-09-21T13:07:48Z</time>
      </trkpt>
      <trkpt lat="44.4722" lon="1.68233">
        <ele>142.47070872667</ele>
        <time>2015-09-21T13:07:53Z</time>
      </trkpt>
      <trkpt lat="44.47227" lon="1.68323">
        <ele>141.59682945027</ele>
        <time>2015-09-21T13:08:03Z</time>
      </trkpt>
      <trkpt lat="44.47229" lon="1.68366">
        <ele>140.85935347236</ele>
        <time>2015-09-21T13:08:08Z</time>
      </trkpt>
      <trkpt lat="44.47206" lon="1.68447">
        <ele>140.20717482535</ele>
        <time>2015-09-21T13:08:18Z</time>
      </trkpt>
      <trkpt lat="44.47185" lon="1.6848">
        <ele>139.99620206194</ele>
        <time>2015-09-21T13:08:23Z</time>
      </trkpt>
      <trkpt lat="44.47147" lon="1.6854">
        <ele>139.51734468734</ele>
        <time>2015-09-21T13:08:33Z</time>
      </trkpt>
      <trkpt lat="44.47127" lon="1.68573">
        <ele>139.09428986252</ele>
        <time>2015-09-21T13:08:38Z</time>
      </trkpt>
      <trkpt lat="44.47088" lon="1.68633">
        <ele>138.73854674743</ele>
        <time>2015-09-21T13:08:48Z</time>
      </trkpt>
      <trkpt lat="44.47068" lon="1.68651">
        <ele>138.79202373637</ele>
        <time>2015-09-21T13:08:53Z</time>
      </trkpt>
      <trkpt lat="44.47029" lon="1.68559">
        <ele>138.99389794396</ele>
        <time>2015-09-21T13:09:08Z</time>
      </trkpt>
      <trkpt lat="44.47019" lon="1.68523">
        <ele>139.11648006736</ele>
        <time>2015-09-21T13:09:13Z</time>
      </trkpt>
      <trkpt lat="44.46997" lon="1.68451">
        <ele>139.42457739803</ele>
        <time>2015-09-21T13:09:23Z</time>
      </trkpt>
      <trkpt lat="44.46987" lon="1.68415">
        <ele>139.97566482416</ele>
        <time>2015-09-21T13:09:28Z</time>
      </trkpt>
      <trkpt lat="44.46965" lon="1.68339">
        <ele>140.85112567896</ele>
        <time>2015-09-21T13:09:38Z</time>
      </trkpt>
      <trkpt lat="44.46954" lon="1.68302">
        <ele>141.83722843857</ele>
        <time>2015-09-21T13:09:43Z</time>
      </trkpt>
      <trkpt lat="44.46935" lon="1.68232">
        <ele>142.50505616529</ele>
        <time>2015-09-21T13:09:53Z</time>
      </trkpt>
      <trkpt lat="44.46927" lon="1.682">
        <ele>143.09219071161</ele>
        <time>2015-09-21T13:09:58Z</time>
      </trkpt>
      <trkpt lat="44.46906" lon="1.68121">
        <ele>142.91110074908</ele>
        <time>2015-09-21T13:10:08Z</time>
      </trkpt>
      <trkpt lat="44.46892" lon="1.68094">
        <ele>142.95538822361</ele>
        <time>2015-09-21T13:10:13Z</time>
      </trkpt>
      <trkpt lat="44.46858" lon="1.68044">
        <ele>143.29479517829</ele>
        <time>2015-09-21T13:10:23Z</time>
      </trkpt>
      <trkpt lat="44.46841" lon="1.6802">
        <ele>143.80578633784</ele>
        <time>2015-09-21T13:10:28Z</time>
      </trkpt>
      <trkpt lat="44.46797" lon="1.67955">
        <ele>144.28697226187</ele>
        <time>2015-09-21T13:10:43Z</time>
      </trkpt>
      <trkpt lat="44.46781" lon="1.67932">
        <ele>145.24359638731</ele>
        <time>2015-09-21T13:10:48Z</time>
      </trkpt>
      <trkpt lat="44.46736" lon="1.67911">
        <ele>146.88308003977</ele>
        <time>2015-09-21T13:10:58Z</time>
      </trkpt>
      <trkpt lat="44.46716" lon="1.67916">
        <ele>148.73281400857</ele>
        <time>2015-09-21T13:11:03Z</time>
      </trkpt>
      <trkpt lat="44.46675" lon="1.67902">
        <ele>150.74345964381</ele>
        <time>2015-09-21T13:11:13Z</time>
      </trkpt>
      <trkpt lat="44.46658" lon="1.67887">
        <ele>153.18595018685</ele>
        <time>2015-09-21T13:11:18Z</time>
      </trkpt>
      <trkpt lat="44.46626" lon="1.67856">
        <ele>155.1428707891</ele>
        <time>2015-09-21T13:11:28Z</time>
      </trkpt>
      <trkpt lat="44.4661" lon="1.67841">
        <ele>156.96176216276</ele>
        <time>2015-09-21T13:11:33Z</time>
      </trkpt>
      <trkpt lat="44.46581" lon="1.678">
        <ele>158.77776585856</ele>
        <time>2015-09-21T13:11:43Z</time>
      </trkpt>
      <trkpt lat="44.46579" lon="1.67771">
        <ele>161.0188351755</ele>
        <time>2015-09-21T13:11:48Z</time>
      </trkpt>
      <trkpt lat="44.4658" lon="1.6772">
        <ele>163.30219913151</ele>
        <time>2015-09-21T13:11:58Z</time>
      </trkpt>
      <trkpt lat="44.46575" lon="1.67694">
        <ele>165.57583314926</ele>
        <time>2015-09-21T13:12:03Z</time>
      </trkpt>
      <trkpt lat="44.46551" lon="1.67629">
        <ele>167.99343879766</ele>
        <time>2015-09-21T13:12:18Z</time>
      </trkpt>
      <trkpt lat="44.46547" lon="1.67602">
        <ele>170.55304144246</ele>
        <time>2015-09-21T13:12:23Z</time>
      </trkpt>
      <trkpt lat="44.46529" lon="1.67552">
        <ele>173.1660838888</ele>
        <time>2015-09-21T13:12:33Z</time>
      </trkpt>
      <trkpt lat="44.46522" lon="1.67526">
        <ele>175.6208088735</ele>
        <time>2015-09-21T13:12:38Z</time>
      </trkpt>
      <trkpt lat="44.46512" lon="1.67471">
        <ele>178.13953236121</ele>
        <time>2015-09-21T13:12:48Z</time>
      </trkpt>
      <trkpt lat="44.4651" lon="1.67443">
        <ele>180.53911609352</ele>
        <time>2015-09-21T13:12:53Z</time>
      </trkpt>
      <trkpt lat="44.46502" lon="1.6739">
        <ele>183.34210456728</ele>
        <time>2015-09-21T13:13:03Z</time>
      </trkpt>
      <trkpt lat="44.46499" lon="1.67364">
        <ele>186.03732364568</ele>
        <time>2015-09-21T13:13:08Z</time>
      </trkpt>
      <trkpt lat="44.46493" lon="1.67324">
        <ele>188.35337684262</ele>
        <time>2015-09-21T13:13:18Z</time>
      </trkpt>
      <trkpt lat="44.46491" lon="1.6732">
        <ele>188.35337684262</ele>
        <time>2015-09-21T13:13:23Z</time>
      </trkpt>
      <trkpt lat="44.46482" lon="1.67313">
        <ele>190.47237266602</ele>
        <time>2015-09-21T13:13:53Z</time>
      </trkpt>
      <trkpt lat="44.46478" lon="1.67311">
        <ele>190.47237266602</ele>
        <time>2015-09-21T13:13:58Z</time>
      </trkpt>
      <trkpt lat="44.46463" lon="1.67301">
        <ele>192.60700008599</ele>
        <time>2015-09-21T13:14:08Z</time>
      </trkpt>
      <trkpt lat="44.46452" lon="1.67294">
        <ele>194.5221170618</ele>
        <time>2015-09-21T13:14:13Z</time>
      </trkpt>
      <trkpt lat="44.46424" lon="1.67278">
        <ele>196.37532689896</ele>
        <time>2015-09-21T13:14:23Z</time>
      </trkpt>
      <trkpt lat="44.46412" lon="1.67267">
        <ele>198.0680027358</ele>
        <time>2015-09-21T13:14:28Z</time>
      </trkpt>
      <trkpt lat="44.46393" lon="1.67214">
        <ele>199.84082610682</ele>
        <time>2015-09-21T13:14:43Z</time>
      </trkpt>
      <trkpt lat="44.46392" lon="1.67196">
        <ele>201.45556866</ele>
        <time>2015-09-21T13:14:48Z</time>
      </trkpt>
      <trkpt lat="44.46378" lon="1.67162">
        <ele>203.03795665499</ele>
        <time>2015-09-21T13:14:58Z</time>
      </trkpt>
      <trkpt lat="44.46373" lon="1.67148">
        <ele>204.5173637562</ele>
        <time>2015-09-21T13:15:03Z</time>
      </trkpt>
      <trkpt lat="44.4637" lon="1.67121">
        <ele>206.05934802997</ele>
        <time>2015-09-21T13:15:13Z</time>
      </trkpt>
      <trkpt lat="44.46371" lon="1.67102">
        <ele>207.51461838133</ele>
        <time>2015-09-21T13:15:18Z</time>
      </trkpt>
      <trkpt lat="44.46383" lon="1.67064">
        <ele>208.99019661439</ele>
        <time>2015-09-21T13:15:28Z</time>
      </trkpt>
      <trkpt lat="44.46393" lon="1.67048">
        <ele>210.35471383974</ele>
        <time>2015-09-21T13:15:33Z</time>
      </trkpt>
      <trkpt lat="44.46406" lon="1.67016">
        <ele>211.80390579115</ele>
        <time>2015-09-21T13:15:43Z</time>
      </trkpt>
      <trkpt lat="44.4641" lon="1.66998">
        <ele>213.12988229742</ele>
        <time>2015-09-21T13:15:48Z</time>
      </trkpt>
      <trkpt lat="44.46411" lon="1.66961">
        <ele>214.52955335861</ele>
        <time>2015-09-21T13:15:58Z</time>
      </trkpt>
      <trkpt lat="44.46412" lon="1.66942">
        <ele>215.91142162538</ele>
        <time>2015-09-21T13:16:03Z</time>
      </trkpt>
      <trkpt lat="44.46412" lon="1.66902">
        <ele>217.39258528249</ele>
        <time>2015-09-21T13:16:13Z</time>
      </trkpt>
      <trkpt lat="44.46413" lon="1.66892">
        <ele>217.39258528249</ele>
        <time>2015-09-21T13:16:18Z</time>
      </trkpt>
      <trkpt lat="44.46419" lon="1.66879">
        <ele>219.13896905873</ele>
        <time>2015-09-21T13:16:28Z</time>
      </trkpt>
      <trkpt lat="44.46422" lon="1.66873">
        <ele>219.13896905873</ele>
        <time>2015-09-21T13:16:33Z</time>
      </trkpt>
      <trkpt lat="44.46434" lon="1.66876">
        <ele>220.88570001232</ele>
        <time>2015-09-21T13:16:43Z</time>
      </trkpt>
      <trkpt lat="44.4644" lon="1.66879">
        <ele>220.88570001232</ele>
        <time>2015-09-21T13:16:48Z</time>
      </trkpt>
      <trkpt lat="44.46456" lon="1.66876">
        <ele>222.89180444675</ele>
        <time>2015-09-21T13:17:03Z</time>
      </trkpt>
      <trkpt lat="44.4646" lon="1.66875">
        <ele>222.89180444675</ele>
        <time>2015-09-21T13:17:08Z</time>
      </trkpt>
      <trkpt lat="44.46468" lon="1.66869">
        <ele>224.94985972112</ele>
        <time>2015-09-21T13:17:18Z</time>
      </trkpt>
      <trkpt lat="44.4647" lon="1.66865">
        <ele>224.94985972112</ele>
        <time>2015-09-21T13:17:23Z</time>
      </trkpt>
      <trkpt lat="44.46474" lon="1.66856">
        <ele>227.1558068895</ele>
        <time>2015-09-21T13:17:33Z</time>
      </trkpt>
      <trkpt lat="44.46473" lon="1.66851">
        <ele>227.1558068895</ele>
        <time>2015-09-21T13:17:38Z</time>
      </trkpt>
      <trkpt lat="44.46472" lon="1.66847">
        <ele>227.1558068895</ele>
        <time>2015-09-21T13:17:48Z</time>
      </trkpt>
      <trkpt lat="44.46472" lon="1.66847">
        <ele>227.1558068895</ele>
        <time>2015-09-21T13:17:53Z</time>
      </trkpt>
      <trkpt lat="44.46472" lon="1.66847">
        <ele>227.1558068895</ele>
        <time>2015-09-21T13:18:03Z</time>
      </trkpt>
      <trkpt lat="44.4647" lon="1.66849">
        <ele>229.20907340191</ele>
        <time>2015-09-21T13:18:08Z</time>
      </trkpt>
      <trkpt lat="44.46469" lon="1.66851">
        <ele>229.20907340191</ele>
        <time>2015-09-21T13:18:18Z</time>
      </trkpt>
      <trkpt lat="44.46469" lon="1.66851">
        <ele>229.20907340191</ele>
        <time>2015-09-21T13:18:23Z</time>
      </trkpt>
      <trkpt lat="44.46469" lon="1.66851">
        <ele>229.20907340191</ele>
        <time>2015-09-21T13:18:33Z</time>
      </trkpt>
      <trkpt lat="44.46469" lon="1.6685">
        <ele>229.20907340191</ele>
        <time>2015-09-21T13:18:38Z</time>
      </trkpt>
      <trkpt lat="44.46477" lon="1.66845">
        <ele>231.03339904912</ele>
        <time>2015-09-21T13:18:53Z</time>
      </trkpt>
      <trkpt lat="44.4648" lon="1.66843">
        <ele>231.03339904912</ele>
        <time>2015-09-21T13:18:58Z</time>
      </trkpt>
      <trkpt lat="44.46479" lon="1.66844">
        <ele>231.03339904912</ele>
        <time>2015-09-21T13:19:08Z</time>
      </trkpt>
      <trkpt lat="44.46477" lon="1.66844">
        <ele>231.03339904912</ele>
        <time>2015-09-21T13:19:13Z</time>
      </trkpt>
      <trkpt lat="44.46475" lon="1.66846">
        <ele>231.03339904912</ele>
        <time>2015-09-21T13:19:23Z</time>
      </trkpt>
      <trkpt lat="44.46475" lon="1.66846">
        <ele>231.03339904912</ele>
        <time>2015-09-21T13:19:28Z</time>
      </trkpt>
      <trkpt lat="44.46475" lon="1.66845">
        <ele>231.03339904912</ele>
        <time>2015-09-21T13:19:38Z</time>
      </trkpt>
      <trkpt lat="44.46475" lon="1.66845">
        <ele>232.48675914195</ele>
        <time>2015-09-21T13:19:43Z</time>
      </trkpt>
      <trkpt lat="44.4647" lon="1.66855">
        <ele>233.52511274462</ele>
        <time>2015-09-21T13:19:53Z</time>
      </trkpt>
      <trkpt lat="44.46466" lon="1.66861">
        <ele>233.52511274462</ele>
        <time>2015-09-21T13:19:58Z</time>
      </trkpt>
      <trkpt lat="44.4646" lon="1.66871">
        <ele>234.20973355562</ele>
        <time>2015-09-21T13:20:08Z</time>
      </trkpt>
      <trkpt lat="44.46458" lon="1.66878">
        <ele>234.20973355562</ele>
        <time>2015-09-21T13:20:13Z</time>
      </trkpt>
      <trkpt lat="44.46458" lon="1.66891">
        <ele>234.54077077527</ele>
        <time>2015-09-21T13:20:23Z</time>
      </trkpt>
      <trkpt lat="44.46457" lon="1.66901">
        <ele>234.54077077527</ele>
        <time>2015-09-21T13:20:28Z</time>
      </trkpt>
      <trkpt lat="44.46459" lon="1.66915">
        <ele>234.54819442281</ele>
        <time>2015-09-21T13:20:38Z</time>
      </trkpt>
      <trkpt lat="44.4646" lon="1.66932">
        <ele>234.37597426051</ele>
        <time>2015-09-21T13:20:43Z</time>
      </trkpt>
      <trkpt lat="44.46463" lon="1.66966">
        <ele>233.98506465911</ele>
        <time>2015-09-21T13:20:58Z</time>
      </trkpt>
      <trkpt lat="44.46467" lon="1.66973">
        <ele>233.98506465911</ele>
        <time>2015-09-21T13:21:03Z</time>
      </trkpt>
      <trkpt lat="44.46468" lon="1.66973">
        <ele>233.98506465911</ele>
        <time>2015-09-21T13:21:13Z</time>
      </trkpt>
      <trkpt lat="44.46469" lon="1.66973">
        <ele>233.98506465911</ele>
        <time>2015-09-21T13:21:18Z</time>
      </trkpt>
      <trkpt lat="44.46469" lon="1.66987">
        <ele>233.35428721795</ele>
        <time>2015-09-21T13:21:28Z</time>
      </trkpt>
      <trkpt lat="44.46469" lon="1.67002">
        <ele>232.63758386065</ele>
        <time>2015-09-21T13:21:33Z</time>
      </trkpt>
      <trkpt lat="44.46476" lon="1.67019">
        <ele>231.74719315929</ele>
        <time>2015-09-21T13:21:43Z</time>
      </trkpt>
      <trkpt lat="44.46477" lon="1.67023">
        <ele>231.74719315929</ele>
        <time>2015-09-21T13:21:48Z</time>
      </trkpt>
      <trkpt lat="44.46477" lon="1.67024">
        <ele>231.74719315929</ele>
        <time>2015-09-21T13:21:58Z</time>
      </trkpt>
      <trkpt lat="44.46478" lon="1.6703">
        <ele>231.74719315929</ele>
        <time>2015-09-21T13:22:03Z</time>
      </trkpt>
      <trkpt lat="44.46478" lon="1.67035">
        <ele>230.42927955473</ele>
        <time>2015-09-21T13:22:13Z</time>
      </trkpt>
      <trkpt lat="44.46475" lon="1.6704">
        <ele>230.42927955473</ele>
        <time>2015-09-21T13:22:18Z</time>
      </trkpt>
      <trkpt lat="44.46469" lon="1.67039">
        <ele>228.49299407552</ele>
        <time>2015-09-21T13:22:28Z</time>
      </trkpt>
      <trkpt lat="44.46466" lon="1.67036">
        <ele>228.49299407552</ele>
        <time>2015-09-21T13:22:33Z</time>
      </trkpt>
      <trkpt lat="44.46462" lon="1.67035">
        <ele>228.49299407552</ele>
        <time>2015-09-21T13:22:43Z</time>
      </trkpt>
      <trkpt lat="44.46458" lon="1.67033">
        <ele>225.93606338375</ele>
        <time>2015-09-21T13:22:48Z</time>
      </trkpt>
      <trkpt lat="44.46455" lon="1.67041">
        <ele>225.93606338375</ele>
        <time>2015-09-21T13:23:03Z</time>
      </trkpt>
      <trkpt lat="44.46455" lon="1.67041">
        <ele>225.93606338375</ele>
        <time>2015-09-21T13:23:08Z</time>
      </trkpt>
      <trkpt lat="44.46456" lon="1.67039">
        <ele>225.93606338375</ele>
        <time>2015-09-21T13:23:33Z</time>
      </trkpt>
      <trkpt lat="44.46457" lon="1.67039">
        <ele>223.88205726479</ele>
        <time>2015-09-21T13:23:38Z</time>
      </trkpt>
      <trkpt lat="44.46462" lon="1.67038">
        <ele>223.88205726479</ele>
        <time>2015-09-21T13:23:48Z</time>
      </trkpt>
      <trkpt lat="44.46462" lon="1.67039">
        <ele>223.88205726479</ele>
        <time>2015-09-21T13:23:53Z</time>
      </trkpt>
      <trkpt lat="44.46466" lon="1.67042">
        <ele>221.64111105933</ele>
        <time>2015-09-21T13:24:03Z</time>
      </trkpt>
      <trkpt lat="44.46471" lon="1.67044">
        <ele>221.64111105933</ele>
        <time>2015-09-21T13:24:08Z</time>
      </trkpt>
      <trkpt lat="44.46478" lon="1.67037">
        <ele>219.30935555415</ele>
        <time>2015-09-21T13:24:18Z</time>
      </trkpt>
      <trkpt lat="44.46476" lon="1.67031">
        <ele>219.30935555415</ele>
        <time>2015-09-21T13:24:23Z</time>
      </trkpt>
      <trkpt lat="44.46473" lon="1.67016">
        <ele>217.43707968098</ele>
        <time>2015-09-21T13:24:38Z</time>
      </trkpt>
      <trkpt lat="44.46473" lon="1.67016">
        <ele>217.43707968098</ele>
        <time>2015-09-21T13:24:43Z</time>
      </trkpt>
      <trkpt lat="44.46474" lon="1.67012">
        <ele>217.43707968098</ele>
        <time>2015-09-21T13:24:53Z</time>
      </trkpt>
      <trkpt lat="44.46474" lon="1.67009">
        <ele>217.43707968098</ele>
        <time>2015-09-21T13:24:58Z</time>
      </trkpt>
      <trkpt lat="44.46474" lon="1.66999">
        <ele>216.2444327356</ele>
        <time>2015-09-21T13:25:08Z</time>
      </trkpt>
      <trkpt lat="44.46471" lon="1.66993">
        <ele>216.2444327356</ele>
        <time>2015-09-21T13:25:13Z</time>
      </trkpt>
      <trkpt lat="44.46467" lon="1.66985">
        <ele>215.27035929615</ele>
        <time>2015-09-21T13:25:23Z</time>
      </trkpt>
      <trkpt lat="44.46464" lon="1.66981">
        <ele>215.27035929615</ele>
        <time>2015-09-21T13:25:28Z</time>
      </trkpt>
      <trkpt lat="44.46466" lon="1.66976">
        <ele>215.27035929615</ele>
        <time>2015-09-21T13:25:38Z</time>
      </trkpt>
      <trkpt lat="44.46464" lon="1.66972">
        <ele>214.9515066147</ele>
        <time>2015-09-21T13:25:43Z</time>
      </trkpt>
      <trkpt lat="44.46464" lon="1.66972">
        <ele>214.9515066147</ele>
        <time>2015-09-21T13:25:53Z</time>
      </trkpt>
      <trkpt lat="44.46462" lon="1.66969">
        <ele>214.9515066147</ele>
        <time>2015-09-21T13:26:08Z</time>
      </trkpt>
      <trkpt lat="44.46462" lon="1.66968">
        <ele>214.9515066147</ele>
        <time>2015-09-21T13:26:13Z</time>
      </trkpt>
      <trkpt lat="44.46462" lon="1.66965">
        <ele>214.9515066147</ele>
        <time>2015-09-21T13:26:23Z</time>
      </trkpt>
      <trkpt lat="44.46465" lon="1.66962">
        <ele>215.09953211939</ele>
        <time>2015-09-21T13:26:28Z</time>
      </trkpt>
      <trkpt lat="44.46465" lon="1.66962">
        <ele>215.09953211939</ele>
        <time>2015-09-21T13:26:43Z</time>
      </trkpt>
      <trkpt lat="44.46466" lon="1.66962">
        <ele>215.09953211939</ele>
        <time>2015-09-21T13:26:58Z</time>
      </trkpt>
      <trkpt lat="44.46466" lon="1.66962">
        <ele>215.09953211939</ele>
        <time>2015-09-21T13:27:03Z</time>
      </trkpt>
      <trkpt lat="44.46466" lon="1.66962">
        <ele>215.09953211939</ele>
        <time>2015-09-21T13:27:13Z</time>
      </trkpt>
      <trkpt lat="44.46467" lon="1.66962">
        <ele>215.09953211939</ele>
        <time>2015-09-21T13:27:18Z</time>
      </trkpt>
      <trkpt lat="44.46467" lon="1.66962">
        <ele>215.09953211939</ele>
        <time>2015-09-21T13:27:28Z</time>
      </trkpt>
      <trkpt lat="44.46467" lon="1.6696">
        <ele>215.09953211939</ele>
        <time>2015-09-21T13:28:33Z</time>
      </trkpt>
      <trkpt lat="44.46466" lon="1.66958">
        <ele>215.09953211939</ele>
        <time>2015-09-21T13:28:38Z</time>
      </trkpt>
      <trkpt lat="44.46464" lon="1.66947">
        <ele>215.58163679392</ele>
        <time>2015-09-21T13:28:48Z</time>
      </trkpt>
      <trkpt lat="44.46465" lon="1.66944">
        <ele>215.58163679392</ele>
        <time>2015-09-21T13:28:53Z</time>
      </trkpt>
      <trkpt lat="44.46462" lon="1.66935">
        <ele>216.21598779503</ele>
        <time>2015-09-21T13:29:03Z</time>
      </trkpt>
      <trkpt lat="44.46461" lon="1.66929">
        <ele>216.21598779503</ele>
        <time>2015-09-21T13:29:08Z</time>
      </trkpt>
      <trkpt lat="44.46458" lon="1.66915">
        <ele>216.4876183936</ele>
        <time>2015-09-21T13:29:18Z</time>
      </trkpt>
      <trkpt lat="44.46458" lon="1.66906">
        <ele>216.4876183936</ele>
        <time>2015-09-21T13:29:23Z</time>
      </trkpt>
      <trkpt lat="44.46461" lon="1.66894">
        <ele>216.65518912614</ele>
        <time>2015-09-21T13:29:33Z</time>
      </trkpt>
      <trkpt lat="44.46461" lon="1.6689">
        <ele>216.65518912614</ele>
        <time>2015-09-21T13:29:38Z</time>
      </trkpt>
      <trkpt lat="44.46459" lon="1.66878">
        <ele>216.91524238337</ele>
        <time>2015-09-21T13:29:48Z</time>
      </trkpt>
      <trkpt lat="44.4646" lon="1.66873">
        <ele>216.91524238337</ele>
        <time>2015-09-21T13:29:53Z</time>
      </trkpt>
      <trkpt lat="44.46465" lon="1.66859">
        <ele>217.33416872584</ele>
        <time>2015-09-21T13:30:08Z</time>
      </trkpt>
      <trkpt lat="44.46468" lon="1.66853">
        <ele>217.33416872584</ele>
        <time>2015-09-21T13:30:13Z</time>
      </trkpt>
      <trkpt lat="44.4647" lon="1.66847">
        <ele>217.72789095239</ele>
        <time>2015-09-21T13:30:23Z</time>
      </trkpt>
      <trkpt lat="44.46469" lon="1.66849">
        <ele>217.72789095239</ele>
        <time>2015-09-21T13:30:28Z</time>
      </trkpt>
      <trkpt lat="44.46473" lon="1.66849">
        <ele>217.72789095239</ele>
        <time>2015-09-21T13:30:38Z</time>
      </trkpt>
      <trkpt lat="44.46473" lon="1.66849">
        <ele>217.72789095239</ele>
        <time>2015-09-21T13:30:43Z</time>
      </trkpt>
      <trkpt lat="44.46473" lon="1.66847">
        <ele>217.72789095239</ele>
        <time>2015-09-21T13:30:53Z</time>
      </trkpt>
      <trkpt lat="44.46477" lon="1.66849">
        <ele>218.19958961198</ele>
        <time>2015-09-21T13:30:58Z</time>
      </trkpt>
      <trkpt lat="44.46477" lon="1.66853">
        <ele>218.19958961198</ele>
        <time>2015-09-21T13:31:08Z</time>
      </trkpt>
      <trkpt lat="44.46477" lon="1.66853">
        <ele>218.19958961198</ele>
        <time>2015-09-21T13:31:13Z</time>
      </trkpt>
      <trkpt lat="44.46478" lon="1.66848">
        <ele>218.19958961198</ele>
        <time>2015-09-21T13:31:23Z</time>
      </trkpt>
      <trkpt lat="44.46476" lon="1.66847">
        <ele>218.72922162231</ele>
        <time>2015-09-21T13:31:28Z</time>
      </trkpt>
      <trkpt lat="44.4647" lon="1.66846">
        <ele>218.72922162231</ele>
        <time>2015-09-21T13:31:38Z</time>
      </trkpt>
      <trkpt lat="44.4647" lon="1.66848">
        <ele>218.72922162231</ele>
        <time>2015-09-21T13:31:43Z</time>
      </trkpt>
      <trkpt lat="44.46473" lon="1.66848">
        <ele>219.2114606421</ele>
        <time>2015-09-21T13:31:58Z</time>
      </trkpt>
      <trkpt lat="44.46473" lon="1.66848">
        <ele>219.2114606421</ele>
        <time>2015-09-21T13:32:03Z</time>
      </trkpt>
      <trkpt lat="44.46473" lon="1.66848">
        <ele>219.2114606421</ele>
        <time>2015-09-21T13:32:13Z</time>
      </trkpt>
      <trkpt lat="44.46473" lon="1.66849">
        <ele>219.2114606421</ele>
        <time>2015-09-21T13:40:23Z</time>
      </trkpt>
      <trkpt lat="44.46466" lon="1.66845">
        <ele>219.2114606421</ele>
        <time>2015-09-21T13:40:33Z</time>
      </trkpt>
      <trkpt lat="44.46464" lon="1.66835">
        <ele>220.11076815012</ele>
        <time>2015-09-21T13:40:38Z</time>
      </trkpt>
      <trkpt lat="44.46465" lon="1.66832">
        <ele>220.11076815012</ele>
        <time>2015-09-21T13:40:53Z</time>
      </trkpt>
      <trkpt lat="44.46465" lon="1.66832">
        <ele>220.11076815012</ele>
        <time>2015-09-21T13:41:08Z</time>
      </trkpt>
      <trkpt lat="44.46465" lon="1.66832">
        <ele>220.11076815012</ele>
        <time>2015-09-21T13:41:13Z</time>
      </trkpt>
      <trkpt lat="44.46466" lon="1.66832">
        <ele>220.11076815012</ele>
        <time>2015-09-21T13:41:23Z</time>
      </trkpt>
      <trkpt lat="44.46466" lon="1.66831">
        <ele>220.11076815012</ele>
        <time>2015-09-21T13:41:28Z</time>
      </trkpt>
      <trkpt lat="44.46466" lon="1.66831">
        <ele>220.11076815012</ele>
        <time>2015-09-21T13:41:38Z</time>
      </trkpt>
      <trkpt lat="44.46468" lon="1.66828">
        <ele>220.11076815012</ele>
        <time>2015-09-21T13:41:53Z</time>
      </trkpt>
      <trkpt lat="44.4647" lon="1.66827">
        <ele>220.11076815012</ele>
        <time>2015-09-21T13:41:58Z</time>
      </trkpt>
      <trkpt lat="44.46471" lon="1.66825">
        <ele>220.94831094345</ele>
        <time>2015-09-21T13:42:08Z</time>
      </trkpt>
      <trkpt lat="44.46471" lon="1.66823">
        <ele>220.94831094345</ele>
        <time>2015-09-21T13:42:13Z</time>
      </trkpt>
      <trkpt lat="44.46471" lon="1.66821">
        <ele>220.94831094345</ele>
        <time>2015-09-21T13:42:23Z</time>
      </trkpt>
      <trkpt lat="44.46472" lon="1.6682">
        <ele>220.94831094345</ele>
        <time>2015-09-21T13:42:28Z</time>
      </trkpt>
      <trkpt lat="44.46472" lon="1.66818">
        <ele>220.94831094345</ele>
        <time>2015-09-21T13:42:38Z</time>
      </trkpt>
      <trkpt lat="44.46472" lon="1.66817">
        <ele>220.94831094345</ele>
        <time>2015-09-21T13:42:43Z</time>
      </trkpt>
      <trkpt lat="44.46472" lon="1.66813">
        <ele>221.46785348522</ele>
        <time>2015-09-21T13:42:53Z</time>
      </trkpt>
      <trkpt lat="44.46471" lon="1.66814">
        <ele>221.46785348522</ele>
        <time>2015-09-21T13:42:58Z</time>
      </trkpt>
      <trkpt lat="44.4647" lon="1.66815">
        <ele>221.46785348522</ele>
        <time>2015-09-21T13:43:13Z</time>
      </trkpt>
      <trkpt lat="44.46469" lon="1.66814">
        <ele>221.46785348522</ele>
        <time>2015-09-21T13:43:18Z</time>
      </trkpt>
      <trkpt lat="44.46468" lon="1.66812">
        <ele>221.46785348522</ele>
        <time>2015-09-21T13:43:28Z</time>
      </trkpt>
      <trkpt lat="44.46467" lon="1.66812">
        <ele>221.46785348522</ele>
        <time>2015-09-21T13:43:33Z</time>
      </trkpt>
      <trkpt lat="44.46464" lon="1.66816">
        <ele>221.43278939957</ele>
        <time>2015-09-21T13:43:43Z</time>
      </trkpt>
      <trkpt lat="44.46464" lon="1.66818">
        <ele>221.43278939957</ele>
        <time>2015-09-21T13:43:48Z</time>
      </trkpt>
      <trkpt lat="44.46464" lon="1.6682">
        <ele>221.43278939957</ele>
        <time>2015-09-21T13:43:58Z</time>
      </trkpt>
      <trkpt lat="44.46465" lon="1.66818">
        <ele>221.43278939957</ele>
        <time>2015-09-21T13:44:03Z</time>
      </trkpt>
      <trkpt lat="44.46466" lon="1.66818">
        <ele>221.43278939957</ele>
        <time>2015-09-21T13:44:13Z</time>
      </trkpt>
      <trkpt lat="44.46465" lon="1.66829">
        <ele>221.61973841129</ele>
        <time>2015-09-21T14:32:12Z</time>
      </trkpt>
      <trkpt lat="44.46466" lon="1.66851">
        <ele>221.2055852734</ele>
        <time>2015-09-21T14:32:27Z</time>
      </trkpt>
      <trkpt lat="44.46468" lon="1.66856">
        <ele>221.2055852734</ele>
        <time>2015-09-21T14:32:32Z</time>
      </trkpt>
      <trkpt lat="44.46461" lon="1.66866">
        <ele>220.30837423937</ele>
        <time>2015-09-21T14:32:57Z</time>
      </trkpt>
      <trkpt lat="44.46455" lon="1.66878">
        <ele>219.64403013194</ele>
        <time>2015-09-21T14:33:02Z</time>
      </trkpt>
      <trkpt lat="44.46456" lon="1.66911">
        <ele>219.09696206964</ele>
        <time>2015-09-21T14:33:12Z</time>
      </trkpt>
      <trkpt lat="44.46457" lon="1.66925">
        <ele>218.51643566708</ele>
        <time>2015-09-21T14:33:17Z</time>
      </trkpt>
      <trkpt lat="44.46459" lon="1.66947">
        <ele>217.76280924008</ele>
        <time>2015-09-21T14:33:27Z</time>
      </trkpt>
      <trkpt lat="44.4646" lon="1.66956">
        <ele>217.76280924008</ele>
        <time>2015-09-21T14:33:32Z</time>
      </trkpt>
      <trkpt lat="44.46473" lon="1.66995">
        <ele>216.90886511335</ele>
        <time>2015-09-21T14:33:47Z</time>
      </trkpt>
      <trkpt lat="44.4648" lon="1.67005">
        <ele>216.06547735968</ele>
        <time>2015-09-21T14:33:52Z</time>
      </trkpt>
      <trkpt lat="44.46474" lon="1.66984">
        <ele>215.1479230584</ele>
        <time>2015-09-21T14:34:02Z</time>
      </trkpt>
      <trkpt lat="44.46472" lon="1.66973">
        <ele>215.1479230584</ele>
        <time>2015-09-21T14:34:07Z</time>
      </trkpt>
      <trkpt lat="44.46471" lon="1.66971">
        <ele>214.23635342394</ele>
        <time>2015-09-21T14:34:17Z</time>
      </trkpt>
      <trkpt lat="44.46472" lon="1.66971">
        <ele>214.23635342394</ele>
        <time>2015-09-21T14:34:22Z</time>
      </trkpt>
      <trkpt lat="44.46471" lon="1.6697">
        <ele>214.23635342394</ele>
        <time>2015-09-21T14:34:32Z</time>
      </trkpt>
      <trkpt lat="44.46468" lon="1.66968">
        <ele>214.23635342394</ele>
        <time>2015-09-21T14:34:37Z</time>
      </trkpt>
      <trkpt lat="44.46468" lon="1.66968">
        <ele>214.23635342394</ele>
        <time>2015-09-21T14:34:47Z</time>
      </trkpt>
      <trkpt lat="44.46465" lon="1.66969">
        <ele>213.41934473297</ele>
        <time>2015-09-21T14:36:07Z</time>
      </trkpt>
      <trkpt lat="44.46461" lon="1.66974">
        <ele>213.41934473297</ele>
        <time>2015-09-21T14:36:22Z</time>
      </trkpt>
      <trkpt lat="44.46462" lon="1.66974">
        <ele>213.41934473297</ele>
        <time>2015-09-21T14:36:27Z</time>
      </trkpt>
      <trkpt lat="44.46466" lon="1.66991">
        <ele>212.60568529605</ele>
        <time>2015-09-21T14:36:37Z</time>
      </trkpt>
      <trkpt lat="44.46471" lon="1.67006">
        <ele>211.79723787728</ele>
        <time>2015-09-21T14:36:42Z</time>
      </trkpt>
      <trkpt lat="44.46477" lon="1.67027">
        <ele>210.85151900866</ele>
        <time>2015-09-21T14:36:52Z</time>
      </trkpt>
      <trkpt lat="44.46475" lon="1.67035">
        <ele>210.85151900866</ele>
        <time>2015-09-21T14:36:57Z</time>
      </trkpt>
      <trkpt lat="44.46465" lon="1.67038">
        <ele>209.75210196615</ele>
        <time>2015-09-21T14:37:07Z</time>
      </trkpt>
      <trkpt lat="44.46457" lon="1.67032">
        <ele>209.75210196615</ele>
        <time>2015-09-21T14:37:12Z</time>
      </trkpt>
      <trkpt lat="44.46451" lon="1.67042">
        <ele>208.55616867109</ele>
        <time>2015-09-21T14:37:22Z</time>
      </trkpt>
      <trkpt lat="44.4645" lon="1.67048">
        <ele>208.55616867109</ele>
        <time>2015-09-21T14:37:27Z</time>
      </trkpt>
      <trkpt lat="44.46449" lon="1.67057">
        <ele>207.3168851989</ele>
        <time>2015-09-21T14:37:37Z</time>
      </trkpt>
      <trkpt lat="44.46446" lon="1.67066">
        <ele>207.3168851989</ele>
        <time>2015-09-21T14:37:42Z</time>
      </trkpt>
      <trkpt lat="44.46444" lon="1.67085">
        <ele>205.88179001874</ele>
        <time>2015-09-21T14:37:52Z</time>
      </trkpt>
      <trkpt lat="44.46442" lon="1.67095">
        <ele>205.88179001874</ele>
        <time>2015-09-21T14:37:57Z</time>
      </trkpt>
      <trkpt lat="44.46433" lon="1.67117">
        <ele>204.11007970602</ele>
        <time>2015-09-21T14:38:07Z</time>
      </trkpt>
      <trkpt lat="44.46429" lon="1.67128">
        <ele>204.11007970602</ele>
        <time>2015-09-21T14:38:12Z</time>
      </trkpt>
      <trkpt lat="44.46432" lon="1.67177">
        <ele>201.33893100753</ele>
        <time>2015-09-21T14:38:27Z</time>
      </trkpt>
      <trkpt lat="44.46435" lon="1.67195">
        <ele>198.71506831946</ele>
        <time>2015-09-21T14:38:32Z</time>
      </trkpt>
      <trkpt lat="44.46456" lon="1.67231">
        <ele>196.06109744165</ele>
        <time>2015-09-21T14:38:42Z</time>
      </trkpt>
      <trkpt lat="44.4646" lon="1.67236">
        <ele>196.06109744165</ele>
        <time>2015-09-21T14:38:47Z</time>
      </trkpt>
      <trkpt lat="44.46459" lon="1.67236">
        <ele>196.06109744165</ele>
        <time>2015-09-21T14:38:57Z</time>
      </trkpt>
      <trkpt lat="44.46458" lon="1.67236">
        <ele>196.06109744165</ele>
        <time>2015-09-21T14:39:02Z</time>
      </trkpt>
      <trkpt lat="44.46457" lon="1.67235">
        <ele>193.42878505861</ele>
        <time>2015-09-21T14:39:12Z</time>
      </trkpt>
      <trkpt lat="44.46458" lon="1.67237">
        <ele>193.42878505861</ele>
        <time>2015-09-21T14:39:17Z</time>
      </trkpt>
      <trkpt lat="44.46459" lon="1.67239">
        <ele>193.42878505861</ele>
        <time>2015-09-21T14:39:27Z</time>
      </trkpt>
      <trkpt lat="44.46458" lon="1.6724">
        <ele>193.42878505861</ele>
        <time>2015-09-21T14:39:32Z</time>
      </trkpt>
      <trkpt lat="44.46458" lon="1.67242">
        <ele>193.42878505861</ele>
        <time>2015-09-21T14:39:42Z</time>
      </trkpt>
      <trkpt lat="44.46458" lon="1.67243">
        <ele>193.42878505861</ele>
        <time>2015-09-21T14:39:47Z</time>
      </trkpt>
      <trkpt lat="44.46458" lon="1.67243">
        <ele>193.42878505861</ele>
        <time>2015-09-21T14:39:57Z</time>
      </trkpt>
      <trkpt lat="44.46459" lon="1.67242">
        <ele>193.42878505861</ele>
        <time>2015-09-21T14:40:02Z</time>
      </trkpt>
      <trkpt lat="44.46459" lon="1.67243">
        <ele>193.42878505861</ele>
        <time>2015-09-21T14:40:12Z</time>
      </trkpt>
      <trkpt lat="44.46458" lon="1.67243">
        <ele>193.42878505861</ele>
        <time>2015-09-21T14:40:17Z</time>
      </trkpt>
      <trkpt lat="44.46458" lon="1.67233">
        <ele>190.10211246498</ele>
        <time>2015-09-21T14:41:37Z</time>
      </trkpt>
      <trkpt lat="44.46456" lon="1.67229">
        <ele>190.10211246498</ele>
        <time>2015-09-21T14:41:47Z</time>
      </trkpt>
      <trkpt lat="44.46455" lon="1.67225">
        <ele>190.10211246498</ele>
        <time>2015-09-21T14:42:17Z</time>
      </trkpt>
      <trkpt lat="44.46454" lon="1.67224">
        <ele>190.10211246498</ele>
        <time>2015-09-21T14:42:22Z</time>
      </trkpt>
      <trkpt lat="44.46471" lon="1.67256">
        <ele>187.10556508062</ele>
        <time>2015-09-21T14:42:37Z</time>
      </trkpt>
      <trkpt lat="44.46479" lon="1.67271">
        <ele>184.3496916185</ele>
        <time>2015-09-21T14:42:42Z</time>
      </trkpt>
      <trkpt lat="44.46487" lon="1.67294">
        <ele>181.82283197031</ele>
        <time>2015-09-21T14:42:52Z</time>
      </trkpt>
      <trkpt lat="44.46496" lon="1.67306">
        <ele>179.57101823964</ele>
        <time>2015-09-21T14:42:57Z</time>
      </trkpt>
      <trkpt lat="44.46503" lon="1.67336">
        <ele>177.73683831681</ele>
        <time>2015-09-21T14:43:07Z</time>
      </trkpt>
      <trkpt lat="44.46501" lon="1.67353">
        <ele>176.20607668836</ele>
        <time>2015-09-21T14:43:12Z</time>
      </trkpt>
      <trkpt lat="44.465" lon="1.67389">
        <ele>175.05923677494</ele>
        <time>2015-09-21T14:43:22Z</time>
      </trkpt>
      <trkpt lat="44.46504" lon="1.6742">
        <ele>174.60025205957</ele>
        <time>2015-09-21T14:43:27Z</time>
      </trkpt>
      <trkpt lat="44.46514" lon="1.67493">
        <ele>174.48897548238</ele>
        <time>2015-09-21T14:43:37Z</time>
      </trkpt>
      <trkpt lat="44.46524" lon="1.67538">
        <ele>174.12091627624</ele>
        <time>2015-09-21T14:43:42Z</time>
      </trkpt>
      <trkpt lat="44.4655" lon="1.6763">
        <ele>173.19599056351</ele>
        <time>2015-09-21T14:43:52Z</time>
      </trkpt>
      <trkpt lat="44.4657" lon="1.67678">
        <ele>172.57609378645</ele>
        <time>2015-09-21T14:43:57Z</time>
      </trkpt>
      <trkpt lat="44.46583" lon="1.67772">
        <ele>170.89718947743</ele>
        <time>2015-09-21T14:44:07Z</time>
      </trkpt>
      <trkpt lat="44.46589" lon="1.67821">
        <ele>168.78618235257</ele>
        <time>2015-09-21T14:44:12Z</time>
      </trkpt>
      <trkpt lat="44.46641" lon="1.67876">
        <ele>166.23419741261</ele>
        <time>2015-09-21T14:44:22Z</time>
      </trkpt>
      <trkpt lat="44.46672" lon="1.67905">
        <ele>163.62326469445</ele>
        <time>2015-09-21T14:44:27Z</time>
      </trkpt>
      <trkpt lat="44.46738" lon="1.67911">
        <ele>160.71657235639</ele>
        <time>2015-09-21T14:44:37Z</time>
      </trkpt>
      <trkpt lat="44.46766" lon="1.67925">
        <ele>157.95835310883</ele>
        <time>2015-09-21T14:44:42Z</time>
      </trkpt>
      <trkpt lat="44.46832" lon="1.68014">
        <ele>155.21206981526</ele>
        <time>2015-09-21T14:44:52Z</time>
      </trkpt>
      <trkpt lat="44.46867" lon="1.68065">
        <ele>152.26461199899</ele>
        <time>2015-09-21T14:44:57Z</time>
      </trkpt>
      <trkpt lat="44.46926" lon="1.68196">
        <ele>148.58752355953</ele>
        <time>2015-09-21T14:45:12Z</time>
      </trkpt>
      <trkpt lat="44.4692" lon="1.68229">
        <ele>145.29273411097</ele>
        <time>2015-09-21T14:45:17Z</time>
      </trkpt>
      <trkpt lat="44.46901" lon="1.68251">
        <ele>142.50139805019</ele>
        <time>2015-09-21T14:45:27Z</time>
      </trkpt>
      <trkpt lat="44.46866" lon="1.68276">
        <ele>141.15341488225</ele>
        <time>2015-09-21T14:45:42Z</time>
      </trkpt>
      <trkpt lat="44.46843" lon="1.68283">
        <ele>139.80543171431</ele>
        <time>2015-09-21T14:45:47Z</time>
      </trkpt>
      <trkpt lat="44.46791" lon="1.68298">
        <ele>137.08573275419</ele>
        <time>2015-09-21T14:45:57Z</time>
      </trkpt>
      <trkpt lat="44.46766" lon="1.68308">
        <ele>135.22625338557</ele>
        <time>2015-09-21T14:46:02Z</time>
      </trkpt>
      <trkpt lat="44.46712" lon="1.68338">
        <ele>134.48144108852</ele>
        <time>2015-09-21T14:46:12Z</time>
      </trkpt>
      <trkpt lat="44.46681" lon="1.68344">
        <ele>133.42653064506</ele>
        <time>2015-09-21T14:46:17Z</time>
      </trkpt>
      <trkpt lat="44.46625" lon="1.6836">
        <ele>131.67890577803</ele>
        <time>2015-09-21T14:46:27Z</time>
      </trkpt>
      <trkpt lat="44.466" lon="1.68369">
        <ele>130.67288520156</ele>
        <time>2015-09-21T14:46:32Z</time>
      </trkpt>
      <trkpt lat="44.4655" lon="1.68388">
        <ele>130.3373846068</ele>
        <time>2015-09-21T14:46:42Z</time>
      </trkpt>
      <trkpt lat="44.46523" lon="1.68403">
        <ele>130.10020476949</ele>
        <time>2015-09-21T14:46:47Z</time>
      </trkpt>
      <trkpt lat="44.46472" lon="1.68436">
        <ele>129.9352413028</ele>
        <time>2015-09-21T14:46:57Z</time>
      </trkpt>
      <trkpt lat="44.46444" lon="1.68448">
        <ele>129.63072470474</ele>
        <time>2015-09-21T14:47:02Z</time>
      </trkpt>
      <trkpt lat="44.46384" lon="1.68476">
        <ele>129.13492479568</ele>
        <time>2015-09-21T14:47:12Z</time>
      </trkpt>
      <trkpt lat="44.46363" lon="1.68492">
        <ele>128.97688794405</ele>
        <time>2015-09-21T14:47:17Z</time>
      </trkpt>
      <trkpt lat="44.46314" lon="1.68532">
        <ele>129.25675912955</ele>
        <time>2015-09-21T14:47:27Z</time>
      </trkpt>
      <trkpt lat="44.46288" lon="1.68551">
        <ele>129.48967734192</ele>
        <time>2015-09-21T14:47:32Z</time>
      </trkpt>
      <trkpt lat="44.46203" lon="1.68609">
        <ele>129.73095783742</ele>
        <time>2015-09-21T14:47:47Z</time>
      </trkpt>
      <trkpt lat="44.46177" lon="1.68628">
        <ele>129.6139580312</ele>
        <time>2015-09-21T14:47:52Z</time>
      </trkpt>
      <trkpt lat="44.46122" lon="1.68673">
        <ele>129.17472608077</ele>
        <time>2015-09-21T14:48:02Z</time>
      </trkpt>
      <trkpt lat="44.46096" lon="1.687">
        <ele>128.87997259327</ele>
        <time>2015-09-21T14:48:07Z</time>
      </trkpt>
      <trkpt lat="44.46046" lon="1.68742">
        <ele>128.51329893213</ele>
        <time>2015-09-21T14:48:17Z</time>
      </trkpt>
      <trkpt lat="44.46021" lon="1.68767">
        <ele>128.30682489065</ele>
        <time>2015-09-21T14:48:22Z</time>
      </trkpt>
      <trkpt lat="44.45971" lon="1.68825">
        <ele>128.41761746505</ele>
        <time>2015-09-21T14:48:32Z</time>
      </trkpt>
      <trkpt lat="44.45949" lon="1.68848">
        <ele>128.67336961142</ele>
        <time>2015-09-21T14:48:37Z</time>
      </trkpt>
      <trkpt lat="44.45904" lon="1.68896">
        <ele>128.85648565841</ele>
        <time>2015-09-21T14:48:47Z</time>
      </trkpt>
      <trkpt lat="44.45884" lon="1.68931">
        <ele>129.4285816811</ele>
        <time>2015-09-21T14:48:52Z</time>
      </trkpt>
      <trkpt lat="44.45845" lon="1.6899">
        <ele>131.27755006895</ele>
        <time>2015-09-21T14:49:02Z</time>
      </trkpt>
      <trkpt lat="44.4582" lon="1.69013">
        <ele>132.83036423189</ele>
        <time>2015-09-21T14:49:07Z</time>
      </trkpt>
      <trkpt lat="44.45784" lon="1.69072">
        <ele>133.75459274256</ele>
        <time>2015-09-21T14:49:17Z</time>
      </trkpt>
      <trkpt lat="44.45768" lon="1.69097">
        <ele>134.21970901089</ele>
        <time>2015-09-21T14:49:22Z</time>
      </trkpt>
      <trkpt lat="44.45736" lon="1.69172">
        <ele>135.43620089482</ele>
        <time>2015-09-21T14:49:32Z</time>
      </trkpt>
      <trkpt lat="44.45724" lon="1.6921">
        <ele>137.37081016607</ele>
        <time>2015-09-21T14:49:37Z</time>
      </trkpt>
      <trkpt lat="44.45685" lon="1.6932">
        <ele>138.50654156894</ele>
        <time>2015-09-21T14:49:52Z</time>
      </trkpt>
      <trkpt lat="44.45676" lon="1.69362">
        <ele>139.5586987276</ele>
        <time>2015-09-21T14:49:57Z</time>
      </trkpt>
      <trkpt lat="44.4565" lon="1.69435">
        <ele>139.9943425432</ele>
        <time>2015-09-21T14:50:07Z</time>
      </trkpt>
      <trkpt lat="44.45633" lon="1.69456">
        <ele>141.02211953283</ele>
        <time>2015-09-21T14:50:12Z</time>
      </trkpt>
      <trkpt lat="44.45576" lon="1.69472">
        <ele>141.75727894466</ele>
        <time>2015-09-21T14:50:22Z</time>
      </trkpt>
      <trkpt lat="44.45548" lon="1.69474">
        <ele>142.13045653746</ele>
        <time>2015-09-21T14:50:27Z</time>
      </trkpt>
      <trkpt lat="44.45496" lon="1.69485">
        <ele>142.28034607291</ele>
        <time>2015-09-21T14:50:37Z</time>
      </trkpt>
      <trkpt lat="44.45468" lon="1.69503">
        <ele>142.24979973956</ele>
        <time>2015-09-21T14:50:42Z</time>
      </trkpt>
      <trkpt lat="44.45431" lon="1.69568">
        <ele>141.97833046725</ele>
        <time>2015-09-21T14:50:52Z</time>
      </trkpt>
      <trkpt lat="44.45431" lon="1.69606">
        <ele>141.71337565177</ele>
        <time>2015-09-21T14:50:57Z</time>
      </trkpt>
      <trkpt lat="44.45475" lon="1.69678">
        <ele>141.82845195623</ele>
        <time>2015-09-21T14:51:12Z</time>
      </trkpt>
      <trkpt lat="44.45504" lon="1.69683">
        <ele>142.06345906824</ele>
        <time>2015-09-21T14:51:17Z</time>
      </trkpt>
      <trkpt lat="44.45547" lon="1.69692">
        <ele>142.49425847136</ele>
        <time>2015-09-21T14:51:27Z</time>
      </trkpt>
      <trkpt lat="44.45568" lon="1.69694">
        <ele>143.07544175637</ele>
        <time>2015-09-21T14:51:32Z</time>
      </trkpt>
      <trkpt lat="44.45607" lon="1.69699">
        <ele>143.73582881535</ele>
        <time>2015-09-21T14:51:42Z</time>
      </trkpt>
      <trkpt lat="44.45628" lon="1.69704">
        <ele>144.42379067306</ele>
        <time>2015-09-21T14:51:47Z</time>
      </trkpt>
      <trkpt lat="44.45667" lon="1.69703">
        <ele>145.32212246812</ele>
        <time>2015-09-21T14:51:57Z</time>
      </trkpt>
      <trkpt lat="44.45688" lon="1.69725">
        <ele>146.09534093282</ele>
        <time>2015-09-21T14:52:02Z</time>
      </trkpt>
      <trkpt lat="44.45698" lon="1.69801">
        <ele>146.83659632324</ele>
        <time>2015-09-21T14:52:12Z</time>
      </trkpt>
      <trkpt lat="44.45701" lon="1.6983">
        <ele>147.71887756528</ele>
        <time>2015-09-21T14:52:17Z</time>
      </trkpt>
      <trkpt lat="44.4572" lon="1.69902">
        <ele>149.06071656227</ele>
        <time>2015-09-21T14:52:27Z</time>
      </trkpt>
      <trkpt lat="44.45734" lon="1.69951">
        <ele>150.07524580836</ele>
        <time>2015-09-21T14:52:32Z</time>
      </trkpt>
      <trkpt lat="44.45763" lon="1.70052">
        <ele>150.32266171575</ele>
        <time>2015-09-21T14:52:42Z</time>
      </trkpt>
      <trkpt lat="44.45773" lon="1.70091">
        <ele>150.27681561768</ele>
        <time>2015-09-21T14:52:47Z</time>
      </trkpt>
      <trkpt lat="44.45789" lon="1.70146">
        <ele>150.23357310598</ele>
        <time>2015-09-21T14:53:02Z</time>
      </trkpt>
      <trkpt lat="44.45785" lon="1.70131">
        <ele>150.17893955918</ele>
        <time>2015-09-21T14:53:07Z</time>
      </trkpt>
      <trkpt lat="44.45783" lon="1.70123">
        <ele>150.17893955918</ele>
        <time>2015-09-21T14:53:17Z</time>
      </trkpt>
      <trkpt lat="44.45779" lon="1.70136">
        <ele>149.99919646997</ele>
        <time>2015-09-21T14:55:57Z</time>
      </trkpt>
      <trkpt lat="44.45789" lon="1.70184">
        <ele>149.61823608316</ele>
        <time>2015-09-21T14:56:07Z</time>
      </trkpt>
      <trkpt lat="44.45798" lon="1.70216">
        <ele>149.1823463423</ele>
        <time>2015-09-21T14:56:12Z</time>
      </trkpt>
      <trkpt lat="44.45812" lon="1.70284">
        <ele>148.9713978519</ele>
        <time>2015-09-21T14:56:22Z</time>
      </trkpt>
      <trkpt lat="44.45821" lon="1.70325">
        <ele>148.82620259156</ele>
        <time>2015-09-21T14:56:27Z</time>
      </trkpt>
      <trkpt lat="44.45842" lon="1.70398">
        <ele>148.26767048757</ele>
        <time>2015-09-21T14:56:37Z</time>
      </trkpt>
      <trkpt lat="44.45851" lon="1.70437">
        <ele>147.76100021396</ele>
        <time>2015-09-21T14:56:42Z</time>
      </trkpt>
      <trkpt lat="44.45865" lon="1.70512">
        <ele>147.3047647176</ele>
        <time>2015-09-21T14:56:52Z</time>
      </trkpt>
      <trkpt lat="44.45877" lon="1.7055">
        <ele>146.99839616303</ele>
        <time>2015-09-21T14:56:57Z</time>
      </trkpt>
      <trkpt lat="44.45906" lon="1.7062">
        <ele>146.58774514801</ele>
        <time>2015-09-21T14:57:07Z</time>
      </trkpt>
      <trkpt lat="44.45919" lon="1.70654">
        <ele>146.08261593986</ele>
        <time>2015-09-21T14:57:12Z</time>
      </trkpt>
      <trkpt lat="44.45937" lon="1.70733">
        <ele>145.66528683828</ele>
        <time>2015-09-21T14:57:22Z</time>
      </trkpt>
      <trkpt lat="44.45949" lon="1.70771">
        <ele>145.15852240654</ele>
        <time>2015-09-21T14:57:27Z</time>
      </trkpt>
      <trkpt lat="44.45981" lon="1.70891">
        <ele>145.13330878865</ele>
        <time>2015-09-21T14:57:42Z</time>
      </trkpt>
      <trkpt lat="44.45992" lon="1.70933">
        <ele>144.9356048563</ele>
        <time>2015-09-21T14:57:47Z</time>
      </trkpt>
      <trkpt lat="44.46008" lon="1.71016">
        <ele>144.59396369773</ele>
        <time>2015-09-21T14:57:57Z</time>
      </trkpt>
      <trkpt lat="44.46014" lon="1.71055">
        <ele>144.46667335172</ele>
        <time>2015-09-21T14:58:02Z</time>
      </trkpt>
      <trkpt lat="44.46026" lon="1.71142">
        <ele>144.59684984637</ele>
        <time>2015-09-21T14:58:12Z</time>
      </trkpt>
      <trkpt lat="44.4603" lon="1.71178">
        <ele>144.96604565473</ele>
        <time>2015-09-21T14:58:17Z</time>
      </trkpt>
      <trkpt lat="44.46041" lon="1.71259">
        <ele>144.79267863381</ele>
        <time>2015-09-21T14:58:27Z</time>
      </trkpt>
      <trkpt lat="44.46048" lon="1.71299">
        <ele>144.66548507167</ele>
        <time>2015-09-21T14:58:32Z</time>
      </trkpt>
      <trkpt lat="44.46057" lon="1.71383">
        <ele>144.63981602003</ele>
        <time>2015-09-21T14:58:42Z</time>
      </trkpt>
      <trkpt lat="44.46066" lon="1.71424">
        <ele>144.57929739495</ele>
        <time>2015-09-21T14:58:47Z</time>
      </trkpt>
      <trkpt lat="44.46095" lon="1.71497">
        <ele>144.63145187738</ele>
        <time>2015-09-21T14:58:57Z</time>
      </trkpt>
      <trkpt lat="44.46111" lon="1.7153">
        <ele>144.68763003678</ele>
        <time>2015-09-21T14:59:02Z</time>
      </trkpt>
      <trkpt lat="44.46137" lon="1.71592">
        <ele>144.77682291745</ele>
        <time>2015-09-21T14:59:12Z</time>
      </trkpt>
      <trkpt lat="44.46147" lon="1.71624">
        <ele>144.72401457962</ele>
        <time>2015-09-21T14:59:17Z</time>
      </trkpt>
      <trkpt lat="44.46177" lon="1.71688">
        <ele>144.78533814442</ele>
        <time>2015-09-21T14:59:27Z</time>
      </trkpt>
      <trkpt lat="44.46203" lon="1.71717">
        <ele>144.90954148115</ele>
        <time>2015-09-21T14:59:32Z</time>
      </trkpt>
      <trkpt lat="44.46287" lon="1.71773">
        <ele>144.60218927571</ele>
        <time>2015-09-21T14:59:47Z</time>
      </trkpt>
      <trkpt lat="44.46313" lon="1.71774">
        <ele>144.02602809197</ele>
        <time>2015-09-21T14:59:52Z</time>
      </trkpt>
      <trkpt lat="44.4635" lon="1.71778">
        <ele>143.41904083199</ele>
        <time>2015-09-21T15:00:02Z</time>
      </trkpt>
      <trkpt lat="44.46372" lon="1.71791">
        <ele>142.78561616551</ele>
        <time>2015-09-21T15:00:07Z</time>
      </trkpt>
      <trkpt lat="44.46417" lon="1.71851">
        <ele>142.15868129721</ele>
        <time>2015-09-21T15:00:17Z</time>
      </trkpt>
      <trkpt lat="44.46433" lon="1.7188">
        <ele>141.53986502981</ele>
        <time>2015-09-21T15:00:22Z</time>
      </trkpt>
      <trkpt lat="44.46462" lon="1.71948">
        <ele>141.1179561019</ele>
        <time>2015-09-21T15:00:32Z</time>
      </trkpt>
      <trkpt lat="44.46465" lon="1.71989">
        <ele>140.54847755818</ele>
        <time>2015-09-21T15:00:37Z</time>
      </trkpt>
      <trkpt lat="44.46466" lon="1.72021">
        <ele>140.03142490597</ele>
        <time>2015-09-21T15:00:47Z</time>
      </trkpt>
      <trkpt lat="44.46463" lon="1.72008">
        <ele>139.6077957154</ele>
        <time>2015-09-21T15:01:02Z</time>
      </trkpt>
      <trkpt lat="44.46465" lon="1.72006">
        <ele>139.6077957154</ele>
        <time>2015-09-21T15:05:32Z</time>
      </trkpt>
      <trkpt lat="44.46464" lon="1.72007">
        <ele>139.6077957154</ele>
        <time>2015-09-21T15:05:42Z</time>
      </trkpt>
      <trkpt lat="44.46464" lon="1.72008">
        <ele>139.6077957154</ele>
        <time>2015-09-21T15:05:47Z</time>
      </trkpt>
      <trkpt lat="44.46465" lon="1.72007">
        <ele>139.6077957154</ele>
        <time>2015-09-21T15:05:57Z</time>
      </trkpt>
      <trkpt lat="44.46466" lon="1.72006">
        <ele>139.6077957154</ele>
        <time>2015-09-21T15:06:02Z</time>
      </trkpt>
      <trkpt lat="44.46467" lon="1.72005">
        <ele>139.6077957154</ele>
        <time>2015-09-21T15:06:12Z</time>
      </trkpt>
      <trkpt lat="44.46467" lon="1.72004">
        <ele>138.85410845944</ele>
        <time>2015-09-21T15:06:17Z</time>
      </trkpt>
      <trkpt lat="44.46467" lon="1.72005">
        <ele>138.85410845944</ele>
        <time>2015-09-21T15:06:32Z</time>
      </trkpt>
      <trkpt lat="44.46466" lon="1.72006">
        <ele>138.85410845944</ele>
        <time>2015-09-21T15:06:37Z</time>
      </trkpt>
      <trkpt lat="44.46464" lon="1.72008">
        <ele>138.85410845944</ele>
        <time>2015-09-21T15:06:47Z</time>
      </trkpt>
      <trkpt lat="44.46463" lon="1.72008">
        <ele>138.85410845944</ele>
        <time>2015-09-21T15:06:52Z</time>
      </trkpt>
      <trkpt lat="44.46461" lon="1.72023">
        <ele>138.05618744245</ele>
        <time>2015-09-21T15:07:02Z</time>
      </trkpt>
      <trkpt lat="44.46458" lon="1.72053">
        <ele>137.62304326767</ele>
        <time>2015-09-21T15:07:07Z</time>
      </trkpt>
      <trkpt lat="44.46456" lon="1.72138">
        <ele>137.28406390923</ele>
        <time>2015-09-21T15:07:17Z</time>
      </trkpt>
      <trkpt lat="44.46456" lon="1.72175">
        <ele>137.03318757165</ele>
        <time>2015-09-21T15:07:22Z</time>
      </trkpt>
      <trkpt lat="44.46488" lon="1.7221">
        <ele>136.89332039178</ele>
        <time>2015-09-21T15:07:32Z</time>
      </trkpt>
      <trkpt lat="44.46494" lon="1.72247">
        <ele>136.66915731883</ele>
        <time>2015-09-21T15:07:37Z</time>
      </trkpt>
      <trkpt lat="44.46493" lon="1.72326">
        <ele>136.35286215828</ele>
        <time>2015-09-21T15:07:47Z</time>
      </trkpt>
      <trkpt lat="44.46491" lon="1.72364">
        <ele>136.0959095406</ele>
        <time>2015-09-21T15:07:52Z</time>
      </trkpt>
      <trkpt lat="44.46511" lon="1.72436">
        <ele>136.16813772766</ele>
        <time>2015-09-21T15:08:02Z</time>
      </trkpt>
      <trkpt lat="44.46515" lon="1.72469">
        <ele>136.11245475371</ele>
        <time>2015-09-21T15:08:07Z</time>
      </trkpt>
      <trkpt lat="44.46504" lon="1.72543">
        <ele>135.83712379829</ele>
        <time>2015-09-21T15:08:17Z</time>
      </trkpt>
      <trkpt lat="44.46492" lon="1.72566">
        <ele>135.63241813813</ele>
        <time>2015-09-21T15:08:22Z</time>
      </trkpt>
      <trkpt lat="44.46476" lon="1.72687">
        <ele>135.06091295579</ele>
        <time>2015-09-21T15:08:37Z</time>
      </trkpt>
      <trkpt lat="44.46468" lon="1.72721">
        <ele>134.48210368038</ele>
        <time>2015-09-21T15:08:42Z</time>
      </trkpt>
      <trkpt lat="44.46453" lon="1.72785">
        <ele>134.01290061528</ele>
        <time>2015-09-21T15:08:52Z</time>
      </trkpt>
      <trkpt lat="44.46435" lon="1.72813">
        <ele>133.50188761485</ele>
        <time>2015-09-21T15:08:57Z</time>
      </trkpt>
      <trkpt lat="44.46387" lon="1.72862">
        <ele>133.03943560122</ele>
        <time>2015-09-21T15:09:07Z</time>
      </trkpt>
      <trkpt lat="44.46364" lon="1.72883">
        <ele>132.98292155345</ele>
        <time>2015-09-21T15:09:12Z</time>
      </trkpt>
      <trkpt lat="44.46325" lon="1.72937">
        <ele>133.20114682156</ele>
        <time>2015-09-21T15:09:22Z</time>
      </trkpt>
      <trkpt lat="44.46307" lon="1.72969">
        <ele>133.21147621335</ele>
        <time>2015-09-21T15:09:27Z</time>
      </trkpt>
      <trkpt lat="44.4627" lon="1.73028">
        <ele>133.05726761771</ele>
        <time>2015-09-21T15:09:37Z</time>
      </trkpt>
      <trkpt lat="44.46253" lon="1.73059">
        <ele>133.12500418684</ele>
        <time>2015-09-21T15:09:42Z</time>
      </trkpt>
      <trkpt lat="44.4622" lon="1.73127">
        <ele>132.67689557612</ele>
        <time>2015-09-21T15:09:52Z</time>
      </trkpt>
      <trkpt lat="44.46198" lon="1.73156">
        <ele>131.9819161336</ele>
        <time>2015-09-21T15:09:57Z</time>
      </trkpt>
      <trkpt lat="44.46146" lon="1.73214">
        <ele>131.86640617366</ele>
        <time>2015-09-21T15:10:12Z</time>
      </trkpt>
      <trkpt lat="44.46132" lon="1.73239">
        <ele>131.98471052134</ele>
        <time>2015-09-21T15:10:17Z</time>
      </trkpt>
      <trkpt lat="44.46097" lon="1.73305">
        <ele>131.8573769097</ele>
        <time>2015-09-21T15:10:27Z</time>
      </trkpt>
      <trkpt lat="44.46079" lon="1.73338">
        <ele>131.37230885057</ele>
        <time>2015-09-21T15:10:32Z</time>
      </trkpt>
      <trkpt lat="44.46042" lon="1.73408">
        <ele>131.24807439719</ele>
        <time>2015-09-21T15:10:42Z</time>
      </trkpt>
      <trkpt lat="44.46024" lon="1.73439">
        <ele>131.51534963118</ele>
        <time>2015-09-21T15:10:47Z</time>
      </trkpt>
      <trkpt lat="44.45998" lon="1.73507">
        <ele>131.98528974385</ele>
        <time>2015-09-21T15:10:57Z</time>
      </trkpt>
      <trkpt lat="44.45991" lon="1.73548">
        <ele>132.69852233233</ele>
        <time>2015-09-21T15:11:02Z</time>
      </trkpt>
      <trkpt lat="44.45989" lon="1.73566">
        <ele>133.41820441162</ele>
        <time>2015-09-21T15:11:12Z</time>
      </trkpt>
      <trkpt lat="44.4599" lon="1.73562">
        <ele>133.41820441162</ele>
        <time>2015-09-21T15:11:17Z</time>
      </trkpt>
      <trkpt lat="44.4599" lon="1.73564">
        <ele>133.41820441162</ele>
        <time>2015-09-21T15:11:52Z</time>
      </trkpt>
      <trkpt lat="44.45989" lon="1.73575">
        <ele>134.19869902704</ele>
        <time>2015-09-21T15:11:57Z</time>
      </trkpt>
      <trkpt lat="44.45972" lon="1.7364">
        <ele>135.0469936991</ele>
        <time>2015-09-21T15:12:07Z</time>
      </trkpt>
      <trkpt lat="44.45961" lon="1.7368">
        <ele>135.78205690895</ele>
        <time>2015-09-21T15:12:12Z</time>
      </trkpt>
      <trkpt lat="44.45953" lon="1.73767">
        <ele>136.89942082667</ele>
        <time>2015-09-21T15:12:22Z</time>
      </trkpt>
      <trkpt lat="44.45948" lon="1.73806">
        <ele>137.60341906082</ele>
        <time>2015-09-21T15:12:27Z</time>
      </trkpt>
      <trkpt lat="44.45916" lon="1.7388">
        <ele>138.25328717904</ele>
        <time>2015-09-21T15:12:37Z</time>
      </trkpt>
      <trkpt lat="44.45905" lon="1.73918">
        <ele>139.11002127982</ele>
        <time>2015-09-21T15:12:42Z</time>
      </trkpt>
      <trkpt lat="44.45895" lon="1.74041">
        <ele>140.15552275117</ele>
        <time>2015-09-21T15:12:57Z</time>
      </trkpt>
      <trkpt lat="44.45903" lon="1.74084">
        <ele>141.47343386266</ele>
        <time>2015-09-21T15:13:02Z</time>
      </trkpt>
      <trkpt lat="44.45933" lon="1.74161">
        <ele>142.95321255568</ele>
        <time>2015-09-21T15:13:12Z</time>
      </trkpt>
      <trkpt lat="44.45946" lon="1.74193">
        <ele>144.27589109734</ele>
        <time>2015-09-21T15:13:17Z</time>
      </trkpt>
      <trkpt lat="44.45978" lon="1.74265">
        <ele>145.34821000038</ele>
        <time>2015-09-21T15:13:27Z</time>
      </trkpt>
      <trkpt lat="44.45997" lon="1.74294">
        <ele>146.35835997333</ele>
        <time>2015-09-21T15:13:32Z</time>
      </trkpt>
      <trkpt lat="44.46041" lon="1.74353">
        <ele>146.87570364943</ele>
        <time>2015-09-21T15:13:42Z</time>
      </trkpt>
      <trkpt lat="44.46072" lon="1.74373">
        <ele>147.39619948187</ele>
        <time>2015-09-21T15:13:47Z</time>
      </trkpt>
      <trkpt lat="44.46133" lon="1.74395">
        <ele>147.35626289497</ele>
        <time>2015-09-21T15:13:57Z</time>
      </trkpt>
      <trkpt lat="44.46161" lon="1.7441">
        <ele>147.17208854885</ele>
        <time>2015-09-21T15:14:02Z</time>
      </trkpt>
      <trkpt lat="44.46209" lon="1.74446">
        <ele>147.07125807819</ele>
        <time>2015-09-21T15:14:12Z</time>
      </trkpt>
      <trkpt lat="44.46227" lon="1.74462">
        <ele>147.2788840679</ele>
        <time>2015-09-21T15:14:17Z</time>
      </trkpt>
      <trkpt lat="44.46245" lon="1.74525">
        <ele>148.00274311624</ele>
        <time>2015-09-21T15:14:27Z</time>
      </trkpt>
      <trkpt lat="44.46257" lon="1.74563">
        <ele>148.58370616432</ele>
        <time>2015-09-21T15:14:32Z</time>
      </trkpt>
      <trkpt lat="44.46277" lon="1.74636">
        <ele>148.52681097723</ele>
        <time>2015-09-21T15:14:42Z</time>
      </trkpt>
      <trkpt lat="44.46282" lon="1.7467">
        <ele>148.47054363877</ele>
        <time>2015-09-21T15:14:47Z</time>
      </trkpt>
      <trkpt lat="44.46253" lon="1.7477">
        <ele>148.50214700881</ele>
        <time>2015-09-21T15:15:02Z</time>
      </trkpt>
      <trkpt lat="44.46234" lon="1.74798">
        <ele>148.41403132711</ele>
        <time>2015-09-21T15:15:07Z</time>
      </trkpt>
      <trkpt lat="44.4623" lon="1.74865">
        <ele>148.37450915238</ele>
        <time>2015-09-21T15:15:17Z</time>
      </trkpt>
      <trkpt lat="44.46244" lon="1.74894">
        <ele>148.68353792291</ele>
        <time>2015-09-21T15:15:22Z</time>
      </trkpt>
      <trkpt lat="44.46256" lon="1.7494">
        <ele>149.45957105747</ele>
        <time>2015-09-21T15:15:32Z</time>
      </trkpt>
      <trkpt lat="44.46268" lon="1.74965">
        <ele>150.6957910083</ele>
        <time>2015-09-21T15:15:37Z</time>
      </trkpt>
      <trkpt lat="44.463" lon="1.74988">
        <ele>152.28374360671</ele>
        <time>2015-09-21T15:15:47Z</time>
      </trkpt>
      <trkpt lat="44.46318" lon="1.74984">
        <ele>153.74730140792</ele>
        <time>2015-09-21T15:15:52Z</time>
      </trkpt>
      <trkpt lat="44.46351" lon="1.74963">
        <ele>155.15009227535</ele>
        <time>2015-09-21T15:16:02Z</time>
      </trkpt>
      <trkpt lat="44.46368" lon="1.74954">
        <ele>156.40717643055</ele>
        <time>2015-09-21T15:16:07Z</time>
      </trkpt>
      <trkpt lat="44.46411" lon="1.74951">
        <ele>157.55560355535</ele>
        <time>2015-09-21T15:16:17Z</time>
      </trkpt>
      <trkpt lat="44.46426" lon="1.74966">
        <ele>158.61565113162</ele>
        <time>2015-09-21T15:16:22Z</time>
      </trkpt>
      <trkpt lat="44.4645" lon="1.75011">
        <ele>159.9811027542</ele>
        <time>2015-09-21T15:16:32Z</time>
      </trkpt>
      <trkpt lat="44.46463" lon="1.75032">
        <ele>161.33869676391</ele>
        <time>2015-09-21T15:16:37Z</time>
      </trkpt>
      <trkpt lat="44.46464" lon="1.75102">
        <ele>162.61443555342</ele>
        <time>2015-09-21T15:16:52Z</time>
      </trkpt>
      <trkpt lat="44.46449" lon="1.75121">
        <ele>163.86975238093</ele>
        <time>2015-09-21T15:16:57Z</time>
      </trkpt>
      <trkpt lat="44.46415" lon="1.7515">
        <ele>165.55079316862</ele>
        <time>2015-09-21T15:17:07Z</time>
      </trkpt>
      <trkpt lat="44.46397" lon="1.75165">
        <ele>167.13308391349</ele>
        <time>2015-09-21T15:17:12Z</time>
      </trkpt>
      <trkpt lat="44.46364" lon="1.75192">
        <ele>168.53453936365</ele>
        <time>2015-09-21T15:17:22Z</time>
      </trkpt>
      <trkpt lat="44.46344" lon="1.75209">
        <ele>169.80938656679</ele>
        <time>2015-09-21T15:17:27Z</time>
      </trkpt>
      <trkpt lat="44.46308" lon="1.7524">
        <ele>171.09476755512</ele>
        <time>2015-09-21T15:17:37Z</time>
      </trkpt>
      <trkpt lat="44.46293" lon="1.75252">
        <ele>172.34486406044</ele>
        <time>2015-09-21T15:17:42Z</time>
      </trkpt>
      <trkpt lat="44.46268" lon="1.75274">
        <ele>173.56063252951</ele>
        <time>2015-09-21T15:17:52Z</time>
      </trkpt>
      <trkpt lat="44.46262" lon="1.75291">
        <ele>174.68548653002</ele>
        <time>2015-09-21T15:17:57Z</time>
      </trkpt>
      <trkpt lat="44.46265" lon="1.75316">
        <ele>176.11407072066</ele>
        <time>2015-09-21T15:18:12Z</time>
      </trkpt>
      <trkpt lat="44.46269" lon="1.75321">
        <ele>176.11407072066</ele>
        <time>2015-09-21T15:18:17Z</time>
      </trkpt>
      <trkpt lat="44.46274" lon="1.75319">
        <ele>177.60599420854</ele>
        <time>2015-09-21T15:20:07Z</time>
      </trkpt>
      <trkpt lat="44.46275" lon="1.75319">
        <ele>177.60599420854</ele>
        <time>2015-09-21T15:24:32Z</time>
      </trkpt>
      <trkpt lat="44.46277" lon="1.7532">
        <ele>177.60599420854</ele>
        <time>2015-09-21T15:24:37Z</time>
      </trkpt>
      <trkpt lat="44.46277" lon="1.7532">
        <ele>177.60599420854</ele>
        <time>2015-09-21T15:24:47Z</time>
      </trkpt>
      <trkpt lat="44.46277" lon="1.75321">
        <ele>177.60599420854</ele>
        <time>2015-09-21T15:24:52Z</time>
      </trkpt>
      <trkpt lat="44.46277" lon="1.75321">
        <ele>177.60599420854</ele>
        <time>2015-09-21T15:25:02Z</time>
      </trkpt>
      <trkpt lat="44.46277" lon="1.75321">
        <ele>177.60599420854</ele>
        <time>2015-09-21T15:26:27Z</time>
      </trkpt>
      <trkpt lat="44.46262" lon="1.7529">
        <ele>179.39957687413</ele>
        <time>2015-09-21T15:26:37Z</time>
      </trkpt>
      <trkpt lat="44.46266" lon="1.75268">
        <ele>181.59957182426</ele>
        <time>2015-09-21T15:26:42Z</time>
      </trkpt>
      <trkpt lat="44.46335" lon="1.75214">
        <ele>182.73116147807</ele>
        <time>2015-09-21T15:26:52Z</time>
      </trkpt>
      <trkpt lat="44.4637" lon="1.75186">
        <ele>182.95851848527</ele>
        <time>2015-09-21T15:26:57Z</time>
      </trkpt>
      <trkpt lat="44.46427" lon="1.75139">
        <ele>182.53724108526</ele>
        <time>2015-09-21T15:27:07Z</time>
      </trkpt>
      <trkpt lat="44.4645" lon="1.7512">
        <ele>181.95102241025</ele>
        <time>2015-09-21T15:27:12Z</time>
      </trkpt>
      <trkpt lat="44.4647" lon="1.75048">
        <ele>180.62534522098</ele>
        <time>2015-09-21T15:27:22Z</time>
      </trkpt>
      <trkpt lat="44.46451" lon="1.75005">
        <ele>179.24053480504</ele>
        <time>2015-09-21T15:27:27Z</time>
      </trkpt>
      <trkpt lat="44.46392" lon="1.74949">
        <ele>177.43274992422</ele>
        <time>2015-09-21T15:27:37Z</time>
      </trkpt>
      <trkpt lat="44.4635" lon="1.74965">
        <ele>175.47132042094</ele>
        <time>2015-09-21T15:27:42Z</time>
      </trkpt>
      <trkpt lat="44.46258" lon="1.74911">
        <ele>173.13062342576</ele>
        <time>2015-09-21T15:27:57Z</time>
      </trkpt>
      <trkpt lat="44.46278" lon="1.74908">
        <ele>170.40437496032</ele>
        <time>2015-09-21T15:28:02Z</time>
      </trkpt>
      <trkpt lat="44.46336" lon="1.74878">
        <ele>167.33098914198</ele>
        <time>2015-09-21T15:28:12Z</time>
      </trkpt>
      <trkpt lat="44.46367" lon="1.74868">
        <ele>164.24956319213</ele>
        <time>2015-09-21T15:28:17Z</time>
      </trkpt>
      <trkpt lat="44.46424" lon="1.74853">
        <ele>161.0850807064</ele>
        <time>2015-09-21T15:28:27Z</time>
      </trkpt>
      <trkpt lat="44.46454" lon="1.74841">
        <ele>158.21486491726</ele>
        <time>2015-09-21T15:28:32Z</time>
      </trkpt>
      <trkpt lat="44.46509" lon="1.74796">
        <ele>155.74253809107</ele>
        <time>2015-09-21T15:28:42Z</time>
      </trkpt>
      <trkpt lat="44.46544" lon="1.74808">
        <ele>153.28724200542</ele>
        <time>2015-09-21T15:28:47Z</time>
      </trkpt>
      <trkpt lat="44.46595" lon="1.74865">
        <ele>150.51025971332</ele>
        <time>2015-09-21T15:28:57Z</time>
      </trkpt>
      <trkpt lat="44.46614" lon="1.74901">
        <ele>147.90547000174</ele>
        <time>2015-09-21T15:29:02Z</time>
      </trkpt>
      <trkpt lat="44.46638" lon="1.74994">
        <ele>145.54066783136</ele>
        <time>2015-09-21T15:29:12Z</time>
      </trkpt>
      <trkpt lat="44.46638" lon="1.75051">
        <ele>143.27601074355</ele>
        <time>2015-09-21T15:29:17Z</time>
      </trkpt>
      <trkpt lat="44.46596" lon="1.75122">
        <ele>140.69319085698</ele>
        <time>2015-09-21T15:29:27Z</time>
      </trkpt>
      <trkpt lat="44.46575" lon="1.75141">
        <ele>138.39964931008</ele>
        <time>2015-09-21T15:29:32Z</time>
      </trkpt>
      <trkpt lat="44.46526" lon="1.75183">
        <ele>136.15012877463</ele>
        <time>2015-09-21T15:29:42Z</time>
      </trkpt>
      <trkpt lat="44.46497" lon="1.75206">
        <ele>134.22141055502</ele>
        <time>2015-09-21T15:29:47Z</time>
      </trkpt>
      <trkpt lat="44.46445" lon="1.75258">
        <ele>132.58057880387</ele>
        <time>2015-09-21T15:29:57Z</time>
      </trkpt>
      <trkpt lat="44.46421" lon="1.753">
        <ele>131.41225587671</ele>
        <time>2015-09-21T15:30:02Z</time>
      </trkpt>
      <trkpt lat="44.46357" lon="1.75372">
        <ele>130.33832128885</ele>
        <time>2015-09-21T15:30:17Z</time>
      </trkpt>
      <trkpt lat="44.46333" lon="1.75397">
        <ele>129.85819918178</ele>
        <time>2015-09-21T15:30:22Z</time>
      </trkpt>
      <trkpt lat="44.46283" lon="1.75445">
        <ele>129.68337187716</ele>
        <time>2015-09-21T15:30:32Z</time>
      </trkpt>
      <trkpt lat="44.46258" lon="1.75467">
        <ele>129.51664143951</ele>
        <time>2015-09-21T15:30:37Z</time>
      </trkpt>
      <trkpt lat="44.46205" lon="1.75509">
        <ele>129.09685000026</ele>
        <time>2015-09-21T15:30:47Z</time>
      </trkpt>
      <trkpt lat="44.4618" lon="1.75528">
        <ele>129.00400404967</ele>
        <time>2015-09-21T15:30:52Z</time>
      </trkpt>
      <trkpt lat="44.46128" lon="1.75564">
        <ele>129.12593857703</ele>
        <time>2015-09-21T15:31:02Z</time>
      </trkpt>
      <trkpt lat="44.46104" lon="1.75582">
        <ele>129.25711690349</ele>
        <time>2015-09-21T15:31:07Z</time>
      </trkpt>
      <trkpt lat="44.46048" lon="1.75629">
        <ele>129.69693877354</ele>
        <time>2015-09-21T15:31:17Z</time>
      </trkpt>
      <trkpt lat="44.46019" lon="1.75656">
        <ele>130.27510284385</ele>
        <time>2015-09-21T15:31:22Z</time>
      </trkpt>
      <trkpt lat="44.45986" lon="1.75737">
        <ele>130.66041668854</ele>
        <time>2015-09-21T15:31:32Z</time>
      </trkpt>
      <trkpt lat="44.4599" lon="1.75782">
        <ele>131.00765059292</ele>
        <time>2015-09-21T15:31:37Z</time>
      </trkpt>
      <trkpt lat="44.46005" lon="1.75862">
        <ele>131.0855753849</ele>
        <time>2015-09-21T15:31:47Z</time>
      </trkpt>
      <trkpt lat="44.4601" lon="1.75904">
        <ele>131.19946933912</ele>
        <time>2015-09-21T15:31:52Z</time>
      </trkpt>
      <trkpt lat="44.4601" lon="1.75986">
        <ele>132.02116336726</ele>
        <time>2015-09-21T15:32:02Z</time>
      </trkpt>
      <trkpt lat="44.46007" lon="1.76024">
        <ele>132.64356338464</ele>
        <time>2015-09-21T15:32:07Z</time>
      </trkpt>
      <trkpt lat="44.46006" lon="1.76104">
        <ele>133.22113950374</ele>
        <time>2015-09-21T15:32:17Z</time>
      </trkpt>
      <trkpt lat="44.46006" lon="1.76147">
        <ele>133.91156734111</ele>
        <time>2015-09-21T15:32:22Z</time>
      </trkpt>
      <trkpt lat="44.46004" lon="1.76229">
        <ele>134.54360651247</ele>
        <time>2015-09-21T15:32:32Z</time>
      </trkpt>
      <trkpt lat="44.45997" lon="1.76269">
        <ele>135.14614279517</ele>
        <time>2015-09-21T15:32:37Z</time>
      </trkpt>
      <trkpt lat="44.45977" lon="1.76391">
        <ele>135.6163709419</ele>
        <time>2015-09-21T15:32:52Z</time>
      </trkpt>
      <trkpt lat="44.45971" lon="1.76434">
        <ele>136.1476880012</ele>
        <time>2015-09-21T15:32:57Z</time>
      </trkpt>
      <trkpt lat="44.4596" lon="1.76513">
        <ele>136.55889891482</ele>
        <time>2015-09-21T15:33:07Z</time>
      </trkpt>
      <trkpt lat="44.45954" lon="1.76554">
        <ele>136.91310396754</ele>
        <time>2015-09-21T15:33:12Z</time>
      </trkpt>
      <trkpt lat="44.45951" lon="1.76637">
        <ele>137.4563479498</ele>
        <time>2015-09-21T15:33:22Z</time>
      </trkpt>
      <trkpt lat="44.45955" lon="1.76678">
        <ele>138.32968495711</ele>
        <time>2015-09-21T15:33:27Z</time>
      </trkpt>
      <trkpt lat="44.4597" lon="1.76756">
        <ele>139.1585779375</ele>
        <time>2015-09-21T15:33:37Z</time>
      </trkpt>
      <trkpt lat="44.45978" lon="1.76795">
        <ele>139.76915185068</ele>
        <time>2015-09-21T15:33:42Z</time>
      </trkpt>
      <trkpt lat="44.45992" lon="1.76876">
        <ele>140.41893482099</ele>
        <time>2015-09-21T15:33:52Z</time>
      </trkpt>
      <trkpt lat="44.45999" lon="1.76916">
        <ele>141.10153797531</ele>
        <time>2015-09-21T15:33:57Z</time>
      </trkpt>
      <trkpt lat="44.46012" lon="1.76996">
        <ele>141.73899714497</ele>
        <time>2015-09-21T15:34:07Z</time>
      </trkpt>
      <trkpt lat="44.46019" lon="1.77037">
        <ele>142.38900753773</ele>
        <time>2015-09-21T15:34:12Z</time>
      </trkpt>
      <trkpt lat="44.46033" lon="1.77121">
        <ele>143.07627619326</ele>
        <time>2015-09-21T15:34:22Z</time>
      </trkpt>
      <trkpt lat="44.46041" lon="1.77159">
        <ele>143.75164419094</ele>
        <time>2015-09-21T15:34:27Z</time>
      </trkpt>
      <trkpt lat="44.46073" lon="1.77226">
        <ele>144.49940761496</ele>
        <time>2015-09-21T15:34:37Z</time>
      </trkpt>
      <trkpt lat="44.4609" lon="1.77259">
        <ele>144.76348853854</ele>
        <time>2015-09-21T15:34:42Z</time>
      </trkpt>
      <trkpt lat="44.46138" lon="1.77359">
        <ele>144.63539118284</ele>
        <time>2015-09-21T15:34:57Z</time>
      </trkpt>
      <trkpt lat="44.46145" lon="1.77397">
        <ele>144.70549378888</ele>
        <time>2015-09-21T15:35:02Z</time>
      </trkpt>
      <trkpt lat="44.46171" lon="1.77462">
        <ele>145.03037469272</ele>
        <time>2015-09-21T15:35:12Z</time>
      </trkpt>
      <trkpt lat="44.46197" lon="1.77484">
        <ele>145.17186149767</ele>
        <time>2015-09-21T15:35:17Z</time>
      </trkpt>
      <trkpt lat="44.46252" lon="1.77523">
        <ele>145.0416219036</ele>
        <time>2015-09-21T15:35:27Z</time>
      </trkpt>
      <trkpt lat="44.4628" lon="1.77538">
        <ele>144.7892406759</ele>
        <time>2015-09-21T15:35:32Z</time>
      </trkpt>
      <trkpt lat="44.46337" lon="1.77555">
        <ele>144.55373922834</ele>
        <time>2015-09-21T15:35:42Z</time>
      </trkpt>
      <trkpt lat="44.46368" lon="1.77569">
        <ele>144.2621993643</ele>
        <time>2015-09-21T15:35:47Z</time>
      </trkpt>
      <trkpt lat="44.46423" lon="1.77593">
        <ele>144.2363860519</ele>
        <time>2015-09-21T15:35:57Z</time>
      </trkpt>
      <trkpt lat="44.46453" lon="1.77599">
        <ele>144.21171176107</ele>
        <time>2015-09-21T15:36:02Z</time>
      </trkpt>
      <trkpt lat="44.46513" lon="1.77586">
        <ele>144.13042439717</ele>
        <time>2015-09-21T15:36:12Z</time>
      </trkpt>
      <trkpt lat="44.4654" lon="1.77577">
        <ele>144.12657057356</ele>
        <time>2015-09-21T15:36:17Z</time>
      </trkpt>
      <trkpt lat="44.46622" lon="1.77546">
        <ele>144.02154783046</ele>
        <time>2015-09-21T15:36:32Z</time>
      </trkpt>
      <trkpt lat="44.4665" lon="1.77544">
        <ele>143.79431283123</ele>
        <time>2015-09-21T15:36:37Z</time>
      </trkpt>
      <trkpt lat="44.46707" lon="1.77555">
        <ele>143.55545050083</ele>
        <time>2015-09-21T15:36:47Z</time>
      </trkpt>
      <trkpt lat="44.46736" lon="1.77562">
        <ele>143.47954557317</ele>
        <time>2015-09-21T15:36:52Z</time>
      </trkpt>
      <trkpt lat="44.46795" lon="1.7757">
        <ele>143.51176491319</ele>
        <time>2015-09-21T15:37:02Z</time>
      </trkpt>
      <trkpt lat="44.46825" lon="1.7757">
        <ele>143.52897170476</ele>
        <time>2015-09-21T15:37:07Z</time>
      </trkpt>
      <trkpt lat="44.4688" lon="1.7756">
        <ele>143.5612522178</ele>
        <time>2015-09-21T15:37:17Z</time>
      </trkpt>
      <trkpt lat="44.46909" lon="1.77554">
        <ele>143.75175138449</ele>
        <time>2015-09-21T15:37:22Z</time>
      </trkpt>
      <trkpt lat="44.46965" lon="1.77555">
        <ele>144.17503136001</ele>
        <time>2015-09-21T15:37:32Z</time>
      </trkpt>
      <trkpt lat="44.46992" lon="1.77565">
        <ele>144.79866682952</ele>
        <time>2015-09-21T15:37:37Z</time>
      </trkpt>
      <trkpt lat="44.47041" lon="1.7759">
        <ele>145.4911961407</ele>
        <time>2015-09-21T15:37:47Z</time>
      </trkpt>
      <trkpt lat="44.47066" lon="1.77607">
        <ele>146.11623380652</ele>
        <time>2015-09-21T15:37:52Z</time>
      </trkpt>
      <trkpt lat="44.47112" lon="1.77651">
        <ele>146.99437339835</ele>
        <time>2015-09-21T15:38:02Z</time>
      </trkpt>
      <trkpt lat="44.47129" lon="1.77681">
        <ele>147.39878722096</ele>
        <time>2015-09-21T15:38:07Z</time>
      </trkpt>
      <trkpt lat="44.47159" lon="1.77778">
        <ele>148.48761244044</ele>
        <time>2015-09-21T15:38:22Z</time>
      </trkpt>
      <trkpt lat="44.47146" lon="1.77815">
        <ele>149.17035687615</ele>
        <time>2015-09-21T15:38:27Z</time>
      </trkpt>
      <trkpt lat="44.47113" lon="1.77879">
        <ele>149.47541078779</ele>
        <time>2015-09-21T15:38:37Z</time>
      </trkpt>
      <trkpt lat="44.47098" lon="1.77909">
        <ele>149.55987493839</ele>
        <time>2015-09-21T15:38:42Z</time>
      </trkpt>
      <trkpt lat="44.47113" lon="1.77958">
        <ele>149.54114182002</ele>
        <time>2015-09-21T15:38:52Z</time>
      </trkpt>
      <trkpt lat="44.47141" lon="1.77956">
        <ele>148.9806794134</ele>
        <time>2015-09-21T15:38:57Z</time>
      </trkpt>
      <trkpt lat="44.47209" lon="1.77929">
        <ele>147.99251580042</ele>
        <time>2015-09-21T15:39:07Z</time>
      </trkpt>
      <trkpt lat="44.4724" lon="1.77913">
        <ele>146.98615383536</ele>
        <time>2015-09-21T15:39:12Z</time>
      </trkpt>
      <trkpt lat="44.47297" lon="1.77918">
        <ele>145.95197378976</ele>
        <time>2015-09-21T15:39:22Z</time>
      </trkpt>
      <trkpt lat="44.47319" lon="1.77937">
        <ele>145.06848323029</ele>
        <time>2015-09-21T15:39:27Z</time>
      </trkpt>
      <trkpt lat="44.4736" lon="1.7798">
        <ele>144.57269831678</ele>
        <time>2015-09-21T15:39:37Z</time>
      </trkpt>
      <trkpt lat="44.4738" lon="1.78002">
        <ele>144.22196204098</ele>
        <time>2015-09-21T15:39:42Z</time>
      </trkpt>
      <trkpt lat="44.47414" lon="1.7804">
        <ele>144.42510163674</ele>
        <time>2015-09-21T15:39:52Z</time>
      </trkpt>
      <trkpt lat="44.4742" lon="1.78059">
        <ele>144.8675994926</ele>
        <time>2015-09-21T15:39:57Z</time>
      </trkpt>
      <trkpt lat="44.4742" lon="1.78062">
        <ele>144.8675994926</ele>
        <time>2015-09-21T15:40:12Z</time>
      </trkpt>
      <trkpt lat="44.47423" lon="1.78067">
        <ele>144.8675994926</ele>
        <time>2015-09-21T15:44:22Z</time>
      </trkpt>
      <trkpt lat="44.47423" lon="1.78068">
        <ele>144.8675994926</ele>
        <time>2015-09-21T15:44:27Z</time>
      </trkpt>
      <trkpt lat="44.47424" lon="1.78068">
        <ele>144.8675994926</ele>
        <time>2015-09-21T15:44:32Z</time>
      </trkpt>
      <trkpt lat="44.47427" lon="1.78067">
        <ele>145.05559014411</ele>
        <time>2015-09-21T15:44:37Z</time>
      </trkpt>
      <trkpt lat="44.47425" lon="1.78064">
        <ele>145.05559014411</ele>
        <time>2015-09-21T15:44:42Z</time>
      </trkpt>
      <trkpt lat="44.47424" lon="1.78062">
        <ele>145.05559014411</ele>
        <time>2015-09-21T15:44:47Z</time>
      </trkpt>
      <trkpt lat="44.47423" lon="1.78063">
        <ele>145.05559014411</ele>
        <time>2015-09-21T15:44:52Z</time>
      </trkpt>
      <trkpt lat="44.47422" lon="1.78064">
        <ele>145.05559014411</ele>
        <time>2015-09-21T15:44:57Z</time>
      </trkpt>
      <trkpt lat="44.47422" lon="1.78064">
        <ele>145.05559014411</ele>
        <time>2015-09-21T15:45:02Z</time>
      </trkpt>
      <trkpt lat="44.47423" lon="1.78065">
        <ele>145.05559014411</ele>
        <time>2015-09-21T15:45:32Z</time>
      </trkpt>
      <trkpt lat="44.47423" lon="1.78065">
        <ele>145.05559014411</ele>
        <time>2015-09-21T15:45:37Z</time>
      </trkpt>
      <trkpt lat="44.47423" lon="1.78064">
        <ele>145.05559014411</ele>
        <time>2015-09-21T15:46:02Z</time>
      </trkpt>
      <trkpt lat="44.4742" lon="1.78062">
        <ele>144.47453206445</ele>
        <time>2015-09-21T15:46:12Z</time>
      </trkpt>
      <trkpt lat="44.47416" lon="1.78062">
        <ele>144.47453206445</ele>
        <time>2015-09-21T15:46:17Z</time>
      </trkpt>
      <trkpt lat="44.47416" lon="1.78063">
        <ele>144.47453206445</ele>
        <time>2015-09-21T15:46:27Z</time>
      </trkpt>
      <trkpt lat="44.47416" lon="1.78063">
        <ele>144.47453206445</ele>
        <time>2015-09-21T15:46:32Z</time>
      </trkpt>
      <trkpt lat="44.47417" lon="1.78063">
        <ele>144.47453206445</ele>
        <time>2015-09-21T15:46:42Z</time>
      </trkpt>
      <trkpt lat="44.47419" lon="1.78064">
        <ele>144.47453206445</ele>
        <time>2015-09-21T15:46:47Z</time>
      </trkpt>
      <trkpt lat="44.47436" lon="1.78045">
        <ele>144.46561623236</ele>
        <time>2015-09-21T15:46:57Z</time>
      </trkpt>
      <trkpt lat="44.4745" lon="1.78023">
        <ele>145.1890496041</ele>
        <time>2015-09-21T15:47:02Z</time>
      </trkpt>
      <trkpt lat="44.47489" lon="1.77923">
        <ele>146.61826327111</ele>
        <time>2015-09-21T15:47:17Z</time>
      </trkpt>
      <trkpt lat="44.475" lon="1.77888">
        <ele>147.53052249298</ele>
        <time>2015-09-21T15:47:22Z</time>
      </trkpt>
      <trkpt lat="44.47516" lon="1.7781">
        <ele>147.96165580871</ele>
        <time>2015-09-21T15:47:32Z</time>
      </trkpt>
      <trkpt lat="44.47515" lon="1.77773">
        <ele>147.87415073029</ele>
        <time>2015-09-21T15:47:37Z</time>
      </trkpt>
      <trkpt lat="44.475" lon="1.77694">
        <ele>147.52292740546</ele>
        <time>2015-09-21T15:47:47Z</time>
      </trkpt>
      <trkpt lat="44.47491" lon="1.77655">
        <ele>147.40431935308</ele>
        <time>2015-09-21T15:47:52Z</time>
      </trkpt>
      <trkpt lat="44.47471" lon="1.77582">
        <ele>147.53080083253</ele>
        <time>2015-09-21T15:48:02Z</time>
      </trkpt>
      <trkpt lat="44.47453" lon="1.77555">
        <ele>147.61060517769</ele>
        <time>2015-09-21T15:48:07Z</time>
      </trkpt>
      <trkpt lat="44.4741" lon="1.77501">
        <ele>147.64733608335</ele>
        <time>2015-09-21T15:48:17Z</time>
      </trkpt>
      <trkpt lat="44.47393" lon="1.7747">
        <ele>147.6444480057</ele>
        <time>2015-09-21T15:48:22Z</time>
      </trkpt>
      <trkpt lat="44.47361" lon="1.77403">
        <ele>147.43231328589</ele>
        <time>2015-09-21T15:48:32Z</time>
      </trkpt>
      <trkpt lat="44.47349" lon="1.7737">
        <ele>147.02727779549</ele>
        <time>2015-09-21T15:48:37Z</time>
      </trkpt>
      <trkpt lat="44.47321" lon="1.77305">
        <ele>146.44501765929</ele>
        <time>2015-09-21T15:48:47Z</time>
      </trkpt>
      <trkpt lat="44.47306" lon="1.7727">
        <ele>146.01758591477</ele>
        <time>2015-09-21T15:48:52Z</time>
      </trkpt>
      <trkpt lat="44.47264" lon="1.77174">
        <ele>145.6198584523</ele>
        <time>2015-09-21T15:49:07Z</time>
      </trkpt>
      <trkpt lat="44.47252" lon="1.77146">
        <ele>145.12138764283</ele>
        <time>2015-09-21T15:49:12Z</time>
      </trkpt>
      <trkpt lat="44.47224" lon="1.77076">
        <ele>144.6033226712</ele>
        <time>2015-09-21T15:49:22Z</time>
      </trkpt>
      <trkpt lat="44.47209" lon="1.77043">
        <ele>144.1408795214</ele>
        <time>2015-09-21T15:49:27Z</time>
      </trkpt>
      <trkpt lat="44.47173" lon="1.7698">
        <ele>143.77474098147</ele>
        <time>2015-09-21T15:49:37Z</time>
      </trkpt>
      <trkpt lat="44.47151" lon="1.76952">
        <ele>143.49906609312</ele>
        <time>2015-09-21T15:49:42Z</time>
      </trkpt>
      <trkpt lat="44.47104" lon="1.76902">
        <ele>143.30815620644</ele>
        <time>2015-09-21T15:49:52Z</time>
      </trkpt>
      <trkpt lat="44.47083" lon="1.76878">
        <ele>143.21087126926</ele>
        <time>2015-09-21T15:49:57Z</time>
      </trkpt>
      <trkpt lat="44.47041" lon="1.76834">
        <ele>143.07101352892</ele>
        <time>2015-09-21T15:50:07Z</time>
      </trkpt>
      <trkpt lat="44.47019" lon="1.76811">
        <ele>142.90658856055</ele>
        <time>2015-09-21T15:50:12Z</time>
      </trkpt>
      <trkpt lat="44.46971" lon="1.76765">
        <ele>143.06577313688</ele>
        <time>2015-09-21T15:50:22Z</time>
      </trkpt>
      <trkpt lat="44.46947" lon="1.76747">
        <ele>143.2073191788</ele>
        <time>2015-09-21T15:50:27Z</time>
      </trkpt>
      <trkpt lat="44.46894" lon="1.76718">
        <ele>143.60592579298</ele>
        <time>2015-09-21T15:50:37Z</time>
      </trkpt>
      <trkpt lat="44.46869" lon="1.76701">
        <ele>143.82363547035</ele>
        <time>2015-09-21T15:50:42Z</time>
      </trkpt>
      <trkpt lat="44.46792" lon="1.76646">
        <ele>143.39750585269</ele>
        <time>2015-09-21T15:50:57Z</time>
      </trkpt>
      <trkpt lat="44.4677" lon="1.76622">
        <ele>143.16856867471</ele>
        <time>2015-09-21T15:51:02Z</time>
      </trkpt>
      <trkpt lat="44.46727" lon="1.7657">
        <ele>143.28141541449</ele>
        <time>2015-09-21T15:51:12Z</time>
      </trkpt>
      <trkpt lat="44.46707" lon="1.76545">
        <ele>143.52317514687</ele>
        <time>2015-09-21T15:51:17Z</time>
      </trkpt>
      <trkpt lat="44.46672" lon="1.76486">
        <ele>144.04210617904</ele>
        <time>2015-09-21T15:51:27Z</time>
      </trkpt>
      <trkpt lat="44.46665" lon="1.7645">
        <ele>144.41275456907</ele>
        <time>2015-09-21T15:51:32Z</time>
      </trkpt>
      <trkpt lat="44.4666" lon="1.76374">
        <ele>144.61601850824</ele>
        <time>2015-09-21T15:51:42Z</time>
      </trkpt>
      <trkpt lat="44.46664" lon="1.76336">
        <ele>144.59143238552</ele>
        <time>2015-09-21T15:51:47Z</time>
      </trkpt>
      <trkpt lat="44.46681" lon="1.76267">
        <ele>144.58624424824</ele>
        <time>2015-09-21T15:51:57Z</time>
      </trkpt>
      <trkpt lat="44.46692" lon="1.76231">
        <ele>144.81507488664</ele>
        <time>2015-09-21T15:52:02Z</time>
      </trkpt>
      <trkpt lat="44.46715" lon="1.76158">
        <ele>145.14466940456</ele>
        <time>2015-09-21T15:52:12Z</time>
      </trkpt>
      <trkpt lat="44.46726" lon="1.76121">
        <ele>145.27834938641</ele>
        <time>2015-09-21T15:52:17Z</time>
      </trkpt>
      <trkpt lat="44.46747" lon="1.76047">
        <ele>145.43176321005</ele>
        <time>2015-09-21T15:52:27Z</time>
      </trkpt>
      <trkpt lat="44.46756" lon="1.76012">
        <ele>145.27145771507</ele>
        <time>2015-09-21T15:52:32Z</time>
      </trkpt>
      <trkpt lat="44.46774" lon="1.75935">
        <ele>144.99375090103</ele>
        <time>2015-09-21T15:52:42Z</time>
      </trkpt>
      <trkpt lat="44.46781" lon="1.75896">
        <ele>144.83851924058</ele>
        <time>2015-09-21T15:52:47Z</time>
      </trkpt>
      <trkpt lat="44.46796" lon="1.75818">
        <ele>144.76827925036</ele>
        <time>2015-09-21T15:52:57Z</time>
      </trkpt>
      <trkpt lat="44.46801" lon="1.75791">
        <ele>144.71924386653</ele>
        <time>2015-09-21T15:53:02Z</time>
      </trkpt>
      <trkpt lat="44.46803" lon="1.75786">
        <ele>144.71924386653</ele>
        <time>2015-09-21T15:53:17Z</time>
      </trkpt>
      <trkpt lat="44.46804" lon="1.75783">
        <ele>144.71924386653</ele>
        <time>2015-09-21T15:53:22Z</time>
      </trkpt>
      <trkpt lat="44.46806" lon="1.75781">
        <ele>144.71924386653</ele>
        <time>2015-09-21T15:53:32Z</time>
      </trkpt>
      <trkpt lat="44.46804" lon="1.75779">
        <ele>144.66107711965</ele>
        <time>2015-09-21T15:53:37Z</time>
      </trkpt>
      <trkpt lat="44.46804" lon="1.7578">
        <ele>144.66107711965</ele>
        <time>2015-09-21T15:53:47Z</time>
      </trkpt>
      <trkpt lat="44.46804" lon="1.75782">
        <ele>144.66107711965</ele>
        <time>2015-09-21T15:53:52Z</time>
      </trkpt>
      <trkpt lat="44.46803" lon="1.75782">
        <ele>144.66107711965</ele>
        <time>2015-09-21T15:54:02Z</time>
      </trkpt>
      <trkpt lat="44.46803" lon="1.75784">
        <ele>144.66107711965</ele>
        <time>2015-09-21T15:54:07Z</time>
      </trkpt>
      <trkpt lat="44.46804" lon="1.75783">
        <ele>144.66107711965</ele>
        <time>2015-09-21T15:54:17Z</time>
      </trkpt>
      <trkpt lat="44.46804" lon="1.75782">
        <ele>144.66107711965</ele>
        <time>2015-09-21T15:54:22Z</time>
      </trkpt>
      <trkpt lat="44.46805" lon="1.75784">
        <ele>144.66107711965</ele>
        <time>2015-09-21T15:54:32Z</time>
      </trkpt>
      <trkpt lat="44.46804" lon="1.75784">
        <ele>144.66107711965</ele>
        <time>2015-09-21T15:54:37Z</time>
      </trkpt>
      <trkpt lat="44.46805" lon="1.75764">
        <ele>144.47923224524</ele>
        <time>2015-09-21T15:54:47Z</time>
      </trkpt>
      <trkpt lat="44.46809" lon="1.75747">
        <ele>144.34173635565</ele>
        <time>2015-09-21T15:54:52Z</time>
      </trkpt>
      <trkpt lat="44.46821" lon="1.75684">
        <ele>144.44738312489</ele>
        <time>2015-09-21T15:55:02Z</time>
      </trkpt>
      <trkpt lat="44.46829" lon="1.75645">
        <ele>144.43205883922</ele>
        <time>2015-09-21T15:55:07Z</time>
      </trkpt>
      <trkpt lat="44.46852" lon="1.75531">
        <ele>144.44871503318</ele>
        <time>2015-09-21T15:55:22Z</time>
      </trkpt>
      <trkpt lat="44.46859" lon="1.7549">
        <ele>144.43722274499</ele>
        <time>2015-09-21T15:55:27Z</time>
      </trkpt>
      <trkpt lat="44.46871" lon="1.75414">
        <ele>144.70222832956</ele>
        <time>2015-09-21T15:55:37Z</time>
      </trkpt>
      <trkpt lat="44.46875" lon="1.75372">
        <ele>145.0352478531</ele>
        <time>2015-09-21T15:55:42Z</time>
      </trkpt>
      <trkpt lat="44.46886" lon="1.75295">
        <ele>145.18528102073</ele>
        <time>2015-09-21T15:55:52Z</time>
      </trkpt>
      <trkpt lat="44.46891" lon="1.75254">
        <ele>145.46790727803</ele>
        <time>2015-09-21T15:55:57Z</time>
      </trkpt>
      <trkpt lat="44.46898" lon="1.75176">
        <ele>146.16074906708</ele>
        <time>2015-09-21T15:56:07Z</time>
      </trkpt>
      <trkpt lat="44.46904" lon="1.75137">
        <ele>146.68405040096</ele>
        <time>2015-09-21T15:56:12Z</time>
      </trkpt>
      <trkpt lat="44.46916" lon="1.75063">
        <ele>146.71729955636</ele>
        <time>2015-09-21T15:56:22Z</time>
      </trkpt>
      <trkpt lat="44.46919" lon="1.75021">
        <ele>146.82958671186</ele>
        <time>2015-09-21T15:56:27Z</time>
      </trkpt>
      <trkpt lat="44.46924" lon="1.74938">
        <ele>146.74096926172</ele>
        <time>2015-09-21T15:56:37Z</time>
      </trkpt>
      <trkpt lat="44.46927" lon="1.74895">
        <ele>146.59615979565</ele>
        <time>2015-09-21T15:56:42Z</time>
      </trkpt>
      <trkpt lat="44.46927" lon="1.74773">
        <ele>146.45735678748</ele>
        <time>2015-09-21T15:56:57Z</time>
      </trkpt>
      <trkpt lat="44.46922" lon="1.74733">
        <ele>146.3245407726</ele>
        <time>2015-09-21T15:57:02Z</time>
      </trkpt>
      <trkpt lat="44.469" lon="1.74662">
        <ele>145.9382866716</ele>
        <time>2015-09-21T15:57:12Z</time>
      </trkpt>
      <trkpt lat="44.46887" lon="1.74625">
        <ele>145.54892258325</ele>
        <time>2015-09-21T15:57:17Z</time>
      </trkpt>
      <trkpt lat="44.46857" lon="1.74555">
        <ele>145.37398952914</ele>
        <time>2015-09-21T15:57:27Z</time>
      </trkpt>
      <trkpt lat="44.46841" lon="1.74522">
        <ele>145.21093679958</ele>
        <time>2015-09-21T15:57:32Z</time>
      </trkpt>
      <trkpt lat="44.46799" lon="1.74464">
        <ele>144.90088065879</ele>
        <time>2015-09-21T15:57:42Z</time>
      </trkpt>
      <trkpt lat="44.46777" lon="1.74436">
        <ele>144.51318445128</ele>
        <time>2015-09-21T15:57:47Z</time>
      </trkpt>
      <trkpt lat="44.46735" lon="1.74384">
        <ele>144.11232807306</ele>
        <time>2015-09-21T15:57:57Z</time>
      </trkpt>
      <trkpt lat="44.46711" lon="1.74358">
        <ele>143.48427165087</ele>
        <time>2015-09-21T15:58:02Z</time>
      </trkpt>
      <trkpt lat="44.46662" lon="1.74319">
        <ele>143.48333631918</ele>
        <time>2015-09-21T15:58:12Z</time>
      </trkpt>
      <trkpt lat="44.46636" lon="1.743">
        <ele>143.86171332356</ele>
        <time>2015-09-21T15:58:17Z</time>
      </trkpt>
      <trkpt lat="44.46584" lon="1.74261">
        <ele>144.37431079497</ele>
        <time>2015-09-21T15:58:27Z</time>
      </trkpt>
      <trkpt lat="44.46559" lon="1.74242">
        <ele>144.89453307136</ele>
        <time>2015-09-21T15:58:32Z</time>
      </trkpt>
      <trkpt lat="44.46509" lon="1.74207">
        <ele>145.20417932779</ele>
        <time>2015-09-21T15:58:42Z</time>
      </trkpt>
      <trkpt lat="44.46483" lon="1.74188">
        <ele>145.31783321202</ele>
        <time>2015-09-21T15:58:47Z</time>
      </trkpt>
      <trkpt lat="44.46433" lon="1.74153">
        <ele>145.48013583976</ele>
        <time>2015-09-21T15:58:57Z</time>
      </trkpt>
      <trkpt lat="44.46406" lon="1.74134">
        <ele>145.64381255841</ele>
        <time>2015-09-21T15:59:02Z</time>
      </trkpt>
      <trkpt lat="44.46355" lon="1.74091">
        <ele>145.3471388452</ele>
        <time>2015-09-21T15:59:12Z</time>
      </trkpt>
      <trkpt lat="44.46331" lon="1.74066">
        <ele>144.85533611999</ele>
        <time>2015-09-21T15:59:17Z</time>
      </trkpt>
      <trkpt lat="44.46273" lon="1.74001">
        <ele>144.08323514666</ele>
        <time>2015-09-21T15:59:32Z</time>
      </trkpt>
      <trkpt lat="44.46262" lon="1.73969">
        <ele>143.3418065429</ele>
        <time>2015-09-21T15:59:37Z</time>
      </trkpt>
      <trkpt lat="44.46254" lon="1.73889">
        <ele>143.0920173256</ele>
        <time>2015-09-21T15:59:47Z</time>
      </trkpt>
      <trkpt lat="44.4626" lon="1.7385">
        <ele>143.01020403824</ele>
        <time>2015-09-21T15:59:52Z</time>
      </trkpt>
      <trkpt lat="44.46278" lon="1.73775">
        <ele>142.83922809062</ele>
        <time>2015-09-21T16:00:02Z</time>
      </trkpt>
      <trkpt lat="44.46287" lon="1.73738">
        <ele>142.74458722097</ele>
        <time>2015-09-21T16:00:07Z</time>
      </trkpt>
      <trkpt lat="44.46317" lon="1.73671">
        <ele>142.76410471814</ele>
        <time>2015-09-21T16:00:17Z</time>
      </trkpt>
      <trkpt lat="44.46337" lon="1.73643">
        <ele>142.84602523538</ele>
        <time>2015-09-21T16:00:22Z</time>
      </trkpt>
      <trkpt lat="44.4638" lon="1.73587">
        <ele>142.91338593932</ele>
        <time>2015-09-21T16:00:32Z</time>
      </trkpt>
      <trkpt lat="44.46399" lon="1.73558">
        <ele>143.08225255935</ele>
        <time>2015-09-21T16:00:37Z</time>
      </trkpt>
      <trkpt lat="44.4644" lon="1.735">
        <ele>143.34458269595</ele>
        <time>2015-09-21T16:00:47Z</time>
      </trkpt>
      <trkpt lat="44.46461" lon="1.73472">
        <ele>143.64942332423</ele>
        <time>2015-09-21T16:00:52Z</time>
      </trkpt>
      <trkpt lat="44.465" lon="1.73415">
        <ele>143.99267539986</ele>
        <time>2015-09-21T16:01:02Z</time>
      </trkpt>
      <trkpt lat="44.4652" lon="1.73387">
        <ele>144.25514410772</ele>
        <time>2015-09-21T16:01:07Z</time>
      </trkpt>
      <trkpt lat="44.46563" lon="1.73334">
        <ele>144.3410307096</ele>
        <time>2015-09-21T16:01:17Z</time>
      </trkpt>
      <trkpt lat="44.46584" lon="1.73306">
        <ele>144.37824025723</ele>
        <time>2015-09-21T16:01:22Z</time>
      </trkpt>
      <trkpt lat="44.46624" lon="1.73248">
        <ele>144.31249059871</ele>
        <time>2015-09-21T16:01:32Z</time>
      </trkpt>
      <trkpt lat="44.46645" lon="1.73219">
        <ele>144.23789288632</ele>
        <time>2015-09-21T16:01:37Z</time>
      </trkpt>
      <trkpt lat="44.46677" lon="1.73157">
        <ele>143.83816338238</ele>
        <time>2015-09-21T16:01:47Z</time>
      </trkpt>
      <trkpt lat="44.46691" lon="1.73124">
        <ele>143.46966812419</ele>
        <time>2015-09-21T16:01:52Z</time>
      </trkpt>
      <trkpt lat="44.46716" lon="1.73055">
        <ele>143.34721983181</ele>
        <time>2015-09-21T16:02:02Z</time>
      </trkpt>
      <trkpt lat="44.46728" lon="1.73019">
        <ele>143.25123843596</ele>
        <time>2015-09-21T16:02:07Z</time>
      </trkpt>
      <trkpt lat="44.4676" lon="1.72918">
        <ele>142.93496442339</ele>
        <time>2015-09-21T16:02:22Z</time>
      </trkpt>
      <trkpt lat="44.46772" lon="1.72884">
        <ele>142.60271300843</ele>
        <time>2015-09-21T16:02:27Z</time>
      </trkpt>
      <trkpt lat="44.46794" lon="1.72813">
        <ele>142.53029747646</ele>
        <time>2015-09-21T16:02:37Z</time>
      </trkpt>
      <trkpt lat="44.46805" lon="1.72774">
        <ele>142.48255761204</ele>
        <time>2015-09-21T16:02:42Z</time>
      </trkpt>
      <trkpt lat="44.46827" lon="1.727">
        <ele>142.42887704277</ele>
        <time>2015-09-21T16:02:52Z</time>
      </trkpt>
      <trkpt lat="44.46838" lon="1.72664">
        <ele>142.22560970832</ele>
        <time>2015-09-21T16:02:57Z</time>
      </trkpt>
      <trkpt lat="44.46858" lon="1.72594">
        <ele>141.92741914207</ele>
        <time>2015-09-21T16:03:07Z</time>
      </trkpt>
      <trkpt lat="44.46869" lon="1.72558">
        <ele>141.64285678391</ele>
        <time>2015-09-21T16:03:12Z</time>
      </trkpt>
      <trkpt lat="44.46891" lon="1.72483">
        <ele>141.63097617771</ele>
        <time>2015-09-21T16:03:22Z</time>
      </trkpt>
      <trkpt lat="44.46903" lon="1.72447">
        <ele>141.72751663164</ele>
        <time>2015-09-21T16:03:27Z</time>
      </trkpt>
      <trkpt lat="44.46923" lon="1.72375">
        <ele>142.03937255046</ele>
        <time>2015-09-21T16:03:37Z</time>
      </trkpt>
      <trkpt lat="44.46931" lon="1.72334">
        <ele>142.17499808958</ele>
        <time>2015-09-21T16:03:42Z</time>
      </trkpt>
      <trkpt lat="44.46944" lon="1.72254">
        <ele>142.56471268987</ele>
        <time>2015-09-21T16:03:52Z</time>
      </trkpt>
      <trkpt lat="44.46947" lon="1.72218">
        <ele>142.9580114933</ele>
        <time>2015-09-21T16:03:57Z</time>
      </trkpt>
      <trkpt lat="44.46941" lon="1.72136">
        <ele>143.35336239052</ele>
        <time>2015-09-21T16:04:07Z</time>
      </trkpt>
      <trkpt lat="44.46933" lon="1.721">
        <ele>143.48994577133</ele>
        <time>2015-09-21T16:04:12Z</time>
      </trkpt>
      <trkpt lat="44.46887" lon="1.72001">
        <ele>143.32859111065</ele>
        <time>2015-09-21T16:04:27Z</time>
      </trkpt>
      <trkpt lat="44.46877" lon="1.71961">
        <ele>142.96354966954</ele>
        <time>2015-09-21T16:04:32Z</time>
      </trkpt>
      <trkpt lat="44.46869" lon="1.71881">
        <ele>142.19450506068</ele>
        <time>2015-09-21T16:04:42Z</time>
      </trkpt>
      <trkpt lat="44.46862" lon="1.71843">
        <ele>141.29814843439</ele>
        <time>2015-09-21T16:04:47Z</time>
      </trkpt>
      <trkpt lat="44.4684" lon="1.71767">
        <ele>140.79060148649</ele>
        <time>2015-09-21T16:04:57Z</time>
      </trkpt>
      <trkpt lat="44.46824" lon="1.71734">
        <ele>140.80310921859</ele>
        <time>2015-09-21T16:05:02Z</time>
      </trkpt>
      <trkpt lat="44.46785" lon="1.71674">
        <ele>140.66319667074</ele>
        <time>2015-09-21T16:05:12Z</time>
      </trkpt>
      <trkpt lat="44.46763" lon="1.71648">
        <ele>140.39670611078</ele>
        <time>2015-09-21T16:05:17Z</time>
      </trkpt>
      <trkpt lat="44.46718" lon="1.71594">
        <ele>139.7829362143</ele>
        <time>2015-09-21T16:05:27Z</time>
      </trkpt>
      <trkpt lat="44.46698" lon="1.71569">
        <ele>139.25244908148</ele>
        <time>2015-09-21T16:05:32Z</time>
      </trkpt>
      <trkpt lat="44.46659" lon="1.71513">
        <ele>139.40568653133</ele>
        <time>2015-09-21T16:05:42Z</time>
      </trkpt>
      <trkpt lat="44.46644" lon="1.7148">
        <ele>139.78827243246</ele>
        <time>2015-09-21T16:05:47Z</time>
      </trkpt>
      <trkpt lat="44.46613" lon="1.71407">
        <ele>139.63268537349</ele>
        <time>2015-09-21T16:05:57Z</time>
      </trkpt>
      <trkpt lat="44.46599" lon="1.71376">
        <ele>139.39658394254</ele>
        <time>2015-09-21T16:06:02Z</time>
      </trkpt>
      <trkpt lat="44.46571" lon="1.71308">
        <ele>139.15835614129</ele>
        <time>2015-09-21T16:06:12Z</time>
      </trkpt>
      <trkpt lat="44.46556" lon="1.71274">
        <ele>138.74563850793</ele>
        <time>2015-09-21T16:06:17Z</time>
      </trkpt>
      <trkpt lat="44.46512" lon="1.71171">
        <ele>138.15772976202</ele>
        <time>2015-09-21T16:06:32Z</time>
      </trkpt>
      <trkpt lat="44.46498" lon="1.71138">
        <ele>137.59621417661</ele>
        <time>2015-09-21T16:06:37Z</time>
      </trkpt>
      <trkpt lat="44.46471" lon="1.71071">
        <ele>137.43512363103</ele>
        <time>2015-09-21T16:06:47Z</time>
      </trkpt>
      <trkpt lat="44.46456" lon="1.71038">
        <ele>137.371374463</ele>
        <time>2015-09-21T16:06:52Z</time>
      </trkpt>
      <trkpt lat="44.46432" lon="1.70981">
        <ele>137.28238040281</ele>
        <time>2015-09-21T16:07:02Z</time>
      </trkpt>
      <trkpt lat="44.46418" lon="1.70949">
        <ele>137.31401598663</ele>
        <time>2015-09-21T16:07:07Z</time>
      </trkpt>
      <trkpt lat="44.46388" lon="1.70879">
        <ele>137.31286563359</ele>
        <time>2015-09-21T16:07:17Z</time>
      </trkpt>
      <trkpt lat="44.46374" lon="1.70848">
        <ele>137.26656390314</ele>
        <time>2015-09-21T16:07:22Z</time>
      </trkpt>
      <trkpt lat="44.46342" lon="1.7078">
        <ele>137.09171466381</ele>
        <time>2015-09-21T16:07:32Z</time>
      </trkpt>
      <trkpt lat="44.46328" lon="1.70748">
        <ele>136.79786631038</ele>
        <time>2015-09-21T16:07:37Z</time>
      </trkpt>
      <trkpt lat="44.463" lon="1.70681">
        <ele>136.74005833216</ele>
        <time>2015-09-21T16:07:47Z</time>
      </trkpt>
      <trkpt lat="44.46286" lon="1.70646">
        <ele>136.85747971985</ele>
        <time>2015-09-21T16:07:52Z</time>
      </trkpt>
      <trkpt lat="44.46264" lon="1.70582">
        <ele>136.96358895153</ele>
        <time>2015-09-21T16:08:02Z</time>
      </trkpt>
      <trkpt lat="44.46252" lon="1.70547">
        <ele>137.08733084394</ele>
        <time>2015-09-21T16:08:07Z</time>
      </trkpt>
      <trkpt lat="44.46221" lon="1.70442">
        <ele>137.09695006205</ele>
        <time>2015-09-21T16:08:22Z</time>
      </trkpt>
      <trkpt lat="44.46215" lon="1.70406">
        <ele>137.00038988607</ele>
        <time>2015-09-21T16:08:27Z</time>
      </trkpt>
      <trkpt lat="44.46209" lon="1.70328">
        <ele>136.80530891148</ele>
        <time>2015-09-21T16:08:37Z</time>
      </trkpt>
      <trkpt lat="44.46208" lon="1.70289">
        <ele>136.46143631365</ele>
        <time>2015-09-21T16:08:42Z</time>
      </trkpt>
      <trkpt lat="44.46215" lon="1.70213">
        <ele>136.21083480253</ele>
        <time>2015-09-21T16:08:52Z</time>
      </trkpt>
      <trkpt lat="44.46222" lon="1.70171">
        <ele>135.94606804525</ele>
        <time>2015-09-21T16:08:57Z</time>
      </trkpt>
      <trkpt lat="44.46238" lon="1.70096">
        <ele>136.21613186606</ele>
        <time>2015-09-21T16:09:07Z</time>
      </trkpt>
      <trkpt lat="44.46245" lon="1.70055">
        <ele>136.51941523767</ele>
        <time>2015-09-21T16:09:12Z</time>
      </trkpt>
      <trkpt lat="44.46261" lon="1.69978">
        <ele>136.89545360067</ele>
        <time>2015-09-21T16:09:22Z</time>
      </trkpt>
      <trkpt lat="44.46268" lon="1.69938">
        <ele>137.13569035115</ele>
        <time>2015-09-21T16:09:27Z</time>
      </trkpt>
      <trkpt lat="44.46282" lon="1.69863">
        <ele>137.07610059118</ele>
        <time>2015-09-21T16:09:37Z</time>
      </trkpt>
      <trkpt lat="44.4629" lon="1.69826">
        <ele>136.95465985092</ele>
        <time>2015-09-21T16:09:42Z</time>
      </trkpt>
      <trkpt lat="44.46306" lon="1.69751">
        <ele>136.93440223229</ele>
        <time>2015-09-21T16:09:52Z</time>
      </trkpt>
      <trkpt lat="44.46314" lon="1.69712">
        <ele>137.07964643601</ele>
        <time>2015-09-21T16:09:57Z</time>
      </trkpt>
      <trkpt lat="44.46336" lon="1.69598">
        <ele>137.24777830561</ele>
        <time>2015-09-21T16:10:12Z</time>
      </trkpt>
      <trkpt lat="44.46343" lon="1.69563">
        <ele>137.43630854893</ele>
        <time>2015-09-21T16:10:17Z</time>
      </trkpt>
      <trkpt lat="44.46358" lon="1.69485">
        <ele>138.14727741276</ele>
        <time>2015-09-21T16:10:27Z</time>
      </trkpt>
      <trkpt lat="44.46366" lon="1.69451">
        <ele>138.73474154221</ele>
        <time>2015-09-21T16:10:32Z</time>
      </trkpt>
      <trkpt lat="44.4639" lon="1.69382">
        <ele>138.93203068703</ele>
        <time>2015-09-21T16:10:42Z</time>
      </trkpt>
      <trkpt lat="44.46406" lon="1.6935">
        <ele>139.05521514587</ele>
        <time>2015-09-21T16:10:47Z</time>
      </trkpt>
      <trkpt lat="44.46442" lon="1.69294">
        <ele>139.12356841325</ele>
        <time>2015-09-21T16:10:57Z</time>
      </trkpt>
      <trkpt lat="44.46464" lon="1.6927">
        <ele>139.21277182225</ele>
        <time>2015-09-21T16:11:02Z</time>
      </trkpt>
      <trkpt lat="44.46511" lon="1.69228">
        <ele>139.59466985557</ele>
        <time>2015-09-21T16:11:12Z</time>
      </trkpt>
      <trkpt lat="44.46535" lon="1.69211">
        <ele>139.84301944129</ele>
        <time>2015-09-21T16:11:17Z</time>
      </trkpt>
      <trkpt lat="44.46587" lon="1.69177">
        <ele>139.89474496999</ele>
        <time>2015-09-21T16:11:27Z</time>
      </trkpt>
      <trkpt lat="44.46611" lon="1.69155">
        <ele>139.64874762904</ele>
        <time>2015-09-21T16:11:32Z</time>
      </trkpt>
      <trkpt lat="44.46657" lon="1.69114">
        <ele>139.24279189525</ele>
        <time>2015-09-21T16:11:42Z</time>
      </trkpt>
      <trkpt lat="44.46682" lon="1.69119">
        <ele>138.86263609785</ele>
        <time>2015-09-21T16:11:47Z</time>
      </trkpt>
      <trkpt lat="44.46733" lon="1.69085">
        <ele>138.73798234155</ele>
        <time>2015-09-21T16:11:57Z</time>
      </trkpt>
      <trkpt lat="44.46759" lon="1.69066">
        <ele>138.77832291827</ele>
        <time>2015-09-21T16:12:02Z</time>
      </trkpt>
      <trkpt lat="44.46819" lon="1.69031">
        <ele>138.91375894092</ele>
        <time>2015-09-21T16:12:17Z</time>
      </trkpt>
      <trkpt lat="44.46835" lon="1.6902">
        <ele>139.02162577694</ele>
        <time>2015-09-21T16:12:22Z</time>
      </trkpt>
      <trkpt lat="44.4687" lon="1.68984">
        <ele>138.64248985162</ele>
        <time>2015-09-21T16:12:32Z</time>
      </trkpt>
      <trkpt lat="44.46892" lon="1.68959">
        <ele>138.50493153981</ele>
        <time>2015-09-21T16:12:37Z</time>
      </trkpt>
      <trkpt lat="44.46928" lon="1.68901">
        <ele>138.34661703224</ele>
        <time>2015-09-21T16:12:47Z</time>
      </trkpt>
      <trkpt lat="44.46946" lon="1.68871">
        <ele>138.05424665766</ele>
        <time>2015-09-21T16:12:52Z</time>
      </trkpt>
      <trkpt lat="44.46982" lon="1.68814">
        <ele>137.60968869061</ele>
        <time>2015-09-21T16:13:02Z</time>
      </trkpt>
      <trkpt lat="44.47" lon="1.68785">
        <ele>137.09744752028</ele>
        <time>2015-09-21T16:13:07Z</time>
      </trkpt>
      <trkpt lat="44.47037" lon="1.68726">
        <ele>136.62482817479</ele>
        <time>2015-09-21T16:13:17Z</time>
      </trkpt>
      <trkpt lat="44.47053" lon="1.68699">
        <ele>136.30554597064</ele>
        <time>2015-09-21T16:13:22Z</time>
      </trkpt>
      <trkpt lat="44.47056" lon="1.68642">
        <ele>136.37422314741</ele>
        <time>2015-09-21T16:13:32Z</time>
      </trkpt>
      <trkpt lat="44.47047" lon="1.68618">
        <ele>136.38423605084</ele>
        <time>2015-09-21T16:13:37Z</time>
      </trkpt>
      <trkpt lat="44.47038" lon="1.68583">
        <ele>136.33984537999</ele>
        <time>2015-09-21T16:13:47Z</time>
      </trkpt>
      <trkpt lat="44.47028" lon="1.68548">
        <ele>136.18749601003</ele>
        <time>2015-09-21T16:13:52Z</time>
      </trkpt>
      <trkpt lat="44.47007" lon="1.68475">
        <ele>136.48312697767</ele>
        <time>2015-09-21T16:14:02Z</time>
      </trkpt>
      <trkpt lat="44.46997" lon="1.68449">
        <ele>136.7894396344</ele>
        <time>2015-09-21T16:14:07Z</time>
      </trkpt>
      <trkpt lat="44.46994" lon="1.68428">
        <ele>137.04708944076</ele>
        <time>2015-09-21T16:14:17Z</time>
      </trkpt>
      <trkpt lat="44.46995" lon="1.6843">
        <ele>137.04708944076</ele>
        <time>2015-09-21T16:14:22Z</time>
      </trkpt>
      <trkpt lat="44.46987" lon="1.68408">
        <ele>137.201223645</ele>
        <time>2015-09-21T16:14:37Z</time>
      </trkpt>
      <trkpt lat="44.46977" lon="1.68379">
        <ele>137.38865228663</ele>
        <time>2015-09-21T16:14:42Z</time>
      </trkpt>
      <trkpt lat="44.46958" lon="1.68313">
        <ele>138.06749911955</ele>
        <time>2015-09-21T16:14:52Z</time>
      </trkpt>
      <trkpt lat="44.4695" lon="1.68281">
        <ele>138.72413782792</ele>
        <time>2015-09-21T16:14:57Z</time>
      </trkpt>
      <trkpt lat="44.46934" lon="1.68222">
        <ele>139.12773203505</ele>
        <time>2015-09-21T16:15:07Z</time>
      </trkpt>
      <trkpt lat="44.46924" lon="1.68189">
        <ele>139.43981291464</ele>
        <time>2015-09-21T16:15:12Z</time>
      </trkpt>
      <trkpt lat="44.46912" lon="1.68133">
        <ele>139.33474960276</ele>
        <time>2015-09-21T16:15:22Z</time>
      </trkpt>
      <trkpt lat="44.46909" lon="1.68123">
        <ele>139.33474960276</ele>
        <time>2015-09-21T16:15:27Z</time>
      </trkpt>
      <trkpt lat="44.46909" lon="1.68123">
        <ele>139.33474960276</ele>
        <time>2015-09-21T16:15:37Z</time>
      </trkpt>
      <trkpt lat="44.4691" lon="1.68125">
        <ele>139.41991786354</ele>
        <time>2015-09-21T16:15:42Z</time>
      </trkpt>
      <trkpt lat="44.46911" lon="1.68125">
        <ele>139.41991786354</ele>
        <time>2015-09-21T16:15:47Z</time>
      </trkpt>
      <trkpt lat="44.46911" lon="1.68128">
        <ele>139.41991786354</ele>
        <time>2015-09-21T16:15:52Z</time>
      </trkpt>
      <trkpt lat="44.46911" lon="1.68132">
        <ele>139.41991786354</ele>
        <time>2015-09-21T16:15:57Z</time>
      </trkpt>
      <trkpt lat="44.46911" lon="1.68135">
        <ele>139.41991786354</ele>
        <time>2015-09-21T16:16:02Z</time>
      </trkpt>
      <trkpt lat="44.46909" lon="1.68135">
        <ele>139.5225908964</ele>
        <time>2015-09-21T16:16:07Z</time>
      </trkpt>
      <trkpt lat="44.46908" lon="1.68135">
        <ele>139.5225908964</ele>
        <time>2015-09-21T16:16:12Z</time>
      </trkpt>
      <trkpt lat="44.46909" lon="1.68135">
        <ele>139.5225908964</ele>
        <time>2015-09-21T16:16:17Z</time>
      </trkpt>
      <trkpt lat="44.46909" lon="1.68136">
        <ele>139.5225908964</ele>
        <time>2015-09-21T16:16:22Z</time>
      </trkpt>
      <trkpt lat="44.46907" lon="1.68136">
        <ele>139.5225908964</ele>
        <time>2015-09-21T16:16:27Z</time>
      </trkpt>
      <trkpt lat="44.46903" lon="1.68135">
        <ele>139.5225908964</ele>
        <time>2015-09-21T16:16:32Z</time>
      </trkpt>
      <trkpt lat="44.46904" lon="1.68135">
        <ele>139.48269596008</ele>
        <time>2015-09-21T16:16:37Z</time>
      </trkpt>
      <trkpt lat="44.46905" lon="1.68135">
        <ele>139.48269596008</ele>
        <time>2015-09-21T16:16:42Z</time>
      </trkpt>
      <trkpt lat="44.46906" lon="1.68134">
        <ele>139.48269596008</ele>
        <time>2015-09-21T16:16:47Z</time>
      </trkpt>
      <trkpt lat="44.46907" lon="1.68133">
        <ele>139.48269596008</ele>
        <time>2015-09-21T16:16:52Z</time>
      </trkpt>
      <trkpt lat="44.46909" lon="1.68132">
        <ele>139.48269596008</ele>
        <time>2015-09-21T16:16:57Z</time>
      </trkpt>
      <trkpt lat="44.46909" lon="1.68125">
        <ele>139.18115456165</ele>
        <time>2015-09-21T16:17:07Z</time>
      </trkpt>
      <trkpt lat="44.46903" lon="1.68112">
        <ele>138.92630351456</ele>
        <time>2015-09-21T16:17:12Z</time>
      </trkpt>
      <trkpt lat="44.46885" lon="1.6806">
        <ele>138.54255157841</ele>
        <time>2015-09-21T16:17:22Z</time>
      </trkpt>
      <trkpt lat="44.46881" lon="1.68037">
        <ele>138.28549623754</ele>
        <time>2015-09-21T16:17:27Z</time>
      </trkpt>
      <trkpt lat="44.46896" lon="1.68054">
        <ele>138.27631777932</ele>
        <time>2015-09-21T16:17:37Z</time>
      </trkpt>
      <trkpt lat="44.46892" lon="1.68072">
        <ele>138.30955588421</ele>
        <time>2015-09-21T16:17:42Z</time>
      </trkpt>
      <trkpt lat="44.46904" lon="1.68111">
        <ele>138.39647987986</ele>
        <time>2015-09-21T16:17:52Z</time>
      </trkpt>
      <trkpt lat="44.469" lon="1.68116">
        <ele>138.39647987986</ele>
        <time>2015-09-21T16:17:57Z</time>
      </trkpt>
      <trkpt lat="44.46879" lon="1.6808">
        <ele>138.5185582536</ele>
        <time>2015-09-21T16:18:07Z</time>
      </trkpt>
      <trkpt lat="44.46869" lon="1.68059">
        <ele>138.67293361495</ele>
        <time>2015-09-21T16:18:12Z</time>
      </trkpt>
      <trkpt lat="44.46886" lon="1.68011">
        <ele>139.14509178575</ele>
        <time>2015-09-21T16:18:22Z</time>
      </trkpt>
      <trkpt lat="44.46907" lon="1.67992">
        <ele>138.93047941687</ele>
        <time>2015-09-21T16:18:27Z</time>
      </trkpt>
      <trkpt lat="44.4695" lon="1.6796">
        <ele>138.0658099277</ele>
        <time>2015-09-21T16:18:37Z</time>
      </trkpt>
      <trkpt lat="44.46974" lon="1.6794">
        <ele>137.16336716876</ele>
        <time>2015-09-21T16:18:42Z</time>
      </trkpt>
      <trkpt lat="44.47022" lon="1.67909">
        <ele>136.31499080325</ele>
        <time>2015-09-21T16:18:52Z</time>
      </trkpt>
      <trkpt lat="44.4703" lon="1.6789">
        <ele>135.54796643529</ele>
        <time>2015-09-21T16:18:57Z</time>
      </trkpt>
      <trkpt lat="44.4701" lon="1.67847">
        <ele>134.93056286916</ele>
        <time>2015-09-21T16:19:07Z</time>
      </trkpt>
      <trkpt lat="44.46994" lon="1.67823">
        <ele>134.66970325761</ele>
        <time>2015-09-21T16:19:12Z</time>
      </trkpt>
      <trkpt lat="44.46952" lon="1.67779">
        <ele>134.23552873747</ele>
        <time>2015-09-21T16:19:22Z</time>
      </trkpt>
      <trkpt lat="44.46941" lon="1.67772">
        <ele>133.82929572391</ele>
        <time>2015-09-21T16:19:27Z</time>
      </trkpt>
      <trkpt lat="44.46902" lon="1.67753">
        <ele>133.39238011121</ele>
        <time>2015-09-21T16:19:37Z</time>
      </trkpt>
      <trkpt lat="44.4688" lon="1.67742">
        <ele>133.11550965528</ele>
        <time>2015-09-21T16:19:42Z</time>
      </trkpt>
      <trkpt lat="44.46822" lon="1.67698">
        <ele>133.10286698206</ele>
        <time>2015-09-21T16:19:57Z</time>
      </trkpt>
      <trkpt lat="44.46808" lon="1.67685">
        <ele>133.07552202847</ele>
        <time>2015-09-21T16:20:02Z</time>
      </trkpt>
      <trkpt lat="44.46789" lon="1.6767">
        <ele>133.00562602487</ele>
        <time>2015-09-21T16:20:12Z</time>
      </trkpt>
      <trkpt lat="44.46778" lon="1.67657">
        <ele>132.89629163908</ele>
        <time>2015-09-21T16:20:17Z</time>
      </trkpt>
      <trkpt lat="44.46754" lon="1.67638">
        <ele>132.76490073757</ele>
        <time>2015-09-21T16:20:27Z</time>
      </trkpt>
      <trkpt lat="44.46743" lon="1.67626">
        <ele>132.67083143708</ele>
        <time>2015-09-21T16:20:32Z</time>
      </trkpt>
      <trkpt lat="44.46721" lon="1.676">
        <ele>132.596919199</ele>
        <time>2015-09-21T16:20:42Z</time>
      </trkpt>
      <trkpt lat="44.46711" lon="1.67586">
        <ele>132.54159605696</ele>
        <time>2015-09-21T16:20:47Z</time>
      </trkpt>
      <trkpt lat="44.46689" lon="1.67547">
        <ele>132.3304061567</ele>
        <time>2015-09-21T16:20:57Z</time>
      </trkpt>
      <trkpt lat="44.46675" lon="1.67522">
        <ele>132.07594118099</ele>
        <time>2015-09-21T16:21:02Z</time>
      </trkpt>
      <trkpt lat="44.46654" lon="1.67467">
        <ele>131.95468356407</ele>
        <time>2015-09-21T16:21:12Z</time>
      </trkpt>
      <trkpt lat="44.46646" lon="1.6742">
        <ele>132.14417491784</ele>
        <time>2015-09-21T16:21:17Z</time>
      </trkpt>
      <trkpt lat="44.46622" lon="1.67352">
        <ele>132.11629676181</ele>
        <time>2015-09-21T16:21:27Z</time>
      </trkpt>
      <trkpt lat="44.46606" lon="1.67323">
        <ele>132.01641383539</ele>
        <time>2015-09-21T16:21:32Z</time>
      </trkpt>
      <trkpt lat="44.46555" lon="1.67243">
        <ele>131.95058315739</ele>
        <time>2015-09-21T16:21:47Z</time>
      </trkpt>
      <trkpt lat="44.46547" lon="1.67208">
        <ele>131.80080103143</ele>
        <time>2015-09-21T16:21:52Z</time>
      </trkpt>
      <trkpt lat="44.46534" lon="1.67126">
        <ele>131.57324994372</ele>
        <time>2015-09-21T16:22:02Z</time>
      </trkpt>
      <trkpt lat="44.46536" lon="1.67086">
        <ele>131.51885938923</ele>
        <time>2015-09-21T16:22:07Z</time>
      </trkpt>
      <trkpt lat="44.46548" lon="1.6701">
        <ele>131.81199079854</ele>
        <time>2015-09-21T16:22:17Z</time>
      </trkpt>
      <trkpt lat="44.4655" lon="1.66981">
        <ele>132.20970817915</ele>
        <time>2015-09-21T16:22:22Z</time>
      </trkpt>
      <trkpt lat="44.4657" lon="1.66914">
        <ele>133.03425137408</ele>
        <time>2015-09-21T16:22:32Z</time>
      </trkpt>
      <trkpt lat="44.46579" lon="1.66877">
        <ele>133.80479683926</ele>
        <time>2015-09-21T16:22:37Z</time>
      </trkpt>
      <trkpt lat="44.46601" lon="1.66818">
        <ele>134.24893825229</ele>
        <time>2015-09-21T16:22:47Z</time>
      </trkpt>
      <trkpt lat="44.46615" lon="1.66785">
        <ele>134.97988006822</ele>
        <time>2015-09-21T16:22:52Z</time>
      </trkpt>
      <trkpt lat="44.46648" lon="1.66736">
        <ele>135.26799824526</ele>
        <time>2015-09-21T16:23:02Z</time>
      </trkpt>
      <trkpt lat="44.46672" lon="1.66708">
        <ele>135.38966807738</ele>
        <time>2015-09-21T16:23:07Z</time>
      </trkpt>
      <trkpt lat="44.46714" lon="1.66664">
        <ele>135.45734588794</ele>
        <time>2015-09-21T16:23:17Z</time>
      </trkpt>
      <trkpt lat="44.46731" lon="1.66639">
        <ele>135.60422933491</ele>
        <time>2015-09-21T16:23:22Z</time>
      </trkpt>
      <trkpt lat="44.46796" lon="1.66569">
        <ele>135.60767071083</ele>
        <time>2015-09-21T16:23:37Z</time>
      </trkpt>
      <trkpt lat="44.46815" lon="1.66545">
        <ele>135.95354193776</ele>
        <time>2015-09-21T16:23:42Z</time>
      </trkpt>
      <trkpt lat="44.46853" lon="1.66497">
        <ele>136.64434649245</ele>
        <time>2015-09-21T16:23:52Z</time>
      </trkpt>
      <trkpt lat="44.46866" lon="1.66475">
        <ele>137.32118846814</ele>
        <time>2015-09-21T16:23:57Z</time>
      </trkpt>
      <trkpt lat="44.46904" lon="1.66428">
        <ele>138.15599724559</ele>
        <time>2015-09-21T16:24:07Z</time>
      </trkpt>
      <trkpt lat="44.46922" lon="1.66399">
        <ele>139.1923771109</ele>
        <time>2015-09-21T16:24:12Z</time>
      </trkpt>
      <trkpt lat="44.46963" lon="1.66341">
        <ele>139.47583686894</ele>
        <time>2015-09-21T16:24:22Z</time>
      </trkpt>
      <trkpt lat="44.46979" lon="1.6631">
        <ele>139.11852265205</ele>
        <time>2015-09-21T16:24:27Z</time>
      </trkpt>
      <trkpt lat="44.47012" lon="1.66247">
        <ele>139.13408224994</ele>
        <time>2015-09-21T16:24:37Z</time>
      </trkpt>
      <trkpt lat="44.47031" lon="1.66219">
        <ele>139.30780633858</ele>
        <time>2015-09-21T16:24:42Z</time>
      </trkpt>
      <trkpt lat="44.47057" lon="1.66158">
        <ele>139.44035141731</ele>
        <time>2015-09-21T16:24:52Z</time>
      </trkpt>
      <trkpt lat="44.47077" lon="1.66134">
        <ele>139.59215643668</ele>
        <time>2015-09-21T16:24:57Z</time>
      </trkpt>
      <trkpt lat="44.47121" lon="1.66073">
        <ele>139.51656502022</ele>
        <time>2015-09-21T16:25:07Z</time>
      </trkpt>
      <trkpt lat="44.47133" lon="1.66037">
        <ele>139.67744152865</ele>
        <time>2015-09-21T16:25:12Z</time>
      </trkpt>
      <trkpt lat="44.47146" lon="1.65962">
        <ele>140.40306283447</ele>
        <time>2015-09-21T16:25:22Z</time>
      </trkpt>
      <trkpt lat="44.47153" lon="1.65925">
        <ele>141.00166784825</ele>
        <time>2015-09-21T16:25:27Z</time>
      </trkpt>
      <trkpt lat="44.47172" lon="1.6581">
        <ele>141.14974093493</ele>
        <time>2015-09-21T16:25:42Z</time>
      </trkpt>
      <trkpt lat="44.47175" lon="1.65775">
        <ele>140.98115708646</ele>
        <time>2015-09-21T16:25:47Z</time>
      </trkpt>
      <trkpt lat="44.4718" lon="1.65701">
        <ele>141.02438372318</ele>
        <time>2015-09-21T16:25:57Z</time>
      </trkpt>
      <trkpt lat="44.47179" lon="1.65669">
        <ele>141.10558687059</ele>
        <time>2015-09-21T16:26:02Z</time>
      </trkpt>
      <trkpt lat="44.47166" lon="1.65608">
        <ele>141.03479550668</ele>
        <time>2015-09-21T16:26:12Z</time>
      </trkpt>
      <trkpt lat="44.4716" lon="1.65577">
        <ele>140.92466134952</ele>
        <time>2015-09-21T16:26:17Z</time>
      </trkpt>
      <trkpt lat="44.47193" lon="1.65557">
        <ele>140.57705320908</ele>
        <time>2015-09-21T16:26:27Z</time>
      </trkpt>
      <trkpt lat="44.47229" lon="1.65554">
        <ele>140.09729448879</ele>
        <time>2015-09-21T16:26:32Z</time>
      </trkpt>
      <trkpt lat="44.47282" lon="1.65556">
        <ele>139.72746044524</ele>
        <time>2015-09-21T16:26:42Z</time>
      </trkpt>
      <trkpt lat="44.47292" lon="1.65554">
        <ele>139.37449283884</ele>
        <time>2015-09-21T16:26:47Z</time>
      </trkpt>
      <trkpt lat="44.47293" lon="1.65521">
        <ele>138.98094163836</ele>
        <time>2015-09-21T16:26:57Z</time>
      </trkpt>
      <trkpt lat="44.47291" lon="1.6554">
        <ele>138.52250585258</ele>
        <time>2015-09-21T16:27:27Z</time>
      </trkpt>
      <trkpt lat="44.47289" lon="1.65563">
        <ele>138.09212915004</ele>
        <time>2015-09-21T16:27:42Z</time>
      </trkpt>
      <trkpt lat="44.47289" lon="1.65583">
        <ele>137.66054458647</ele>
        <time>2015-09-21T16:27:47Z</time>
      </trkpt>
      <trkpt lat="44.47289" lon="1.65641">
        <ele>137.01327453992</ele>
        <time>2015-09-21T16:27:57Z</time>
      </trkpt>
      <trkpt lat="44.47288" lon="1.65673">
        <ele>136.32686727665</ele>
        <time>2015-09-21T16:28:02Z</time>
      </trkpt>
      <trkpt lat="44.47285" lon="1.65737">
        <ele>136.02438468499</ele>
        <time>2015-09-21T16:28:12Z</time>
      </trkpt>
      <trkpt lat="44.47285" lon="1.65757">
        <ele>135.74732541805</ele>
        <time>2015-09-21T16:28:17Z</time>
      </trkpt>
      <trkpt lat="44.47283" lon="1.65832">
        <ele>135.30753037185</ele>
        <time>2015-09-21T16:28:32Z</time>
      </trkpt>
      <trkpt lat="44.47283" lon="1.65842">
        <ele>135.30753037185</ele>
        <time>2015-09-21T16:28:37Z</time>
      </trkpt>
      <trkpt lat="44.47285" lon="1.65796">
        <ele>134.38697233153</ele>
        <time>2015-09-21T16:30:22Z</time>
      </trkpt>
      <trkpt lat="44.47286" lon="1.65765">
        <ele>133.29756321705</ele>
        <time>2015-09-21T16:30:27Z</time>
      </trkpt>
      <trkpt lat="44.47288" lon="1.65698">
        <ele>132.6457783734</ele>
        <time>2015-09-21T16:30:37Z</time>
      </trkpt>
      <trkpt lat="44.47287" lon="1.65671">
        <ele>132.21406832369</ele>
        <time>2015-09-21T16:30:42Z</time>
      </trkpt>
      <trkpt lat="44.4729" lon="1.65609">
        <ele>131.98754364482</ele>
        <time>2015-09-21T16:30:52Z</time>
      </trkpt>
      <trkpt lat="44.47292" lon="1.6559">
        <ele>131.77885066925</ele>
        <time>2015-09-21T16:30:57Z</time>
      </trkpt>
      <trkpt lat="44.47282" lon="1.65554">
        <ele>131.58723384924</ele>
        <time>2015-09-21T16:31:07Z</time>
      </trkpt>
      <trkpt lat="44.47266" lon="1.65552">
        <ele>131.41189882456</ele>
        <time>2015-09-21T16:31:12Z</time>
      </trkpt>
      <trkpt lat="44.4723" lon="1.65552">
        <ele>130.96379681034</ele>
        <time>2015-09-21T16:31:22Z</time>
      </trkpt>
      <trkpt lat="44.47205" lon="1.65552">
        <ele>130.53786776308</ele>
        <time>2015-09-21T16:31:27Z</time>
      </trkpt>
      <trkpt lat="44.47168" lon="1.65559">
        <ele>130.26317002791</ele>
        <time>2015-09-21T16:31:37Z</time>
      </trkpt>
      <trkpt lat="44.4716" lon="1.65566">
        <ele>130.07147163913</ele>
        <time>2015-09-21T16:31:42Z</time>
      </trkpt>
      <trkpt lat="44.47163" lon="1.65534">
        <ele>130.01456951075</ele>
        <time>2015-09-21T16:31:52Z</time>
      </trkpt>
      <trkpt lat="44.47166" lon="1.65503">
        <ele>130.52914127806</ele>
        <time>2015-09-21T16:31:57Z</time>
      </trkpt>
      <trkpt lat="44.4717" lon="1.65433">
        <ele>131.60023007568</ele>
        <time>2015-09-21T16:32:07Z</time>
      </trkpt>
      <trkpt lat="44.47172" lon="1.65405">
        <ele>132.56389266218</ele>
        <time>2015-09-21T16:32:12Z</time>
      </trkpt>
      <trkpt lat="44.47182" lon="1.65314">
        <ele>132.47378793995</ele>
        <time>2015-09-21T16:32:27Z</time>
      </trkpt>
      <trkpt lat="44.47178" lon="1.6527">
        <ele>132.27183967579</ele>
        <time>2015-09-21T16:32:32Z</time>
      </trkpt>
      <trkpt lat="44.47184" lon="1.65197">
        <ele>132.49963219443</ele>
        <time>2015-09-21T16:32:42Z</time>
      </trkpt>
      <trkpt lat="44.4719" lon="1.65164">
        <ele>132.85073612597</ele>
        <time>2015-09-21T16:32:47Z</time>
      </trkpt>
      <trkpt lat="44.47205" lon="1.65101">
        <ele>133.45881033548</ele>
        <time>2015-09-21T16:32:57Z</time>
      </trkpt>
      <trkpt lat="44.47213" lon="1.65074">
        <ele>134.25963566971</ele>
        <time>2015-09-21T16:33:02Z</time>
      </trkpt>
      <trkpt lat="44.47243" lon="1.65017">
        <ele>135.39493734352</ele>
        <time>2015-09-21T16:33:12Z</time>
      </trkpt>
      <trkpt lat="44.47256" lon="1.64985">
        <ele>136.34660971042</ele>
        <time>2015-09-21T16:33:17Z</time>
      </trkpt>
      <trkpt lat="44.47282" lon="1.64924">
        <ele>137.06748122351</ele>
        <time>2015-09-21T16:33:27Z</time>
      </trkpt>
      <trkpt lat="44.47299" lon="1.64894">
        <ele>138.01891482397</ele>
        <time>2015-09-21T16:33:32Z</time>
      </trkpt>
      <trkpt lat="44.47342" lon="1.64851">
        <ele>138.77751804275</ele>
        <time>2015-09-21T16:33:42Z</time>
      </trkpt>
      <trkpt lat="44.47361" lon="1.64819">
        <ele>139.28304038329</ele>
        <time>2015-09-21T16:33:47Z</time>
      </trkpt>
      <trkpt lat="44.47395" lon="1.64764">
        <ele>139.37953533833</ele>
        <time>2015-09-21T16:33:57Z</time>
      </trkpt>
      <trkpt lat="44.47409" lon="1.64738">
        <ele>139.21192853613</ele>
        <time>2015-09-21T16:34:02Z</time>
      </trkpt>
      <trkpt lat="44.47426" lon="1.6471">
        <ele>139.0593967384</ele>
        <time>2015-09-21T16:34:12Z</time>
      </trkpt>
      <trkpt lat="44.47443" lon="1.64688">
        <ele>139.10855315903</ele>
        <time>2015-09-21T16:34:17Z</time>
      </trkpt>
      <trkpt lat="44.47471" lon="1.6466">
        <ele>139.01297530662</ele>
        <time>2015-09-21T16:34:27Z</time>
      </trkpt>
      <trkpt lat="44.47484" lon="1.6465">
        <ele>138.85564100638</ele>
        <time>2015-09-21T16:34:32Z</time>
      </trkpt>
      <trkpt lat="44.47496" lon="1.64642">
        <ele>138.72804850144</ele>
        <time>2015-09-21T16:34:42Z</time>
      </trkpt>
      <trkpt lat="44.475" lon="1.64642">
        <ele>138.72804850144</ele>
        <time>2015-09-21T16:34:47Z</time>
      </trkpt>
      <trkpt lat="44.47512" lon="1.64637">
        <ele>138.84461981712</ele>
        <time>2015-09-21T16:35:07Z</time>
      </trkpt>
      <trkpt lat="44.47519" lon="1.64631">
        <ele>138.84461981712</ele>
        <time>2015-09-21T16:35:12Z</time>
      </trkpt>
      <trkpt lat="44.47523" lon="1.64625">
        <ele>138.50987649374</ele>
        <time>2015-09-21T16:35:22Z</time>
      </trkpt>
      <trkpt lat="44.47533" lon="1.6461">
        <ele>138.04626169648</ele>
        <time>2015-09-21T16:35:27Z</time>
      </trkpt>
      <trkpt lat="44.47536" lon="1.64606">
        <ele>138.04626169648</ele>
        <time>2015-09-21T16:35:37Z</time>
      </trkpt>
      <trkpt lat="44.47543" lon="1.64606">
        <ele>137.23411005124</ele>
        <time>2015-09-21T16:35:42Z</time>
      </trkpt>
      <trkpt lat="44.47543" lon="1.64606">
        <ele>137.23411005124</ele>
        <time>2015-09-21T16:35:52Z</time>
      </trkpt>
      <trkpt lat="44.47544" lon="1.64605">
        <ele>137.23411005124</ele>
        <time>2015-09-21T16:38:47Z</time>
      </trkpt>
      <trkpt lat="44.47543" lon="1.64605">
        <ele>137.23411005124</ele>
        <time>2015-09-21T16:39:22Z</time>
      </trkpt>
      <trkpt lat="44.47543" lon="1.64605">
        <ele>137.23411005124</ele>
        <time>2015-09-21T16:39:32Z</time>
      </trkpt>
      <trkpt lat="44.47548" lon="1.64591">
        <ele>135.40972388107</ele>
        <time>2015-09-21T16:42:57Z</time>
      </trkpt>
      <trkpt lat="44.47556" lon="1.64587">
        <ele>135.40972388107</ele>
        <time>2015-09-21T16:43:02Z</time>
      </trkpt>
      <trkpt lat="44.47572" lon="1.6458">
        <ele>133.15712125908</ele>
        <time>2015-09-21T16:43:12Z</time>
      </trkpt>
      <trkpt lat="44.47583" lon="1.6458">
        <ele>130.97537199374</ele>
        <time>2015-09-21T16:43:17Z</time>
      </trkpt>
      <trkpt lat="44.47602" lon="1.6458">
        <ele>128.75021104627</ele>
        <time>2015-09-21T16:43:27Z</time>
      </trkpt>
      <trkpt lat="44.47616" lon="1.64579">
        <ele>126.60642062096</ele>
        <time>2015-09-21T16:43:32Z</time>
      </trkpt>
      <trkpt lat="44.47648" lon="1.6457">
        <ele>124.78902734394</ele>
        <time>2015-09-21T16:43:42Z</time>
      </trkpt>
      <trkpt lat="44.47656" lon="1.6457">
        <ele>124.78902734394</ele>
        <time>2015-09-21T16:43:47Z</time>
      </trkpt>
      <trkpt lat="44.47674" lon="1.64574">
        <ele>123.25025826007</ele>
        <time>2015-09-21T16:43:57Z</time>
      </trkpt>
      <trkpt lat="44.4769" lon="1.64569">
        <ele>121.91616310044</ele>
        <time>2015-09-21T16:44:02Z</time>
      </trkpt>
      <trkpt lat="44.47702" lon="1.64565">
        <ele>120.57344873156</ele>
        <time>2015-09-21T16:44:12Z</time>
      </trkpt>
      <trkpt lat="44.47712" lon="1.64566">
        <ele>119.32705351131</ele>
        <time>2015-09-21T16:44:17Z</time>
      </trkpt>
      <trkpt lat="44.47727" lon="1.6456">
        <ele>118.04326131008</ele>
        <time>2015-09-21T16:44:32Z</time>
      </trkpt>
      <trkpt lat="44.47732" lon="1.64559">
        <ele>118.04326131008</ele>
        <time>2015-09-21T16:44:37Z</time>
      </trkpt>
      <trkpt lat="44.47743" lon="1.64558">
        <ele>116.67023910253</ele>
        <time>2015-09-21T16:44:47Z</time>
      </trkpt>
      <trkpt lat="44.47749" lon="1.64553">
        <ele>116.67023910253</ele>
        <time>2015-09-21T16:44:52Z</time>
      </trkpt>
      <trkpt lat="44.47762" lon="1.64557">
        <ele>114.98717584707</ele>
        <time>2015-09-21T16:45:02Z</time>
      </trkpt>
      <trkpt lat="44.47767" lon="1.64559">
        <ele>114.98717584707</ele>
        <time>2015-09-21T16:45:07Z</time>
      </trkpt>
      <trkpt lat="44.47778" lon="1.64553">
        <ele>113.23699034587</ele>
        <time>2015-09-21T16:45:17Z</time>
      </trkpt>
      <trkpt lat="44.47782" lon="1.6455">
        <ele>113.23699034587</ele>
        <time>2015-09-21T16:45:22Z</time>
      </trkpt>
      <trkpt lat="44.47794" lon="1.64552">
        <ele>111.91864875521</ele>
        <time>2015-09-21T16:45:32Z</time>
      </trkpt>
      <trkpt lat="44.47801" lon="1.64558">
        <ele>111.91864875521</ele>
        <time>2015-09-21T16:45:37Z</time>
      </trkpt>
      <trkpt lat="44.47814" lon="1.64561">
        <ele>111.40667712998</ele>
        <time>2015-09-21T16:45:47Z</time>
      </trkpt>
      <trkpt lat="44.47819" lon="1.6456">
        <ele>111.40667712998</ele>
        <time>2015-09-21T16:45:52Z</time>
      </trkpt>
      <trkpt lat="44.47838" lon="1.64569">
        <ele>111.87278815754</ele>
        <time>2015-09-21T16:46:07Z</time>
      </trkpt>
      <trkpt lat="44.4785" lon="1.64579">
        <ele>112.57974922976</ele>
        <time>2015-09-21T16:46:12Z</time>
      </trkpt>
      <trkpt lat="44.47874" lon="1.64591">
        <ele>113.56427807987</ele>
        <time>2015-09-21T16:46:22Z</time>
      </trkpt>
      <trkpt lat="44.47885" lon="1.64594">
        <ele>114.61455624257</ele>
        <time>2015-09-21T16:46:27Z</time>
      </trkpt>
      <trkpt lat="44.47915" lon="1.64592">
        <ele>115.90877577068</ele>
        <time>2015-09-21T16:46:37Z</time>
      </trkpt>
      <trkpt lat="44.47934" lon="1.64587">
        <ele>117.36632904085</ele>
        <time>2015-09-21T16:46:42Z</time>
      </trkpt>
      <trkpt lat="44.47967" lon="1.64587">
        <ele>119.09939777258</ele>
        <time>2015-09-21T16:46:52Z</time>
      </trkpt>
      <trkpt lat="44.47985" lon="1.64592">
        <ele>120.85087180728</ele>
        <time>2015-09-21T16:46:57Z</time>
      </trkpt>
      <trkpt lat="44.4802" lon="1.64592">
        <ele>122.72836125236</ele>
        <time>2015-09-21T16:47:07Z</time>
      </trkpt>
      <trkpt lat="44.48029" lon="1.64591">
        <ele>124.4853863885</ele>
        <time>2015-09-21T16:47:12Z</time>
      </trkpt>
      <trkpt lat="44.48063" lon="1.64594">
        <ele>126.31188623803</ele>
        <time>2015-09-21T16:47:22Z</time>
      </trkpt>
      <trkpt lat="44.48085" lon="1.64596">
        <ele>128.16755298053</ele>
        <time>2015-09-21T16:47:27Z</time>
      </trkpt>
      <trkpt lat="44.48136" lon="1.64599">
        <ele>129.98621745603</ele>
        <time>2015-09-21T16:47:37Z</time>
      </trkpt>
      <trkpt lat="44.48153" lon="1.64592">
        <ele>131.6347136774</ele>
        <time>2015-09-21T16:47:42Z</time>
      </trkpt>
      <trkpt lat="44.48197" lon="1.64584">
        <ele>132.13998275175</ele>
        <time>2015-09-21T16:47:52Z</time>
      </trkpt>
      <trkpt lat="44.4822" lon="1.64581">
        <ele>132.59249670375</ele>
        <time>2015-09-21T16:47:57Z</time>
      </trkpt>
      <trkpt lat="44.48263" lon="1.6457">
        <ele>132.89322574726</ele>
        <time>2015-09-21T16:48:07Z</time>
      </trkpt>
      <trkpt lat="44.4828" lon="1.64565">
        <ele>133.18152891025</ele>
        <time>2015-09-21T16:48:12Z</time>
      </trkpt>
      <trkpt lat="44.48348" lon="1.64539">
        <ele>133.26962503881</ele>
        <time>2015-09-21T16:48:27Z</time>
      </trkpt>
      <trkpt lat="44.4837" lon="1.64526">
        <ele>133.35888027939</ele>
        <time>2015-09-21T16:48:32Z</time>
      </trkpt>
      <trkpt lat="44.48411" lon="1.64481">
        <ele>133.40538464424</ele>
        <time>2015-09-21T16:48:42Z</time>
      </trkpt>
      <trkpt lat="44.48424" lon="1.64466">
        <ele>133.49836554235</ele>
        <time>2015-09-21T16:48:47Z</time>
      </trkpt>
      <trkpt lat="44.48456" lon="1.64465">
        <ele>133.54751818222</ele>
        <time>2015-09-21T16:48:57Z</time>
      </trkpt>
      <trkpt lat="44.48469" lon="1.64451">
        <ele>133.5558417413</ele>
        <time>2015-09-21T16:49:02Z</time>
      </trkpt>
      <trkpt lat="44.48487" lon="1.64423">
        <ele>133.5839491793</ele>
        <time>2015-09-21T16:49:12Z</time>
      </trkpt>
      <trkpt lat="44.48495" lon="1.6441">
        <ele>133.5583149406</ele>
        <time>2015-09-21T16:49:17Z</time>
      </trkpt>
      <trkpt lat="44.48508" lon="1.64376">
        <ele>133.52631848835</ele>
        <time>2015-09-21T16:49:27Z</time>
      </trkpt>
      <trkpt lat="44.48512" lon="1.64367">
        <ele>133.52631848835</ele>
        <time>2015-09-21T16:49:32Z</time>
      </trkpt>
      <trkpt lat="44.48523" lon="1.64335">
        <ele>132.98431216648</ele>
        <time>2015-09-21T16:49:42Z</time>
      </trkpt>
      <trkpt lat="44.48531" lon="1.64298">
        <ele>132.60560641661</ele>
        <time>2015-09-21T16:49:47Z</time>
      </trkpt>
      <trkpt lat="44.48535" lon="1.64248">
        <ele>132.33631476564</ele>
        <time>2015-09-21T16:49:57Z</time>
      </trkpt>
      <trkpt lat="44.48535" lon="1.64249">
        <ele>132.33631476564</ele>
        <time>2015-09-21T16:50:02Z</time>
      </trkpt>
      <trkpt lat="44.48532" lon="1.64255">
        <ele>132.33631476564</ele>
        <time>2015-09-21T16:50:12Z</time>
      </trkpt>
      <trkpt lat="44.48532" lon="1.64257">
        <ele>132.33631476564</ele>
        <time>2015-09-21T16:50:17Z</time>
      </trkpt>
      <trkpt lat="44.48533" lon="1.64257">
        <ele>132.33631476564</ele>
        <time>2015-09-21T16:50:22Z</time>
      </trkpt>
      <trkpt lat="44.48532" lon="1.64256">
        <ele>131.7227280818</ele>
        <time>2015-09-21T16:50:27Z</time>
      </trkpt>
      <trkpt lat="44.48531" lon="1.64254">
        <ele>131.7227280818</ele>
        <time>2015-09-21T16:50:32Z</time>
      </trkpt>
      <trkpt lat="44.4853" lon="1.64254">
        <ele>131.7227280818</ele>
        <time>2015-09-21T16:50:37Z</time>
      </trkpt>
      <trkpt lat="44.4853" lon="1.64254">
        <ele>131.7227280818</ele>
        <time>2015-09-21T16:50:42Z</time>
      </trkpt>
      <trkpt lat="44.48531" lon="1.64256">
        <ele>131.7227280818</ele>
        <time>2015-09-21T16:50:47Z</time>
      </trkpt>
      <trkpt lat="44.48531" lon="1.64257">
        <ele>131.7227280818</ele>
        <time>2015-09-21T16:50:52Z</time>
      </trkpt>
      <trkpt lat="44.48531" lon="1.64258">
        <ele>131.7227280818</ele>
        <time>2015-09-21T16:50:57Z</time>
      </trkpt>
      <trkpt lat="44.48531" lon="1.64258">
        <ele>131.7227280818</ele>
        <time>2015-09-21T16:51:02Z</time>
      </trkpt>
      <trkpt lat="44.48532" lon="1.64257">
        <ele>131.7227280818</ele>
        <time>2015-09-21T16:51:17Z</time>
      </trkpt>
      <trkpt lat="44.48536" lon="1.64254">
        <ele>131.06601740046</ele>
        <time>2015-09-21T16:51:22Z</time>
      </trkpt>
      <trkpt lat="44.48541" lon="1.64251">
        <ele>131.06601740046</ele>
        <time>2015-09-21T16:51:32Z</time>
      </trkpt>
      <trkpt lat="44.48537" lon="1.64244">
        <ele>130.37156126409</ele>
        <time>2015-09-21T16:51:37Z</time>
      </trkpt>
      <trkpt lat="44.48511" lon="1.64222">
        <ele>129.6588738371</ele>
        <time>2015-09-21T16:51:47Z</time>
      </trkpt>
      <trkpt lat="44.48501" lon="1.64211">
        <ele>129.06138181594</ele>
        <time>2015-09-21T16:51:52Z</time>
      </trkpt>
      <trkpt lat="44.48493" lon="1.64182">
        <ele>128.70238645015</ele>
        <time>2015-09-21T16:52:02Z</time>
      </trkpt>
      <trkpt lat="44.48496" lon="1.64173">
        <ele>128.70238645015</ele>
        <time>2015-09-21T16:52:07Z</time>
      </trkpt>
      <trkpt lat="44.48502" lon="1.64132">
        <ele>128.95485681173</ele>
        <time>2015-09-21T16:52:17Z</time>
      </trkpt>
      <trkpt lat="44.48508" lon="1.64102">
        <ele>129.84559665001</ele>
        <time>2015-09-21T16:52:22Z</time>
      </trkpt>
      <trkpt lat="44.48515" lon="1.64012">
        <ele>131.34000061145</ele>
        <time>2015-09-21T16:52:37Z</time>
      </trkpt>
      <trkpt lat="44.48509" lon="1.63981">
        <ele>132.71257877394</ele>
        <time>2015-09-21T16:52:42Z</time>
      </trkpt>
      <trkpt lat="44.48503" lon="1.63921">
        <ele>134.09850826125</ele>
        <time>2015-09-21T16:52:52Z</time>
      </trkpt>
      <trkpt lat="44.48505" lon="1.63892">
        <ele>135.50772798496</ele>
        <time>2015-09-21T16:52:57Z</time>
      </trkpt>
      <trkpt lat="44.48518" lon="1.6385">
        <ele>136.90617562264</ele>
        <time>2015-09-21T16:53:07Z</time>
      </trkpt>
      <trkpt lat="44.48509" lon="1.63832">
        <ele>138.23353491972</ele>
        <time>2015-09-21T16:53:12Z</time>
      </trkpt>
      <trkpt lat="44.48502" lon="1.63792">
        <ele>139.59268559375</ele>
        <time>2015-09-21T16:53:22Z</time>
      </trkpt>
      <trkpt lat="44.48504" lon="1.63772">
        <ele>140.96362203148</ele>
        <time>2015-09-21T16:53:27Z</time>
      </trkpt>
      <trkpt lat="44.48506" lon="1.63721">
        <ele>142.76016572317</ele>
        <time>2015-09-21T16:53:37Z</time>
      </trkpt>
      <trkpt lat="44.48499" lon="1.63691">
        <ele>144.80257573269</ele>
        <time>2015-09-21T16:53:42Z</time>
      </trkpt>
      <trkpt lat="44.48491" lon="1.63621">
        <ele>146.96693041346</ele>
        <time>2015-09-21T16:53:52Z</time>
      </trkpt>
      <trkpt lat="44.48492" lon="1.63583">
        <ele>149.03727182434</ele>
        <time>2015-09-21T16:53:57Z</time>
      </trkpt>
      <trkpt lat="44.48478" lon="1.63518">
        <ele>150.95796991739</ele>
        <time>2015-09-21T16:54:07Z</time>
      </trkpt>
      <trkpt lat="44.48485" lon="1.63484">
        <ele>152.9085754725</ele>
        <time>2015-09-21T16:54:12Z</time>
      </trkpt>
      <trkpt lat="44.48512" lon="1.63378">
        <ele>154.69519068586</ele>
        <time>2015-09-21T16:54:27Z</time>
      </trkpt>
      <trkpt lat="44.48517" lon="1.63341">
        <ele>156.25401780971</ele>
        <time>2015-09-21T16:54:32Z</time>
      </trkpt>
      <trkpt lat="44.48517" lon="1.63251">
        <ele>158.04549579946</ele>
        <time>2015-09-21T16:54:42Z</time>
      </trkpt>
      <trkpt lat="44.48508" lon="1.63206">
        <ele>159.45809970843</ele>
        <time>2015-09-21T16:54:47Z</time>
      </trkpt>
      <trkpt lat="44.48495" lon="1.63115">
        <ele>160.44520248918</ele>
        <time>2015-09-21T16:54:57Z</time>
      </trkpt>
      <trkpt lat="44.485" lon="1.63068">
        <ele>161.25312888179</ele>
        <time>2015-09-21T16:55:02Z</time>
      </trkpt>
      <trkpt lat="44.48517" lon="1.62994">
        <ele>161.33251671635</ele>
        <time>2015-09-21T16:55:12Z</time>
      </trkpt>
      <trkpt lat="44.48531" lon="1.62963">
        <ele>161.18527916537</ele>
        <time>2015-09-21T16:55:17Z</time>
      </trkpt>
      <trkpt lat="44.48556" lon="1.62899">
        <ele>160.85925935209</ele>
        <time>2015-09-21T16:55:27Z</time>
      </trkpt>
      <trkpt lat="44.48567" lon="1.62868">
        <ele>160.64435081042</ele>
        <time>2015-09-21T16:55:32Z</time>
      </trkpt>
      <trkpt lat="44.48582" lon="1.62795">
        <ele>160.46303429315</ele>
        <time>2015-09-21T16:55:42Z</time>
      </trkpt>
      <trkpt lat="44.48588" lon="1.62747">
        <ele>159.9696273504</ele>
        <time>2015-09-21T16:55:47Z</time>
      </trkpt>
      <trkpt lat="44.48609" lon="1.62668">
        <ele>159.3059069452</ele>
        <time>2015-09-21T16:55:57Z</time>
      </trkpt>
      <trkpt lat="44.48617" lon="1.62635">
        <ele>158.60373450795</ele>
        <time>2015-09-21T16:56:02Z</time>
      </trkpt>
      <trkpt lat="44.48637" lon="1.62562">
        <ele>158.63390288133</ele>
        <time>2015-09-21T16:56:12Z</time>
      </trkpt>
      <trkpt lat="44.48647" lon="1.62517">
        <ele>158.3359595509</ele>
        <time>2015-09-21T16:56:17Z</time>
      </trkpt>
      <trkpt lat="44.4865" lon="1.62434">
        <ele>157.20382676522</ele>
        <time>2015-09-21T16:56:27Z</time>
      </trkpt>
      <trkpt lat="44.48651" lon="1.62394">
        <ele>156.12556473512</ele>
        <time>2015-09-21T16:56:32Z</time>
      </trkpt>
      <trkpt lat="44.48646" lon="1.62315">
        <ele>155.37618998529</ele>
        <time>2015-09-21T16:56:42Z</time>
      </trkpt>
      <trkpt lat="44.48627" lon="1.62283">
        <ele>154.66192665774</ele>
        <time>2015-09-21T16:56:47Z</time>
      </trkpt>
      <trkpt lat="44.48579" lon="1.62193">
        <ele>154.40216026715</ele>
        <time>2015-09-21T16:57:02Z</time>
      </trkpt>
      <trkpt lat="44.48567" lon="1.62163">
        <ele>154.17710945964</ele>
        <time>2015-09-21T16:57:07Z</time>
      </trkpt>
      <trkpt lat="44.48537" lon="1.62119">
        <ele>154.3182223687</ele>
        <time>2015-09-21T16:57:17Z</time>
      </trkpt>
      <trkpt lat="44.48523" lon="1.62104">
        <ele>154.49741475078</ele>
        <time>2015-09-21T16:57:22Z</time>
      </trkpt>
      <trkpt lat="44.48521" lon="1.62103">
        <ele>154.49741475078</ele>
        <time>2015-09-21T16:57:32Z</time>
      </trkpt>
      <trkpt lat="44.48507" lon="1.62094">
        <ele>154.84286179313</ele>
        <time>2015-09-21T17:00:27Z</time>
      </trkpt>
      <trkpt lat="44.48494" lon="1.62081">
        <ele>155.1125116783</ele>
        <time>2015-09-21T17:00:32Z</time>
      </trkpt>
      <trkpt lat="44.48458" lon="1.62054">
        <ele>155.48575266339</ele>
        <time>2015-09-21T17:00:42Z</time>
      </trkpt>
      <trkpt lat="44.48434" lon="1.62038">
        <ele>155.79698665144</ele>
        <time>2015-09-21T17:00:47Z</time>
      </trkpt>
      <trkpt lat="44.48389" lon="1.62007">
        <ele>156.10906137235</ele>
        <time>2015-09-21T17:00:57Z</time>
      </trkpt>
      <trkpt lat="44.48366" lon="1.61992">
        <ele>156.33603716951</ele>
        <time>2015-09-21T17:01:02Z</time>
      </trkpt>
      <trkpt lat="44.4832" lon="1.61965">
        <ele>156.78757201819</ele>
        <time>2015-09-21T17:01:12Z</time>
      </trkpt>
      <trkpt lat="44.48299" lon="1.61946">
        <ele>157.36079516469</ele>
        <time>2015-09-21T17:01:17Z</time>
      </trkpt>
      <trkpt lat="44.48264" lon="1.61895">
        <ele>157.9023588289</ele>
        <time>2015-09-21T17:01:27Z</time>
      </trkpt>
      <trkpt lat="44.48248" lon="1.61866">
        <ele>158.54403601065</ele>
        <time>2015-09-21T17:01:32Z</time>
      </trkpt>
      <trkpt lat="44.48219" lon="1.61805">
        <ele>159.29231043444</ele>
        <time>2015-09-21T17:01:42Z</time>
      </trkpt>
      <trkpt lat="44.482" lon="1.6178">
        <ele>160.12403366639</ele>
        <time>2015-09-21T17:01:47Z</time>
      </trkpt>
      <trkpt lat="44.48158" lon="1.61736">
        <ele>160.81573831607</ele>
        <time>2015-09-21T17:01:57Z</time>
      </trkpt>
      <trkpt lat="44.48136" lon="1.61711">
        <ele>161.26161821431</ele>
        <time>2015-09-21T17:02:02Z</time>
      </trkpt>
      <trkpt lat="44.48102" lon="1.61648">
        <ele>161.53724114179</ele>
        <time>2015-09-21T17:02:12Z</time>
      </trkpt>
      <trkpt lat="44.48084" lon="1.61612">
        <ele>161.72749332251</ele>
        <time>2015-09-21T17:02:17Z</time>
      </trkpt>
      <trkpt lat="44.48036" lon="1.6156">
        <ele>161.76713534132</ele>
        <time>2015-09-21T17:02:27Z</time>
      </trkpt>
      <trkpt lat="44.48016" lon="1.61525">
        <ele>161.52406819042</ele>
        <time>2015-09-21T17:02:32Z</time>
      </trkpt>
      <trkpt lat="44.47998" lon="1.61432">
        <ele>160.83343509351</ele>
        <time>2015-09-21T17:02:42Z</time>
      </trkpt>
      <trkpt lat="44.47991" lon="1.61387">
        <ele>159.84635282958</ele>
        <time>2015-09-21T17:02:47Z</time>
      </trkpt>
      <trkpt lat="44.47972" lon="1.61316">
        <ele>158.76128142684</ele>
        <time>2015-09-21T17:02:57Z</time>
      </trkpt>
      <trkpt lat="44.47964" lon="1.61286">
        <ele>157.89203795975</ele>
        <time>2015-09-21T17:03:02Z</time>
      </trkpt>
      <trkpt lat="44.4792" lon="1.61205">
        <ele>156.63524450231</ele>
        <time>2015-09-21T17:03:17Z</time>
      </trkpt>
      <trkpt lat="44.47896" lon="1.61167">
        <ele>155.28313408829</ele>
        <time>2015-09-21T17:03:22Z</time>
      </trkpt>
      <trkpt lat="44.47831" lon="1.61135">
        <ele>153.60228608944</ele>
        <time>2015-09-21T17:03:32Z</time>
      </trkpt>
      <trkpt lat="44.47826" lon="1.61136">
        <ele>153.60228608944</ele>
        <time>2015-09-21T17:03:37Z</time>
      </trkpt>
      <trkpt lat="44.47788" lon="1.61149">
        <ele>152.15547597553</ele>
        <time>2015-09-21T17:04:47Z</time>
      </trkpt>
      <trkpt lat="44.47758" lon="1.61166">
        <ele>151.17517780249</ele>
        <time>2015-09-21T17:04:52Z</time>
      </trkpt>
      <trkpt lat="44.47693" lon="1.61201">
        <ele>149.43427829735</ele>
        <time>2015-09-21T17:05:02Z</time>
      </trkpt>
      <trkpt lat="44.47654" lon="1.6122">
        <ele>147.62805574749</ele>
        <time>2015-09-21T17:05:07Z</time>
      </trkpt>
      <trkpt lat="44.47595" lon="1.61228">
        <ele>145.16143581429</ele>
        <time>2015-09-21T17:05:17Z</time>
      </trkpt>
      <trkpt lat="44.4757" lon="1.61239">
        <ele>142.92590844631</ele>
        <time>2015-09-21T17:05:22Z</time>
      </trkpt>
      <trkpt lat="44.47524" lon="1.61266">
        <ele>141.61700485103</ele>
        <time>2015-09-21T17:05:32Z</time>
      </trkpt>
      <trkpt lat="44.47501" lon="1.61278">
        <ele>140.47855640163</ele>
        <time>2015-09-21T17:05:37Z</time>
      </trkpt>
      <trkpt lat="44.47457" lon="1.61309">
        <ele>139.57312075769</ele>
        <time>2015-09-21T17:05:47Z</time>
      </trkpt>
      <trkpt lat="44.47444" lon="1.61334">
        <ele>138.59759583553</ele>
        <time>2015-09-21T17:05:52Z</time>
      </trkpt>
      <trkpt lat="44.47435" lon="1.61386">
        <ele>137.76118949375</ele>
        <time>2015-09-21T17:06:02Z</time>
      </trkpt>
      <trkpt lat="44.47439" lon="1.61416">
        <ele>136.9113571827</ele>
        <time>2015-09-21T17:06:07Z</time>
      </trkpt>
      <trkpt lat="44.4742" lon="1.61513">
        <ele>136.5407646322</ele>
        <time>2015-09-21T17:06:22Z</time>
      </trkpt>
      <trkpt lat="44.47422" lon="1.61548">
        <ele>136.45592563869</ele>
        <time>2015-09-21T17:06:27Z</time>
      </trkpt>
      <trkpt lat="44.47431" lon="1.61615">
        <ele>136.96663585467</ele>
        <time>2015-09-21T17:06:37Z</time>
      </trkpt>
      <trkpt lat="44.47445" lon="1.61646">
        <ele>137.27733134337</ele>
        <time>2015-09-21T17:06:42Z</time>
      </trkpt>
      <trkpt lat="44.47478" lon="1.61696">
        <ele>137.89072157122</ele>
        <time>2015-09-21T17:06:52Z</time>
      </trkpt>
      <trkpt lat="44.47493" lon="1.61709">
        <ele>138.76727734197</ele>
        <time>2015-09-21T17:06:57Z</time>
      </trkpt>
      <trkpt lat="44.47514" lon="1.61743">
        <ele>139.66782196932</ele>
        <time>2015-09-21T17:07:07Z</time>
      </trkpt>
      <trkpt lat="44.47513" lon="1.61765">
        <ele>140.64444949422</ele>
        <time>2015-09-21T17:07:12Z</time>
      </trkpt>
      <trkpt lat="44.47482" lon="1.61796">
        <ele>141.96135263144</ele>
        <time>2015-09-21T17:07:22Z</time>
      </trkpt>
      <trkpt lat="44.47465" lon="1.61808">
        <ele>143.3291380875</ele>
        <time>2015-09-21T17:07:27Z</time>
      </trkpt>
      <trkpt lat="44.4745" lon="1.61867">
        <ele>144.59481956933</ele>
        <time>2015-09-21T17:07:37Z</time>
      </trkpt>
      <trkpt lat="44.47442" lon="1.619">
        <ele>145.84752992421</ele>
        <time>2015-09-21T17:07:42Z</time>
      </trkpt>
      <trkpt lat="44.47406" lon="1.6191">
        <ele>147.29962129632</ele>
        <time>2015-09-21T17:07:52Z</time>
      </trkpt>
      <trkpt lat="44.47388" lon="1.61897">
        <ele>148.98880877577</ele>
        <time>2015-09-21T17:07:57Z</time>
      </trkpt>
      <trkpt lat="44.4735" lon="1.61894">
        <ele>150.87737310438</ele>
        <time>2015-09-21T17:08:07Z</time>
      </trkpt>
      <trkpt lat="44.47329" lon="1.6189">
        <ele>152.84340990878</ele>
        <time>2015-09-21T17:08:12Z</time>
      </trkpt>
      <trkpt lat="44.47286" lon="1.61873">
        <ele>154.75942457786</ele>
        <time>2015-09-21T17:08:22Z</time>
      </trkpt>
      <trkpt lat="44.47265" lon="1.61862">
        <ele>156.56516865616</ele>
        <time>2015-09-21T17:08:27Z</time>
      </trkpt>
      <trkpt lat="44.47226" lon="1.61844">
        <ele>158.23405795104</ele>
        <time>2015-09-21T17:08:37Z</time>
      </trkpt>
      <trkpt lat="44.47206" lon="1.61841">
        <ele>159.91489494674</ele>
        <time>2015-09-21T17:08:42Z</time>
      </trkpt>
      <trkpt lat="44.47167" lon="1.61853">
        <ele>161.54388643227</ele>
        <time>2015-09-21T17:08:52Z</time>
      </trkpt>
      <trkpt lat="44.47149" lon="1.61865">
        <ele>163.26395749119</ele>
        <time>2015-09-21T17:08:57Z</time>
      </trkpt>
      <trkpt lat="44.471" lon="1.61904">
        <ele>165.3659380272</ele>
        <time>2015-09-21T17:09:12Z</time>
      </trkpt>
      <trkpt lat="44.47083" lon="1.61921">
        <ele>167.39780961117</ele>
        <time>2015-09-21T17:09:17Z</time>
      </trkpt>
      <trkpt lat="44.4705" lon="1.61952">
        <ele>169.84900539168</ele>
        <time>2015-09-21T17:09:27Z</time>
      </trkpt>
      <trkpt lat="44.47034" lon="1.61965">
        <ele>172.22085126381</ele>
        <time>2015-09-21T17:09:32Z</time>
      </trkpt>
      <trkpt lat="44.46997" lon="1.62002">
        <ele>174.67136927901</ele>
        <time>2015-09-21T17:09:42Z</time>
      </trkpt>
      <trkpt lat="44.46979" lon="1.62022">
        <ele>176.92899974366</ele>
        <time>2015-09-21T17:09:47Z</time>
      </trkpt>
      <trkpt lat="44.46939" lon="1.62055">
        <ele>179.13194791381</ele>
        <time>2015-09-21T17:09:57Z</time>
      </trkpt>
      <trkpt lat="44.46916" lon="1.62067">
        <ele>180.9906762272</ele>
        <time>2015-09-21T17:10:02Z</time>
      </trkpt>
      <trkpt lat="44.46875" lon="1.62099">
        <ele>182.71362917283</ele>
        <time>2015-09-21T17:10:12Z</time>
      </trkpt>
      <trkpt lat="44.46857" lon="1.62117">
        <ele>184.46567777091</ele>
        <time>2015-09-21T17:10:17Z</time>
      </trkpt>
      <trkpt lat="44.46818" lon="1.62153">
        <ele>186.41408988465</ele>
        <time>2015-09-21T17:10:27Z</time>
      </trkpt>
      <trkpt lat="44.46798" lon="1.62173">
        <ele>188.23790447511</ele>
        <time>2015-09-21T17:10:32Z</time>
      </trkpt>
      <trkpt lat="44.46765" lon="1.62213">
        <ele>189.48173785066</ele>
        <time>2015-09-21T17:10:42Z</time>
      </trkpt>
      <trkpt lat="44.46748" lon="1.62236">
        <ele>190.64776481767</ele>
        <time>2015-09-21T17:10:47Z</time>
      </trkpt>
      <trkpt lat="44.46715" lon="1.6228">
        <ele>191.9566619254</ele>
        <time>2015-09-21T17:10:57Z</time>
      </trkpt>
      <trkpt lat="44.467" lon="1.62304">
        <ele>193.51177148485</ele>
        <time>2015-09-21T17:11:02Z</time>
      </trkpt>
      <trkpt lat="44.46652" lon="1.6236">
        <ele>195.1921351994</ele>
        <time>2015-09-21T17:11:17Z</time>
      </trkpt>
      <trkpt lat="44.46631" lon="1.62373">
        <ele>196.35225909983</ele>
        <time>2015-09-21T17:11:22Z</time>
      </trkpt>
      <trkpt lat="44.46586" lon="1.62382">
        <ele>197.24591668546</ele>
        <time>2015-09-21T17:11:32Z</time>
      </trkpt>
      <trkpt lat="44.46565" lon="1.62381">
        <ele>198.23881403293</ele>
        <time>2015-09-21T17:11:37Z</time>
      </trkpt>
      <trkpt lat="44.46521" lon="1.62394">
        <ele>199.36699953229</ele>
        <time>2015-09-21T17:11:47Z</time>
      </trkpt>
      <trkpt lat="44.46502" lon="1.6241">
        <ele>200.36097006267</ele>
        <time>2015-09-21T17:11:52Z</time>
      </trkpt>
      <trkpt lat="44.46475" lon="1.62462">
        <ele>201.3317751312</ele>
        <time>2015-09-21T17:12:02Z</time>
      </trkpt>
      <trkpt lat="44.46464" lon="1.62485">
        <ele>201.99336314457</ele>
        <time>2015-09-21T17:12:07Z</time>
      </trkpt>
      <trkpt lat="44.46447" lon="1.62536">
        <ele>203.14806921672</ele>
        <time>2015-09-21T17:12:17Z</time>
      </trkpt>
      <trkpt lat="44.46442" lon="1.62561">
        <ele>204.64449279076</ele>
        <time>2015-09-21T17:12:22Z</time>
      </trkpt>
      <trkpt lat="44.4644" lon="1.62616">
        <ele>206.6585116089</ele>
        <time>2015-09-21T17:12:32Z</time>
      </trkpt>
      <trkpt lat="44.46433" lon="1.62642">
        <ele>208.44379808488</ele>
        <time>2015-09-21T17:12:37Z</time>
      </trkpt>
      <trkpt lat="44.46403" lon="1.62684">
        <ele>209.15103235901</ele>
        <time>2015-09-21T17:12:47Z</time>
      </trkpt>
      <trkpt lat="44.46388" lon="1.62701">
        <ele>209.65364728535</ele>
        <time>2015-09-21T17:12:52Z</time>
      </trkpt>
      <trkpt lat="44.46357" lon="1.6273">
        <ele>210.0409851739</ele>
        <time>2015-09-21T17:13:02Z</time>
      </trkpt>
      <trkpt lat="44.46343" lon="1.62744">
        <ele>210.35295925891</ele>
        <time>2015-09-21T17:13:07Z</time>
      </trkpt>
      <trkpt lat="44.46318" lon="1.62785">
        <ele>210.67002861599</ele>
        <time>2015-09-21T17:13:17Z</time>
      </trkpt>
      <trkpt lat="44.46305" lon="1.62805">
        <ele>210.92263857411</ele>
        <time>2015-09-21T17:13:22Z</time>
      </trkpt>
      <trkpt lat="44.46265" lon="1.62859">
        <ele>211.32034788755</ele>
        <time>2015-09-21T17:13:37Z</time>
      </trkpt>
      <trkpt lat="44.46252" lon="1.62874">
        <ele>211.66781636199</ele>
        <time>2015-09-21T17:13:42Z</time>
      </trkpt>
      <trkpt lat="44.46218" lon="1.62907">
        <ele>212.69208936632</ele>
        <time>2015-09-21T17:13:52Z</time>
      </trkpt>
      <trkpt lat="44.46205" lon="1.62916">
        <ele>213.59495988658</ele>
        <time>2015-09-21T17:13:57Z</time>
      </trkpt>
      <trkpt lat="44.4617" lon="1.62932">
        <ele>214.47302611163</ele>
        <time>2015-09-21T17:14:07Z</time>
      </trkpt>
      <trkpt lat="44.46152" lon="1.62944">
        <ele>215.43025202669</ele>
        <time>2015-09-21T17:14:12Z</time>
      </trkpt>
      <trkpt lat="44.46123" lon="1.62981">
        <ele>216.69242224463</ele>
        <time>2015-09-21T17:14:22Z</time>
      </trkpt>
      <trkpt lat="44.46108" lon="1.62999">
        <ele>217.81935836523</ele>
        <time>2015-09-21T17:14:27Z</time>
      </trkpt>
      <trkpt lat="44.46071" lon="1.63029">
        <ele>219.26824250417</ele>
        <time>2015-09-21T17:14:37Z</time>
      </trkpt>
      <trkpt lat="44.46054" lon="1.63036">
        <ele>220.59708209629</ele>
        <time>2015-09-21T17:14:42Z</time>
      </trkpt>
      <trkpt lat="44.46017" lon="1.63061">
        <ele>221.62724855059</ele>
        <time>2015-09-21T17:14:52Z</time>
      </trkpt>
      <trkpt lat="44.46002" lon="1.63077">
        <ele>222.56874362244</ele>
        <time>2015-09-21T17:14:57Z</time>
      </trkpt>
      <trkpt lat="44.45973" lon="1.63117">
        <ele>223.40020589845</ele>
        <time>2015-09-21T17:15:07Z</time>
      </trkpt>
      <trkpt lat="44.45961" lon="1.63135">
        <ele>224.07330967858</ele>
        <time>2015-09-21T17:15:12Z</time>
      </trkpt>
      <trkpt lat="44.45931" lon="1.63161">
        <ele>224.67340126172</ele>
        <time>2015-09-21T17:15:22Z</time>
      </trkpt>
      <trkpt lat="44.45913" lon="1.63173">
        <ele>225.52472656458</ele>
        <time>2015-09-21T17:15:27Z</time>
      </trkpt>
      <trkpt lat="44.45877" lon="1.632">
        <ele>226.29289138546</ele>
        <time>2015-09-21T17:15:37Z</time>
      </trkpt>
      <trkpt lat="44.45861" lon="1.63213">
        <ele>226.95649181361</ele>
        <time>2015-09-21T17:15:42Z</time>
      </trkpt>
      <trkpt lat="44.45837" lon="1.63269">
        <ele>227.61124669565</ele>
        <time>2015-09-21T17:15:57Z</time>
      </trkpt>
      <trkpt lat="44.45829" lon="1.63288">
        <ele>228.23054552838</ele>
        <time>2015-09-21T17:16:02Z</time>
      </trkpt>
      <trkpt lat="44.45806" lon="1.6332">
        <ele>228.96272979221</ele>
        <time>2015-09-21T17:16:12Z</time>
      </trkpt>
      <trkpt lat="44.45795" lon="1.63335">
        <ele>229.67107856099</ele>
        <time>2015-09-21T17:16:17Z</time>
      </trkpt>
      <trkpt lat="44.45772" lon="1.63369">
        <ele>230.54598723647</ele>
        <time>2015-09-21T17:16:27Z</time>
      </trkpt>
      <trkpt lat="44.45765" lon="1.63386">
        <ele>231.40308059106</ele>
        <time>2015-09-21T17:16:32Z</time>
      </trkpt>
      <trkpt lat="44.45751" lon="1.63421">
        <ele>232.3453497071</ele>
        <time>2015-09-21T17:16:42Z</time>
      </trkpt>
      <trkpt lat="44.45743" lon="1.63443">
        <ele>233.29500932635</ele>
        <time>2015-09-21T17:16:47Z</time>
      </trkpt>
      <trkpt lat="44.45731" lon="1.63479">
        <ele>234.46815299457</ele>
        <time>2015-09-21T17:16:57Z</time>
      </trkpt>
      <trkpt lat="44.45726" lon="1.63499">
        <ele>235.63200477941</ele>
        <time>2015-09-21T17:17:02Z</time>
      </trkpt>
      <trkpt lat="44.45712" lon="1.63537">
        <ele>237.01762692259</ele>
        <time>2015-09-21T17:17:12Z</time>
      </trkpt>
      <trkpt lat="44.45711" lon="1.63558">
        <ele>238.4205348512</ele>
        <time>2015-09-21T17:17:17Z</time>
      </trkpt>
      <trkpt lat="44.45708" lon="1.63607">
        <ele>240.06911509579</ele>
        <time>2015-09-21T17:17:27Z</time>
      </trkpt>
      <trkpt lat="44.45705" lon="1.6363">
        <ele>241.72752418439</ele>
        <time>2015-09-21T17:17:32Z</time>
      </trkpt>
      <trkpt lat="44.45699" lon="1.63669">
        <ele>243.68159209805</ele>
        <time>2015-09-21T17:17:42Z</time>
      </trkpt>
      <trkpt lat="44.45694" lon="1.63683">
        <ele>245.64769370223</ele>
        <time>2015-09-21T17:17:47Z</time>
      </trkpt>
      <trkpt lat="44.45682" lon="1.63714">
        <ele>247.72328387877</ele>
        <time>2015-09-21T17:17:57Z</time>
      </trkpt>
      <trkpt lat="44.45676" lon="1.63728">
        <ele>249.69572618524</ele>
        <time>2015-09-21T17:18:02Z</time>
      </trkpt>
      <trkpt lat="44.45665" lon="1.63758">
        <ele>251.65653150933</ele>
        <time>2015-09-21T17:18:12Z</time>
      </trkpt>
      <trkpt lat="44.45658" lon="1.6377">
        <ele>253.50319846713</ele>
        <time>2015-09-21T17:18:17Z</time>
      </trkpt>
      <trkpt lat="44.45638" lon="1.63795">
        <ele>255.32844762792</ele>
        <time>2015-09-21T17:18:27Z</time>
      </trkpt>
      <trkpt lat="44.45632" lon="1.63807">
        <ele>257.01652480673</ele>
        <time>2015-09-21T17:18:32Z</time>
      </trkpt>
      <trkpt lat="44.45619" lon="1.63858">
        <ele>258.84969979061</ele>
        <time>2015-09-21T17:18:47Z</time>
      </trkpt>
      <trkpt lat="44.45613" lon="1.63876">
        <ele>260.6423941493</ele>
        <time>2015-09-21T17:18:52Z</time>
      </trkpt>
      <trkpt lat="44.45604" lon="1.63914">
        <ele>262.59750625033</ele>
        <time>2015-09-21T17:19:02Z</time>
      </trkpt>
      <trkpt lat="44.45598" lon="1.6393">
        <ele>264.51351833968</ele>
        <time>2015-09-21T17:19:07Z</time>
      </trkpt>
      <trkpt lat="44.4557" lon="1.6395">
        <ele>267.32794162514</ele>
        <time>2015-09-21T17:19:17Z</time>
      </trkpt>
      <trkpt lat="44.45549" lon="1.63969">
        <ele>270.62436350226</ele>
        <time>2015-09-21T17:19:22Z</time>
      </trkpt>
      <trkpt lat="44.45524" lon="1.63998">
        <ele>273.92920496494</ele>
        <time>2015-09-21T17:19:32Z</time>
      </trkpt>
      <trkpt lat="44.45511" lon="1.64007">
        <ele>276.93342482339</ele>
        <time>2015-09-21T17:19:37Z</time>
      </trkpt>
      <trkpt lat="44.45495" lon="1.64025">
        <ele>279.74070993999</ele>
        <time>2015-09-21T17:19:47Z</time>
      </trkpt>
      <trkpt lat="44.45493" lon="1.64029">
        <ele>279.74070993999</ele>
        <time>2015-09-21T17:19:52Z</time>
      </trkpt>
      <trkpt lat="44.45492" lon="1.64029">
        <ele>279.74070993999</ele>
        <time>2015-09-21T17:20:02Z</time>
      </trkpt>
      <trkpt lat="44.45491" lon="1.6403">
        <ele>279.74070993999</ele>
        <time>2015-09-21T17:20:07Z</time>
      </trkpt>
      <trkpt lat="44.45492" lon="1.64034">
        <ele>279.74070993999</ele>
        <time>2015-09-21T17:20:17Z</time>
      </trkpt>
      <trkpt lat="44.45493" lon="1.64035">
        <ele>282.13072896494</ele>
        <time>2015-09-21T17:20:22Z</time>
      </trkpt>
      <trkpt lat="44.45495" lon="1.64037">
        <ele>282.13072896494</ele>
        <time>2015-09-21T17:20:32Z</time>
      </trkpt>
      <trkpt lat="44.45495" lon="1.64037">
        <ele>282.13072896494</ele>
        <time>2015-09-21T17:20:37Z</time>
      </trkpt>
      <trkpt lat="44.45496" lon="1.64036">
        <ele>282.13072896494</ele>
        <time>2015-09-21T17:20:42Z</time>
      </trkpt>
      <trkpt lat="44.45496" lon="1.64035">
        <ele>282.13072896494</ele>
        <time>2015-09-21T17:20:47Z</time>
      </trkpt>
      <trkpt lat="44.45497" lon="1.64034">
        <ele>282.13072896494</ele>
        <time>2015-09-21T17:20:52Z</time>
      </trkpt>
      <trkpt lat="44.45497" lon="1.64034">
        <ele>282.13072896494</ele>
        <time>2015-09-21T17:20:57Z</time>
      </trkpt>
      <trkpt lat="44.45496" lon="1.64034">
        <ele>282.13072896494</ele>
        <time>2015-09-21T17:21:02Z</time>
      </trkpt>
      <trkpt lat="44.45495" lon="1.64032">
        <ele>282.13072896494</ele>
        <time>2015-09-21T17:21:07Z</time>
      </trkpt>
      <trkpt lat="44.45496" lon="1.64033">
        <ele>282.13072896494</ele>
        <time>2015-09-21T17:21:12Z</time>
      </trkpt>
      <trkpt lat="44.45496" lon="1.64033">
        <ele>283.92942402986</ele>
        <time>2015-09-21T17:21:17Z</time>
      </trkpt>
      <trkpt lat="44.45496" lon="1.64032">
        <ele>283.92942402986</ele>
        <time>2015-09-21T17:21:22Z</time>
      </trkpt>
      <trkpt lat="44.45497" lon="1.64032">
        <ele>283.92942402986</ele>
        <time>2015-09-21T17:21:27Z</time>
      </trkpt>
      <trkpt lat="44.45498" lon="1.64032">
        <ele>283.92942402986</ele>
        <time>2015-09-21T17:21:32Z</time>
      </trkpt>
      <trkpt lat="44.45499" lon="1.64029">
        <ele>283.92942402986</ele>
        <time>2015-09-21T17:21:37Z</time>
      </trkpt>
      <trkpt lat="44.455" lon="1.64027">
        <ele>283.92942402986</ele>
        <time>2015-09-21T17:21:42Z</time>
      </trkpt>
      <trkpt lat="44.455" lon="1.64024">
        <ele>283.92942402986</ele>
        <time>2015-09-21T17:21:47Z</time>
      </trkpt>
      <trkpt lat="44.45501" lon="1.64024">
        <ele>285.56813459944</ele>
        <time>2015-09-21T17:21:52Z</time>
      </trkpt>
      <trkpt lat="44.45504" lon="1.64022">
        <ele>285.56813459944</ele>
        <time>2015-09-21T17:21:57Z</time>
      </trkpt>
      <trkpt lat="44.45505" lon="1.64022">
        <ele>285.56813459944</ele>
        <time>2015-09-21T17:22:02Z</time>
      </trkpt>
      <trkpt lat="44.45504" lon="1.64023">
        <ele>285.56813459944</ele>
        <time>2015-09-21T17:22:07Z</time>
      </trkpt>
      <trkpt lat="44.45502" lon="1.64024">
        <ele>285.56813459944</ele>
        <time>2015-09-21T17:22:12Z</time>
      </trkpt>
      <trkpt lat="44.45499" lon="1.64027">
        <ele>287.17324657137</ele>
        <time>2015-09-21T17:22:17Z</time>
      </trkpt>
      <trkpt lat="44.45497" lon="1.64028">
        <ele>287.17324657137</ele>
        <time>2015-09-21T17:22:22Z</time>
      </trkpt>
      <trkpt lat="44.45496" lon="1.64027">
        <ele>287.17324657137</ele>
        <time>2015-09-21T17:22:27Z</time>
      </trkpt>
      <trkpt lat="44.45496" lon="1.64034">
        <ele>287.17324657137</ele>
        <time>2015-09-21T17:22:37Z</time>
      </trkpt>
      <trkpt lat="44.45495" lon="1.64037">
        <ele>288.73234651424</ele>
        <time>2015-09-21T17:22:42Z</time>
      </trkpt>
      <trkpt lat="44.4549" lon="1.64053">
        <ele>290.27738067901</ele>
        <time>2015-09-21T17:22:52Z</time>
      </trkpt>
      <trkpt lat="44.45487" lon="1.64061">
        <ele>290.27738067901</ele>
        <time>2015-09-21T17:22:57Z</time>
      </trkpt>
      <trkpt lat="44.45482" lon="1.64079">
        <ele>291.82365670099</ele>
        <time>2015-09-21T17:23:07Z</time>
      </trkpt>
      <trkpt lat="44.4548" lon="1.64087">
        <ele>291.82365670099</ele>
        <time>2015-09-21T17:23:12Z</time>
      </trkpt>
      <trkpt lat="44.45474" lon="1.64102">
        <ele>293.25572823119</ele>
        <time>2015-09-21T17:23:22Z</time>
      </trkpt>
      <trkpt lat="44.45471" lon="1.6411">
        <ele>293.25572823119</ele>
        <time>2015-09-21T17:23:27Z</time>
      </trkpt>
      <trkpt lat="44.45463" lon="1.64133">
        <ele>294.69759605924</ele>
        <time>2015-09-21T17:23:42Z</time>
      </trkpt>
      <trkpt lat="44.45461" lon="1.6414">
        <ele>294.69759605924</ele>
        <time>2015-09-21T17:23:47Z</time>
      </trkpt>
      <trkpt lat="44.45458" lon="1.64156">
        <ele>296.26418718825</ele>
        <time>2015-09-21T17:23:57Z</time>
      </trkpt>
      <trkpt lat="44.45458" lon="1.64164">
        <ele>296.26418718825</ele>
        <time>2015-09-21T17:24:02Z</time>
      </trkpt>
      <trkpt lat="44.45457" lon="1.64172">
        <ele>297.85993804469</ele>
        <time>2015-09-21T17:24:12Z</time>
      </trkpt>
      <trkpt lat="44.45457" lon="1.64172">
        <ele>297.85993804469</ele>
        <time>2015-09-21T17:24:17Z</time>
      </trkpt>
      <trkpt lat="44.45458" lon="1.64182">
        <ele>297.85993804469</ele>
        <time>2015-09-21T17:24:27Z</time>
      </trkpt>
      <trkpt lat="44.45457" lon="1.64193">
        <ele>299.36745340601</ele>
        <time>2015-09-21T17:24:32Z</time>
      </trkpt>
      <trkpt lat="44.45457" lon="1.64204">
        <ele>299.36745340601</ele>
        <time>2015-09-21T17:24:42Z</time>
      </trkpt>
      <trkpt lat="44.45455" lon="1.64213">
        <ele>301.06735754787</ele>
        <time>2015-09-21T17:24:47Z</time>
      </trkpt>
      <trkpt lat="44.45452" lon="1.64227">
        <ele>302.75800901643</ele>
        <time>2015-09-21T17:24:57Z</time>
      </trkpt>
      <trkpt lat="44.45451" lon="1.64234">
        <ele>302.75800901643</ele>
        <time>2015-09-21T17:25:02Z</time>
      </trkpt>
      <trkpt lat="44.45447" lon="1.64245">
        <ele>304.75703517344</ele>
        <time>2015-09-21T17:25:12Z</time>
      </trkpt>
      <trkpt lat="44.45444" lon="1.64248">
        <ele>304.75703517344</ele>
        <time>2015-09-21T17:25:17Z</time>
      </trkpt>
      <trkpt lat="44.45445" lon="1.64248">
        <ele>304.75703517344</ele>
        <time>2015-09-21T17:25:27Z</time>
      </trkpt>
      <trkpt lat="44.45445" lon="1.64248">
        <ele>304.75703517344</ele>
        <time>2015-09-21T17:25:32Z</time>
      </trkpt>
      <trkpt lat="44.45443" lon="1.64254">
        <ele>306.96880497583</ele>
        <time>2015-09-21T17:25:42Z</time>
      </trkpt>
      <trkpt lat="44.4544" lon="1.64259">
        <ele>306.96880497583</ele>
        <time>2015-09-21T17:25:47Z</time>
      </trkpt>
      <trkpt lat="44.45433" lon="1.6427">
        <ele>309.27533245972</ele>
        <time>2015-09-21T17:25:57Z</time>
      </trkpt>
      <trkpt lat="44.4543" lon="1.64275">
        <ele>309.27533245972</ele>
        <time>2015-09-21T17:26:02Z</time>
      </trkpt>
      <trkpt lat="44.45421" lon="1.64294">
        <ele>311.86970674462</ele>
        <time>2015-09-21T17:26:17Z</time>
      </trkpt>
      <trkpt lat="44.45419" lon="1.64298">
        <ele>311.86970674462</ele>
        <time>2015-09-21T17:26:22Z</time>
      </trkpt>
      <trkpt lat="44.45413" lon="1.64307">
        <ele>314.4545010233</ele>
        <time>2015-09-21T17:26:32Z</time>
      </trkpt>
      <trkpt lat="44.45411" lon="1.64309">
        <ele>314.4545010233</ele>
        <time>2015-09-21T17:26:37Z</time>
      </trkpt>
      <trkpt lat="44.45402" lon="1.64325">
        <ele>316.92714310015</ele>
        <time>2015-09-21T17:26:47Z</time>
      </trkpt>
      <trkpt lat="44.45396" lon="1.64336">
        <ele>319.17854741041</ele>
        <time>2015-09-21T17:26:52Z</time>
      </trkpt>
      <trkpt lat="44.45384" lon="1.64357">
        <ele>321.35330166054</ele>
        <time>2015-09-21T17:27:02Z</time>
      </trkpt>
      <trkpt lat="44.45377" lon="1.64369">
        <ele>323.31182690408</ele>
        <time>2015-09-21T17:27:07Z</time>
      </trkpt>
      <trkpt lat="44.45363" lon="1.64398">
        <ele>325.14162089616</ele>
        <time>2015-09-21T17:27:17Z</time>
      </trkpt>
      <trkpt lat="44.45357" lon="1.64412">
        <ele>326.78005142503</ele>
        <time>2015-09-21T17:27:22Z</time>
      </trkpt>
      <trkpt lat="44.45348" lon="1.64438">
        <ele>328.38583493857</ele>
        <time>2015-09-21T17:27:32Z</time>
      </trkpt>
      <trkpt lat="44.45344" lon="1.64447">
        <ele>328.38583493857</ele>
        <time>2015-09-21T17:27:37Z</time>
      </trkpt>
      <trkpt lat="44.45336" lon="1.64467">
        <ele>329.99087116215</ele>
        <time>2015-09-21T17:27:47Z</time>
      </trkpt>
      <trkpt lat="44.45329" lon="1.64475">
        <ele>329.99087116215</ele>
        <time>2015-09-21T17:27:52Z</time>
      </trkpt>
      <trkpt lat="44.45317" lon="1.64489">
        <ele>331.65357603248</ele>
        <time>2015-09-21T17:28:02Z</time>
      </trkpt>
      <trkpt lat="44.45311" lon="1.64497">
        <ele>331.65357603248</ele>
        <time>2015-09-21T17:28:07Z</time>
      </trkpt>
      <trkpt lat="44.45292" lon="1.64512">
        <ele>333.5576435652</ele>
        <time>2015-09-21T17:28:22Z</time>
      </trkpt>
      <trkpt lat="44.45287" lon="1.64519">
        <ele>333.5576435652</ele>
        <time>2015-09-21T17:28:27Z</time>
      </trkpt>
      <trkpt lat="44.4528" lon="1.64524">
        <ele>335.55557964595</ele>
        <time>2015-09-21T17:28:37Z</time>
      </trkpt>
      <trkpt lat="44.45276" lon="1.64526">
        <ele>335.55557964595</ele>
        <time>2015-09-21T17:28:42Z</time>
      </trkpt>
      <trkpt lat="44.45267" lon="1.64526">
        <ele>337.65459808007</ele>
        <time>2015-09-21T17:28:52Z</time>
      </trkpt>
      <trkpt lat="44.45263" lon="1.64526">
        <ele>337.65459808007</ele>
        <time>2015-09-21T17:28:57Z</time>
      </trkpt>
      <trkpt lat="44.45255" lon="1.64524">
        <ele>339.74583414624</ele>
        <time>2015-09-21T17:29:07Z</time>
      </trkpt>
      <trkpt lat="44.45251" lon="1.64523">
        <ele>339.74583414624</ele>
        <time>2015-09-21T17:29:12Z</time>
      </trkpt>
      <trkpt lat="44.45242" lon="1.64524">
        <ele>341.93022116951</ele>
        <time>2015-09-21T17:29:22Z</time>
      </trkpt>
      <trkpt lat="44.45237" lon="1.64523">
        <ele>341.93022116951</ele>
        <time>2015-09-21T17:29:27Z</time>
      </trkpt>
      <trkpt lat="44.45228" lon="1.64522">
        <ele>344.07046210627</ele>
        <time>2015-09-21T17:29:37Z</time>
      </trkpt>
      <trkpt lat="44.45224" lon="1.64523">
        <ele>344.07046210627</ele>
        <time>2015-09-21T17:29:42Z</time>
      </trkpt>
      <trkpt lat="44.45215" lon="1.64523">
        <ele>346.16919287657</ele>
        <time>2015-09-21T17:29:52Z</time>
      </trkpt>
      <trkpt lat="44.45211" lon="1.64523">
        <ele>346.16919287657</ele>
        <time>2015-09-21T17:29:57Z</time>
      </trkpt>
      <trkpt lat="44.45201" lon="1.64524">
        <ele>348.14252856157</ele>
        <time>2015-09-21T17:30:07Z</time>
      </trkpt>
      <trkpt lat="44.452" lon="1.64523">
        <ele>348.14252856157</ele>
        <time>2015-09-21T17:30:12Z</time>
      </trkpt>
      <trkpt lat="44.452" lon="1.64524">
        <ele>348.14252856157</ele>
        <time>2015-09-21T17:30:22Z</time>
      </trkpt>
      <trkpt lat="44.45199" lon="1.64524">
        <ele>348.14252856157</ele>
        <time>2015-09-21T17:30:27Z</time>
      </trkpt>
      <trkpt lat="44.45199" lon="1.64526">
        <ele>348.14252856157</ele>
        <time>2015-09-21T17:30:37Z</time>
      </trkpt>
      <trkpt lat="44.45198" lon="1.64527">
        <ele>348.14252856157</ele>
        <time>2015-09-21T17:30:42Z</time>
      </trkpt>
      <trkpt lat="44.45197" lon="1.64522">
        <ele>349.88429802975</ele>
        <time>2015-09-21T17:30:57Z</time>
      </trkpt>
      <trkpt lat="44.45197" lon="1.64519">
        <ele>349.88429802975</ele>
        <time>2015-09-21T17:31:02Z</time>
      </trkpt>
      <trkpt lat="44.45199" lon="1.64518">
        <ele>349.88429802975</ele>
        <time>2015-09-21T17:31:12Z</time>
      </trkpt>
      <trkpt lat="44.45198" lon="1.64521">
        <ele>349.88429802975</ele>
        <time>2015-09-21T17:31:17Z</time>
      </trkpt>
      <trkpt lat="44.45198" lon="1.64523">
        <ele>349.88429802975</ele>
        <time>2015-09-21T17:31:27Z</time>
      </trkpt>
      <trkpt lat="44.45198" lon="1.64522">
        <ele>349.88429802975</ele>
        <time>2015-09-21T17:31:32Z</time>
      </trkpt>
      <trkpt lat="44.45193" lon="1.64522">
        <ele>351.38326578194</ele>
        <time>2015-09-21T17:31:42Z</time>
      </trkpt>
      <trkpt lat="44.45187" lon="1.64519">
        <ele>351.38326578194</ele>
        <time>2015-09-21T17:31:47Z</time>
      </trkpt>
      <trkpt lat="44.45181" lon="1.64502">
        <ele>352.93235331781</ele>
        <time>2015-09-21T17:31:57Z</time>
      </trkpt>
      <trkpt lat="44.4518" lon="1.64483">
        <ele>354.32726976854</ele>
        <time>2015-09-21T17:32:02Z</time>
      </trkpt>
      <trkpt lat="44.45179" lon="1.64435">
        <ele>355.60974967357</ele>
        <time>2015-09-21T17:32:12Z</time>
      </trkpt>
      <trkpt lat="44.4518" lon="1.64415">
        <ele>356.71790172784</ele>
        <time>2015-09-21T17:32:17Z</time>
      </trkpt>
      <trkpt lat="44.45184" lon="1.64356">
        <ele>358.21454531285</ele>
        <time>2015-09-21T17:32:27Z</time>
      </trkpt>
      <trkpt lat="44.45183" lon="1.64323">
        <ele>359.49599017065</ele>
        <time>2015-09-21T17:32:32Z</time>
      </trkpt>
      <trkpt lat="44.45175" lon="1.64251">
        <ele>360.55110517799</ele>
        <time>2015-09-21T17:32:42Z</time>
      </trkpt>
      <trkpt lat="44.45168" lon="1.64214">
        <ele>361.42783709601</ele>
        <time>2015-09-21T17:32:47Z</time>
      </trkpt>
      <trkpt lat="44.4514" lon="1.64092">
        <ele>361.79639625954</ele>
        <time>2015-09-21T17:33:02Z</time>
      </trkpt>
      <trkpt lat="44.45131" lon="1.64053">
        <ele>362.04434475267</ele>
        <time>2015-09-21T17:33:07Z</time>
      </trkpt>
      <trkpt lat="44.45114" lon="1.63979">
        <ele>362.55989296898</ele>
        <time>2015-09-21T17:33:17Z</time>
      </trkpt>
      <trkpt lat="44.4511" lon="1.63944">
        <ele>363.13989830158</ele>
        <time>2015-09-21T17:33:22Z</time>
      </trkpt>
      <trkpt lat="44.45135" lon="1.63895">
        <ele>363.76883417416</ele>
        <time>2015-09-21T17:33:32Z</time>
      </trkpt>
      <trkpt lat="44.45155" lon="1.6388">
        <ele>364.23035524883</ele>
        <time>2015-09-21T17:33:37Z</time>
      </trkpt>
      <trkpt lat="44.45192" lon="1.63841">
        <ele>365.01614012481</ele>
        <time>2015-09-21T17:33:47Z</time>
      </trkpt>
      <trkpt lat="44.45206" lon="1.63816">
        <ele>365.7449179851</ele>
        <time>2015-09-21T17:33:52Z</time>
      </trkpt>
      <trkpt lat="44.45233" lon="1.63752">
        <ele>366.43819450947</ele>
        <time>2015-09-21T17:34:02Z</time>
      </trkpt>
      <trkpt lat="44.45243" lon="1.63713">
        <ele>366.89974460882</ele>
        <time>2015-09-21T17:34:07Z</time>
      </trkpt>
      <trkpt lat="44.45264" lon="1.63628">
        <ele>366.70333092093</ele>
        <time>2015-09-21T17:34:17Z</time>
      </trkpt>
      <trkpt lat="44.45273" lon="1.63586">
        <ele>366.04663502153</ele>
        <time>2015-09-21T17:34:22Z</time>
      </trkpt>
      <trkpt lat="44.45292" lon="1.63508">
        <ele>364.8690168847</ele>
        <time>2015-09-21T17:34:32Z</time>
      </trkpt>
      <trkpt lat="44.45305" lon="1.63466">
        <ele>363.77855083482</ele>
        <time>2015-09-21T17:34:37Z</time>
      </trkpt>
      <trkpt lat="44.4533" lon="1.63392">
        <ele>362.94917301969</ele>
        <time>2015-09-21T17:34:47Z</time>
      </trkpt>
      <trkpt lat="44.45344" lon="1.63356">
        <ele>362.152073384</ele>
        <time>2015-09-21T17:34:52Z</time>
      </trkpt>
      <trkpt lat="44.45368" lon="1.63288">
        <ele>361.50646887016</ele>
        <time>2015-09-21T17:35:02Z</time>
      </trkpt>
      <trkpt lat="44.45379" lon="1.63254">
        <ele>360.92048401248</ele>
        <time>2015-09-21T17:35:07Z</time>
      </trkpt>
      <trkpt lat="44.454" lon="1.63182">
        <ele>360.00603109063</ele>
        <time>2015-09-21T17:35:17Z</time>
      </trkpt>
      <trkpt lat="44.45411" lon="1.63144">
        <ele>358.98073084832</ele>
        <time>2015-09-21T17:35:22Z</time>
      </trkpt>
      <trkpt lat="44.45444" lon="1.63028">
        <ele>357.67166758358</ele>
        <time>2015-09-21T17:35:37Z</time>
      </trkpt>
      <trkpt lat="44.45453" lon="1.62995">
        <ele>356.38040164548</ele>
        <time>2015-09-21T17:35:42Z</time>
      </trkpt>
      <trkpt lat="44.45472" lon="1.62932">
        <ele>355.48698534919</ele>
        <time>2015-09-21T17:35:52Z</time>
      </trkpt>
      <trkpt lat="44.4548" lon="1.62901">
        <ele>354.85227086608</ele>
        <time>2015-09-21T17:35:57Z</time>
      </trkpt>
      <trkpt lat="44.45498" lon="1.62838">
        <ele>354.54817239453</ele>
        <time>2015-09-21T17:36:07Z</time>
      </trkpt>
      <trkpt lat="44.45507" lon="1.62806">
        <ele>354.29433817799</ele>
        <time>2015-09-21T17:36:12Z</time>
      </trkpt>
      <trkpt lat="44.45526" lon="1.62741">
        <ele>353.85950594957</ele>
        <time>2015-09-21T17:36:22Z</time>
      </trkpt>
      <trkpt lat="44.45535" lon="1.62708">
        <ele>353.5341165673</ele>
        <time>2015-09-21T17:36:27Z</time>
      </trkpt>
      <trkpt lat="44.45555" lon="1.62635">
        <ele>353.48591349269</ele>
        <time>2015-09-21T17:36:37Z</time>
      </trkpt>
      <trkpt lat="44.45567" lon="1.62597">
        <ele>353.42262427559</ele>
        <time>2015-09-21T17:36:42Z</time>
      </trkpt>
      <trkpt lat="44.45591" lon="1.62522">
        <ele>352.90038957304</ele>
        <time>2015-09-21T17:36:52Z</time>
      </trkpt>
      <trkpt lat="44.45599" lon="1.62482">
        <ele>352.28728286957</ele>
        <time>2015-09-21T17:36:57Z</time>
      </trkpt>
      <trkpt lat="44.45595" lon="1.624">
        <ele>351.37681530245</ele>
        <time>2015-09-21T17:37:07Z</time>
      </trkpt>
      <trkpt lat="44.45589" lon="1.62363">
        <ele>350.42509176348</ele>
        <time>2015-09-21T17:37:12Z</time>
      </trkpt>
      <trkpt lat="44.45575" lon="1.62291">
        <ele>349.75583471855</ele>
        <time>2015-09-21T17:37:22Z</time>
      </trkpt>
      <trkpt lat="44.45568" lon="1.62249">
        <ele>349.0915994971</ele>
        <time>2015-09-21T17:37:27Z</time>
      </trkpt>
      <trkpt lat="44.45545" lon="1.6212">
        <ele>347.90134887205</ele>
        <time>2015-09-21T17:37:42Z</time>
      </trkpt>
      <trkpt lat="44.45538" lon="1.62083">
        <ele>346.73198477003</ele>
        <time>2015-09-21T17:37:47Z</time>
      </trkpt>
      <trkpt lat="44.45523" lon="1.62001">
        <ele>345.49917426021</ele>
        <time>2015-09-21T17:37:57Z</time>
      </trkpt>
      <trkpt lat="44.45513" lon="1.6196">
        <ele>344.13922338802</ele>
        <time>2015-09-21T17:38:02Z</time>
      </trkpt>
      <trkpt lat="44.45491" lon="1.61891">
        <ele>342.72302822696</ele>
        <time>2015-09-21T17:38:12Z</time>
      </trkpt>
      <trkpt lat="44.45487" lon="1.61856">
        <ele>341.43157779407</ele>
        <time>2015-09-21T17:38:17Z</time>
      </trkpt>
      <trkpt lat="44.45487" lon="1.61776">
        <ele>340.18708111254</ele>
        <time>2015-09-21T17:38:27Z</time>
      </trkpt>
      <trkpt lat="44.4548" lon="1.61738">
        <ele>338.90277360162</ele>
        <time>2015-09-21T17:38:32Z</time>
      </trkpt>
      <trkpt lat="44.45477" lon="1.61731">
        <ele>338.90277360162</ele>
        <time>2015-09-21T17:38:42Z</time>
      </trkpt>
      <trkpt lat="44.45459" lon="1.61702">
        <ele>337.77204336234</ele>
        <time>2015-09-21T17:39:27Z</time>
      </trkpt>
      <trkpt lat="44.45446" lon="1.61671">
        <ele>336.87262226069</ele>
        <time>2015-09-21T17:39:32Z</time>
      </trkpt>
      <trkpt lat="44.45414" lon="1.61598">
        <ele>335.95870045864</ele>
        <time>2015-09-21T17:39:42Z</time>
      </trkpt>
      <trkpt lat="44.45396" lon="1.6156">
        <ele>334.88889833903</ele>
        <time>2015-09-21T17:39:47Z</time>
      </trkpt>
      <trkpt lat="44.45363" lon="1.61485">
        <ele>333.92162980754</ele>
        <time>2015-09-21T17:39:57Z</time>
      </trkpt>
      <trkpt lat="44.45344" lon="1.61452">
        <ele>332.9068131516</ele>
        <time>2015-09-21T17:40:02Z</time>
      </trkpt>
      <trkpt lat="44.453" lon="1.61398">
        <ele>332.13773850843</ele>
        <time>2015-09-21T17:40:12Z</time>
      </trkpt>
      <trkpt lat="44.45282" lon="1.61367">
        <ele>331.68359183674</ele>
        <time>2015-09-21T17:40:17Z</time>
      </trkpt>
      <trkpt lat="44.45255" lon="1.61308">
        <ele>331.40573028592</ele>
        <time>2015-09-21T17:40:27Z</time>
      </trkpt>
      <trkpt lat="44.45238" lon="1.61283">
        <ele>331.08863498101</ele>
        <time>2015-09-21T17:40:32Z</time>
      </trkpt>
      <trkpt lat="44.45167" lon="1.61246">
        <ele>330.96497232289</ele>
        <time>2015-09-21T17:40:47Z</time>
      </trkpt>
      <trkpt lat="44.45143" lon="1.61229">
        <ele>330.97588314713</ele>
        <time>2015-09-21T17:40:52Z</time>
      </trkpt>
      <trkpt lat="44.4511" lon="1.61172">
        <ele>331.21049612919</ele>
        <time>2015-09-21T17:41:02Z</time>
      </trkpt>
      <trkpt lat="44.45095" lon="1.61144">
        <ele>331.44807296065</ele>
        <time>2015-09-21T17:41:07Z</time>
      </trkpt>
      <trkpt lat="44.45065" lon="1.61091">
        <ele>331.90195770444</ele>
        <time>2015-09-21T17:41:17Z</time>
      </trkpt>
      <trkpt lat="44.45047" lon="1.61067">
        <ele>332.42331362051</ele>
        <time>2015-09-21T17:41:22Z</time>
      </trkpt>
      <trkpt lat="44.44999" lon="1.61043">
        <ele>333.11901434983</ele>
        <time>2015-09-21T17:41:32Z</time>
      </trkpt>
      <trkpt lat="44.44974" lon="1.61035">
        <ele>333.9002386389</ele>
        <time>2015-09-21T17:41:37Z</time>
      </trkpt>
      <trkpt lat="44.44922" lon="1.61017">
        <ele>335.14560855825</ele>
        <time>2015-09-21T17:41:47Z</time>
      </trkpt>
      <trkpt lat="44.44898" lon="1.61007">
        <ele>336.21027954092</ele>
        <time>2015-09-21T17:41:52Z</time>
      </trkpt>
      <trkpt lat="44.44851" lon="1.60979">
        <ele>337.4772691055</ele>
        <time>2015-09-21T17:42:02Z</time>
      </trkpt>
      <trkpt lat="44.44829" lon="1.60957">
        <ele>338.66684436236</ele>
        <time>2015-09-21T17:42:07Z</time>
      </trkpt>
      <trkpt lat="44.44781" lon="1.60926">
        <ele>339.64979346644</ele>
        <time>2015-09-21T17:42:17Z</time>
      </trkpt>
      <trkpt lat="44.44755" lon="1.60912">
        <ele>340.88348685985</ele>
        <time>2015-09-21T17:42:22Z</time>
      </trkpt>
      <trkpt lat="44.44684" lon="1.60879">
        <ele>342.1858030805</ele>
        <time>2015-09-21T17:42:37Z</time>
      </trkpt>
      <trkpt lat="44.4466" lon="1.60866">
        <ele>343.35907029502</ele>
        <time>2015-09-21T17:42:42Z</time>
      </trkpt>
      <trkpt lat="44.44618" lon="1.60834">
        <ele>344.46558273205</ele>
        <time>2015-09-21T17:42:52Z</time>
      </trkpt>
      <trkpt lat="44.44599" lon="1.60812">
        <ele>345.5777586852</ele>
        <time>2015-09-21T17:42:57Z</time>
      </trkpt>
      <trkpt lat="44.44568" lon="1.60758">
        <ele>346.70514449122</ele>
        <time>2015-09-21T17:43:07Z</time>
      </trkpt>
      <trkpt lat="44.44558" lon="1.60726">
        <ele>347.79901155884</ele>
        <time>2015-09-21T17:43:12Z</time>
      </trkpt>
      <trkpt lat="44.44539" lon="1.60665">
        <ele>349.03058979821</ele>
        <time>2015-09-21T17:43:22Z</time>
      </trkpt>
      <trkpt lat="44.44525" lon="1.60641">
        <ele>350.05387716661</ele>
        <time>2015-09-21T17:43:27Z</time>
      </trkpt>
      <trkpt lat="44.44478" lon="1.60618">
        <ele>350.8372199137</ele>
        <time>2015-09-21T17:43:37Z</time>
      </trkpt>
      <trkpt lat="44.4445" lon="1.60618">
        <ele>351.84206709421</ele>
        <time>2015-09-21T17:43:42Z</time>
      </trkpt>
      <trkpt lat="44.44404" lon="1.60638">
        <ele>352.77492006956</ele>
        <time>2015-09-21T17:43:52Z</time>
      </trkpt>
      <trkpt lat="44.44381" lon="1.60654">
        <ele>353.71003649954</ele>
        <time>2015-09-21T17:43:57Z</time>
      </trkpt>
      <trkpt lat="44.44332" lon="1.6068">
        <ele>354.62987292117</ele>
        <time>2015-09-21T17:44:07Z</time>
      </trkpt>
      <trkpt lat="44.44305" lon="1.60692">
        <ele>355.44628790287</ele>
        <time>2015-09-21T17:44:12Z</time>
      </trkpt>
      <trkpt lat="44.44228" lon="1.60719">
        <ele>356.36625207382</ele>
        <time>2015-09-21T17:44:27Z</time>
      </trkpt>
      <trkpt lat="44.44204" lon="1.60726">
        <ele>357.17785334466</ele>
        <time>2015-09-21T17:44:32Z</time>
      </trkpt>
      <trkpt lat="44.44156" lon="1.60719">
        <ele>357.65634851391</ele>
        <time>2015-09-21T17:44:42Z</time>
      </trkpt>
      <trkpt lat="44.44149" lon="1.60713">
        <ele>357.65634851391</ele>
        <time>2015-09-21T17:44:47Z</time>
      </trkpt>
      <trkpt lat="44.44115" lon="1.60695">
        <ele>358.41598913992</ele>
        <time>2015-09-21T17:44:57Z</time>
      </trkpt>
      <trkpt lat="44.44092" lon="1.60681">
        <ele>359.05968410284</ele>
        <time>2015-09-21T17:45:02Z</time>
      </trkpt>
      <trkpt lat="44.44045" lon="1.60655">
        <ele>359.58022451895</ele>
        <time>2015-09-21T17:45:12Z</time>
      </trkpt>
      <trkpt lat="44.44019" lon="1.6064">
        <ele>359.81285804086</ele>
        <time>2015-09-21T17:45:17Z</time>
      </trkpt>
      <trkpt lat="44.43973" lon="1.60611">
        <ele>359.89406282992</ele>
        <time>2015-09-21T17:45:27Z</time>
      </trkpt>
      <trkpt lat="44.43955" lon="1.60582">
        <ele>359.86434033303</ele>
        <time>2015-09-21T17:45:32Z</time>
      </trkpt>
      <trkpt lat="44.43944" lon="1.60507">
        <ele>360.15071140964</ele>
        <time>2015-09-21T17:45:42Z</time>
      </trkpt>
      <trkpt lat="44.43947" lon="1.60468">
        <ele>360.41305010841</ele>
        <time>2015-09-21T17:45:47Z</time>
      </trkpt>
      <trkpt lat="44.43955" lon="1.60395">
        <ele>360.3219400272</ele>
        <time>2015-09-21T17:45:57Z</time>
      </trkpt>
      <trkpt lat="44.43954" lon="1.60358">
        <ele>360.09201534488</ele>
        <time>2015-09-21T17:46:02Z</time>
      </trkpt>
      <trkpt lat="44.43937" lon="1.60291">
        <ele>359.85052946461</ele>
        <time>2015-09-21T17:46:12Z</time>
      </trkpt>
      <trkpt lat="44.43934" lon="1.60269">
        <ele>359.62899746339</ele>
        <time>2015-09-21T17:46:17Z</time>
      </trkpt>
      <trkpt lat="44.43934" lon="1.6027">
        <ele>359.62899746339</ele>
        <time>2015-09-21T17:46:32Z</time>
      </trkpt>
      <trkpt lat="44.43933" lon="1.60269">
        <ele>359.62899746339</ele>
        <time>2015-09-21T17:46:37Z</time>
      </trkpt>
      <trkpt lat="44.43932" lon="1.60268">
        <ele>359.62899746339</ele>
        <time>2015-09-21T17:46:42Z</time>
      </trkpt>
      <trkpt lat="44.43938" lon="1.60264">
        <ele>359.49983213672</ele>
        <time>2015-09-21T17:46:47Z</time>
      </trkpt>
      <trkpt lat="44.43975" lon="1.60302">
        <ele>359.27049492849</ele>
        <time>2015-09-21T17:46:57Z</time>
      </trkpt>
      <trkpt lat="44.43981" lon="1.60344">
        <ele>358.92141386419</ele>
        <time>2015-09-21T17:47:02Z</time>
      </trkpt>
      <trkpt lat="44.43988" lon="1.60429">
        <ele>358.20422427158</ele>
        <time>2015-09-21T17:47:12Z</time>
      </trkpt>
      <trkpt lat="44.4399" lon="1.60471">
        <ele>357.48069788222</ele>
        <time>2015-09-21T17:47:17Z</time>
      </trkpt>
      <trkpt lat="44.4403" lon="1.6054">
        <ele>355.80345208934</ele>
        <time>2015-09-21T17:47:27Z</time>
      </trkpt>
      <trkpt lat="44.44074" lon="1.60535">
        <ele>353.94022188972</ele>
        <time>2015-09-21T17:47:32Z</time>
      </trkpt>
      <trkpt lat="44.44164" lon="1.60509">
        <ele>351.3922984677</ele>
        <time>2015-09-21T17:47:42Z</time>
      </trkpt>
      <trkpt lat="44.44211" lon="1.60493">
        <ele>348.7226662847</ele>
        <time>2015-09-21T17:47:47Z</time>
      </trkpt>
      <trkpt lat="44.44271" lon="1.60566">
        <ele>345.41562258591</ele>
        <time>2015-09-21T17:47:57Z</time>
      </trkpt>
      <trkpt lat="44.44306" lon="1.60574">
        <ele>342.01823226834</ele>
        <time>2015-09-21T17:48:02Z</time>
      </trkpt>
      <trkpt lat="44.44365" lon="1.60498">
        <ele>338.67723387059</ele>
        <time>2015-09-21T17:48:12Z</time>
      </trkpt>
      <trkpt lat="44.44382" lon="1.60446">
        <ele>335.26889198719</ele>
        <time>2015-09-21T17:48:17Z</time>
      </trkpt>
      <trkpt lat="44.44441" lon="1.60369">
        <ele>331.30390287398</ele>
        <time>2015-09-21T17:48:27Z</time>
      </trkpt>
      <trkpt lat="44.44479" lon="1.60349">
        <ele>327.62729134102</ele>
        <time>2015-09-21T17:48:32Z</time>
      </trkpt>
      <trkpt lat="44.44585" lon="1.60383">
        <ele>323.19078909225</ele>
        <time>2015-09-21T17:48:47Z</time>
      </trkpt>
      <trkpt lat="44.44616" lon="1.6042">
        <ele>318.56703726521</ele>
        <time>2015-09-21T17:48:52Z</time>
      </trkpt>
      <trkpt lat="44.44657" lon="1.60349">
        <ele>314.17161143424</ele>
        <time>2015-09-21T17:49:02Z</time>
      </trkpt>
      <trkpt lat="44.44665" lon="1.6029">
        <ele>309.52399710636</ele>
        <time>2015-09-21T17:49:07Z</time>
      </trkpt>
      <trkpt lat="44.44672" lon="1.60168">
        <ele>303.97765610146</ele>
        <time>2015-09-21T17:49:17Z</time>
      </trkpt>
      <trkpt lat="44.44674" lon="1.6011">
        <ele>298.70834129818</ele>
        <time>2015-09-21T17:49:22Z</time>
      </trkpt>
      <trkpt lat="44.4471" lon="1.60008">
        <ele>293.72351588325</ele>
        <time>2015-09-21T17:49:32Z</time>
      </trkpt>
      <trkpt lat="44.44743" lon="1.59966">
        <ele>288.84162784988</ele>
        <time>2015-09-21T17:49:37Z</time>
      </trkpt>
      <trkpt lat="44.4481" lon="1.59895">
        <ele>283.85060178625</ele>
        <time>2015-09-21T17:49:47Z</time>
      </trkpt>
      <trkpt lat="44.44845" lon="1.59863">
        <ele>279.10152168533</ele>
        <time>2015-09-21T17:49:52Z</time>
      </trkpt>
      <trkpt lat="44.44916" lon="1.59823">
        <ele>274.50072451398</ele>
        <time>2015-09-21T17:50:02Z</time>
      </trkpt>
      <trkpt lat="44.44957" lon="1.59821">
        <ele>270.09035147821</ele>
        <time>2015-09-21T17:50:07Z</time>
      </trkpt>
      <trkpt lat="44.45031" lon="1.59789">
        <ele>265.27446139137</ele>
        <time>2015-09-21T17:50:17Z</time>
      </trkpt>
      <trkpt lat="44.45061" lon="1.59751">
        <ele>260.8418979494</ele>
        <time>2015-09-21T17:50:22Z</time>
      </trkpt>
      <trkpt lat="44.45131" lon="1.59687">
        <ele>256.00895027337</ele>
        <time>2015-09-21T17:50:32Z</time>
      </trkpt>
      <trkpt lat="44.45165" lon="1.5966">
        <ele>251.49135070679</ele>
        <time>2015-09-21T17:50:37Z</time>
      </trkpt>
      <trkpt lat="44.45239" lon="1.59664">
        <ele>246.92781994181</ele>
        <time>2015-09-21T17:50:47Z</time>
      </trkpt>
      <trkpt lat="44.45263" lon="1.59702">
        <ele>242.25720083898</ele>
        <time>2015-09-21T17:50:52Z</time>
      </trkpt>
      <trkpt lat="44.45331" lon="1.5967">
        <ele>237.45159784354</ele>
        <time>2015-09-21T17:51:02Z</time>
      </trkpt>
      <trkpt lat="44.45368" lon="1.59641">
        <ele>233.01840595661</ele>
        <time>2015-09-21T17:51:07Z</time>
      </trkpt>
      <trkpt lat="44.45432" lon="1.596">
        <ele>228.86432646144</ele>
        <time>2015-09-21T17:51:17Z</time>
      </trkpt>
      <trkpt lat="44.45432" lon="1.59558">
        <ele>224.6279848615</ele>
        <time>2015-09-21T17:51:22Z</time>
      </trkpt>
      <trkpt lat="44.45381" lon="1.59495">
        <ele>220.14739027371</ele>
        <time>2015-09-21T17:51:32Z</time>
      </trkpt>
      <trkpt lat="44.45363" lon="1.59447">
        <ele>216.05102007055</ele>
        <time>2015-09-21T17:51:37Z</time>
      </trkpt>
      <trkpt lat="44.4542" lon="1.59291">
        <ele>211.65162073598</ele>
        <time>2015-09-21T17:51:52Z</time>
      </trkpt>
      <trkpt lat="44.45456" lon="1.59254">
        <ele>207.75408921933</ele>
        <time>2015-09-21T17:51:57Z</time>
      </trkpt>
      <trkpt lat="44.45542" lon="1.59201">
        <ele>203.73344573057</ele>
        <time>2015-09-21T17:52:07Z</time>
      </trkpt>
      <trkpt lat="44.4559" lon="1.59198">
        <ele>200.10593834977</ele>
        <time>2015-09-21T17:52:12Z</time>
      </trkpt>
      <trkpt lat="44.45663" lon="1.59264">
        <ele>195.67683832</ele>
        <time>2015-09-21T17:52:22Z</time>
      </trkpt>
      <trkpt lat="44.4569" lon="1.59281">
        <ele>191.47402605923</ele>
        <time>2015-09-21T17:52:27Z</time>
      </trkpt>
      <trkpt lat="44.45749" lon="1.59225">
        <ele>187.41140205266</ele>
        <time>2015-09-21T17:52:37Z</time>
      </trkpt>
      <trkpt lat="44.4578" lon="1.59191">
        <ele>183.65356165803</ele>
        <time>2015-09-21T17:52:42Z</time>
      </trkpt>
      <trkpt lat="44.4586" lon="1.59129">
        <ele>179.77549504843</ele>
        <time>2015-09-21T17:52:52Z</time>
      </trkpt>
      <trkpt lat="44.45902" lon="1.591">
        <ele>176.14733789711</ele>
        <time>2015-09-21T17:52:57Z</time>
      </trkpt>
      <trkpt lat="44.45985" lon="1.59072">
        <ele>171.85737768628</ele>
        <time>2015-09-21T17:53:07Z</time>
      </trkpt>
      <trkpt lat="44.46026" lon="1.59075">
        <ele>167.92158832551</ele>
        <time>2015-09-21T17:53:12Z</time>
      </trkpt>
      <trkpt lat="44.46114" lon="1.59094">
        <ele>163.89668299005</ele>
        <time>2015-09-21T17:53:22Z</time>
      </trkpt>
      <trkpt lat="44.46158" lon="1.59095">
        <ele>160.1790545789</ele>
        <time>2015-09-21T17:53:27Z</time>
      </trkpt>
      <trkpt lat="44.46249" lon="1.59099">
        <ele>156.34235761279</ele>
        <time>2015-09-21T17:53:37Z</time>
      </trkpt>
      <trkpt lat="44.46284" lon="1.59096">
        <ele>152.78437611565</ele>
        <time>2015-09-21T17:53:42Z</time>
      </trkpt>
      <trkpt lat="44.46345" lon="1.59083">
        <ele>149.38278986059</ele>
        <time>2015-09-21T17:53:52Z</time>
      </trkpt>
      <trkpt lat="44.46383" lon="1.59077">
        <ele>146.23988128306</ele>
        <time>2015-09-21T17:53:57Z</time>
      </trkpt>
      <trkpt lat="44.4642" lon="1.59012">
        <ele>142.78668365922</ele>
        <time>2015-09-21T17:54:07Z</time>
      </trkpt>
      <trkpt lat="44.46436" lon="1.58955">
        <ele>139.30383320536</ele>
        <time>2015-09-21T17:54:12Z</time>
      </trkpt>
      <trkpt lat="44.46532" lon="1.58796">
        <ele>134.22114521816</ele>
        <time>2015-09-21T17:54:27Z</time>
      </trkpt>
      <trkpt lat="44.46603" lon="1.58667">
        <ele>129.50363237127</ele>
        <time>2015-09-21T17:54:42Z</time>
      </trkpt>
      <trkpt lat="44.46626" lon="1.58644">
        <ele>125.60181264428</ele>
        <time>2015-09-21T17:54:47Z</time>
      </trkpt>
      <trkpt lat="44.46663" lon="1.58593">
        <ele>122.25343701916</ele>
        <time>2015-09-21T17:54:57Z</time>
      </trkpt>
      <trkpt lat="44.46679" lon="1.58564">
        <ele>119.58860221084</ele>
        <time>2015-09-21T17:55:02Z</time>
      </trkpt>
      <trkpt lat="44.46714" lon="1.58502">
        <ele>117.3367857221</ele>
        <time>2015-09-21T17:55:12Z</time>
      </trkpt>
      <trkpt lat="44.46735" lon="1.58478">
        <ele>115.51996028925</ele>
        <time>2015-09-21T17:55:17Z</time>
      </trkpt>
      <trkpt lat="44.46774" lon="1.58424">
        <ele>114.4598866948</ele>
        <time>2015-09-21T17:55:27Z</time>
      </trkpt>
      <trkpt lat="44.46797" lon="1.58413">
        <ele>113.5302652044</ele>
        <time>2015-09-21T17:55:32Z</time>
      </trkpt>
      <trkpt lat="44.46836" lon="1.5845">
        <ele>112.98631614199</ele>
        <time>2015-09-21T17:55:42Z</time>
      </trkpt>
      <trkpt lat="44.46851" lon="1.58472">
        <ele>112.93378843244</ele>
        <time>2015-09-21T17:55:47Z</time>
      </trkpt>
      <trkpt lat="44.46876" lon="1.5851">
        <ele>113.7287705561</ele>
        <time>2015-09-21T17:55:57Z</time>
      </trkpt>
      <trkpt lat="44.46889" lon="1.58532">
        <ele>114.57486283517</ele>
        <time>2015-09-21T17:56:02Z</time>
      </trkpt>
      <trkpt lat="44.46919" lon="1.5858">
        <ele>115.16650186047</ele>
        <time>2015-09-21T17:56:12Z</time>
      </trkpt>
      <trkpt lat="44.46935" lon="1.58606">
        <ele>115.94201189342</ele>
        <time>2015-09-21T17:56:17Z</time>
      </trkpt>
      <trkpt lat="44.46969" lon="1.5866">
        <ele>116.60105564279</ele>
        <time>2015-09-21T17:56:27Z</time>
      </trkpt>
      <trkpt lat="44.46985" lon="1.58685">
        <ele>117.22618468496</ele>
        <time>2015-09-21T17:56:32Z</time>
      </trkpt>
      <trkpt lat="44.47034" lon="1.58763">
        <ele>117.85099069921</ele>
        <time>2015-09-21T17:56:47Z</time>
      </trkpt>
      <trkpt lat="44.47056" lon="1.58813">
        <ele>118.55009312346</ele>
        <time>2015-09-21T17:57:02Z</time>
      </trkpt>
      <trkpt lat="44.47078" lon="1.58803">
        <ele>119.5512216959</ele>
        <time>2015-09-21T17:58:32Z</time>
      </trkpt>
      <trkpt lat="44.4712" lon="1.58775">
        <ele>120.81983461333</ele>
        <time>2015-09-21T17:58:42Z</time>
      </trkpt>
      <trkpt lat="44.4714" lon="1.58762">
        <ele>122.16496328827</ele>
        <time>2015-09-21T17:58:47Z</time>
      </trkpt>
      <trkpt lat="44.47185" lon="1.58731">
        <ele>123.71240931108</ele>
        <time>2015-09-21T17:58:57Z</time>
      </trkpt>
      <trkpt lat="44.47209" lon="1.58717">
        <ele>125.27586869361</ele>
        <time>2015-09-21T17:59:02Z</time>
      </trkpt>
      <trkpt lat="44.47258" lon="1.58696">
        <ele>126.76949431387</ele>
        <time>2015-09-21T17:59:12Z</time>
      </trkpt>
      <trkpt lat="44.47285" lon="1.58689">
        <ele>128.09989013622</ele>
        <time>2015-09-21T17:59:17Z</time>
      </trkpt>
      <trkpt lat="44.47336" lon="1.58675">
        <ele>129.33986974646</ele>
        <time>2015-09-21T17:59:27Z</time>
      </trkpt>
      <trkpt lat="44.47363" lon="1.58667">
        <ele>130.35577036914</ele>
        <time>2015-09-21T17:59:32Z</time>
      </trkpt>
      <trkpt lat="44.47417" lon="1.58652">
        <ele>131.37062126545</ele>
        <time>2015-09-21T17:59:42Z</time>
      </trkpt>
      <trkpt lat="44.47443" lon="1.58644">
        <ele>132.33204979564</ele>
        <time>2015-09-21T17:59:47Z</time>
      </trkpt>
      <trkpt lat="44.47495" lon="1.58621">
        <ele>133.2641139784</ele>
        <time>2015-09-21T17:59:57Z</time>
      </trkpt>
      <trkpt lat="44.47515" lon="1.58602">
        <ele>134.20397356026</ele>
        <time>2015-09-21T18:00:02Z</time>
      </trkpt>
      <trkpt lat="44.47557" lon="1.58556">
        <ele>135.07111961752</ele>
        <time>2015-09-21T18:00:12Z</time>
      </trkpt>
      <trkpt lat="44.47579" lon="1.58538">
        <ele>135.89240623115</ele>
        <time>2015-09-21T18:00:17Z</time>
      </trkpt>
      <trkpt lat="44.47645" lon="1.58556">
        <ele>136.79408269167</ele>
        <time>2015-09-21T18:00:32Z</time>
      </trkpt>
      <trkpt lat="44.47667" lon="1.58557">
        <ele>137.44650853004</ele>
        <time>2015-09-21T18:00:37Z</time>
      </trkpt>
      <trkpt lat="44.47712" lon="1.58521">
        <ele>138.09292692291</ele>
        <time>2015-09-21T18:00:47Z</time>
      </trkpt>
      <trkpt lat="44.47732" lon="1.58502">
        <ele>138.93024563836</ele>
        <time>2015-09-21T18:00:52Z</time>
      </trkpt>
      <trkpt lat="44.47773" lon="1.58461">
        <ele>139.93894646448</ele>
        <time>2015-09-21T18:01:02Z</time>
      </trkpt>
      <trkpt lat="44.47795" lon="1.58438">
        <ele>140.76932949639</ele>
        <time>2015-09-21T18:01:07Z</time>
      </trkpt>
      <trkpt lat="44.47825" lon="1.58383">
        <ele>141.02613945676</ele>
        <time>2015-09-21T18:01:17Z</time>
      </trkpt>
      <trkpt lat="44.47833" lon="1.58347">
        <ele>141.16649952629</ele>
        <time>2015-09-21T18:01:22Z</time>
      </trkpt>
      <trkpt lat="44.47844" lon="1.5828">
        <ele>141.57133498436</ele>
        <time>2015-09-21T18:01:32Z</time>
      </trkpt>
      <trkpt lat="44.4785" lon="1.58246">
        <ele>141.94462207918</ele>
        <time>2015-09-21T18:01:37Z</time>
      </trkpt>
      <trkpt lat="44.4786" lon="1.58177">
        <ele>142.1565444524</ele>
        <time>2015-09-21T18:01:47Z</time>
      </trkpt>
      <trkpt lat="44.47858" lon="1.58139">
        <ele>142.23163421369</ele>
        <time>2015-09-21T18:01:52Z</time>
      </trkpt>
      <trkpt lat="44.47851" lon="1.58064">
        <ele>142.26529558294</ele>
        <time>2015-09-21T18:02:02Z</time>
      </trkpt>
      <trkpt lat="44.47848" lon="1.58032">
        <ele>142.13009442161</ele>
        <time>2015-09-21T18:02:07Z</time>
      </trkpt>
      <trkpt lat="44.47835" lon="1.57932">
        <ele>142.0112708682</ele>
        <time>2015-09-21T18:02:22Z</time>
      </trkpt>
      <trkpt lat="44.47831" lon="1.57899">
        <ele>141.82120241267</ele>
        <time>2015-09-21T18:02:27Z</time>
      </trkpt>
      <trkpt lat="44.47839" lon="1.57841">
        <ele>141.50790139735</ele>
        <time>2015-09-21T18:02:37Z</time>
      </trkpt>
      <trkpt lat="44.47848" lon="1.57814">
        <ele>141.08135031001</ele>
        <time>2015-09-21T18:02:42Z</time>
      </trkpt>
      <trkpt lat="44.4785" lon="1.57752">
        <ele>140.34950592966</ele>
        <time>2015-09-21T18:02:52Z</time>
      </trkpt>
      <trkpt lat="44.47851" lon="1.5772">
        <ele>139.42364067648</ele>
        <time>2015-09-21T18:02:57Z</time>
      </trkpt>
      <trkpt lat="44.47846" lon="1.57652">
        <ele>138.88307776352</ele>
        <time>2015-09-21T18:03:07Z</time>
      </trkpt>
      <trkpt lat="44.47845" lon="1.57616">
        <ele>138.08188881417</ele>
        <time>2015-09-21T18:03:12Z</time>
      </trkpt>
      <trkpt lat="44.47836" lon="1.57552">
        <ele>137.38795322233</ele>
        <time>2015-09-21T18:03:22Z</time>
      </trkpt>
      <trkpt lat="44.47827" lon="1.57523">
        <ele>136.78161556788</ele>
        <time>2015-09-21T18:03:27Z</time>
      </trkpt>
      <trkpt lat="44.47808" lon="1.57466">
        <ele>135.91301770558</ele>
        <time>2015-09-21T18:03:37Z</time>
      </trkpt>
      <trkpt lat="44.47792" lon="1.57437">
        <ele>135.12169107968</ele>
        <time>2015-09-21T18:03:42Z</time>
      </trkpt>
      <trkpt lat="44.47765" lon="1.5738">
        <ele>134.66439486914</ele>
        <time>2015-09-21T18:03:52Z</time>
      </trkpt>
      <trkpt lat="44.47757" lon="1.5735">
        <ele>134.2304877745</ele>
        <time>2015-09-21T18:03:57Z</time>
      </trkpt>
      <trkpt lat="44.47737" lon="1.57295">
        <ele>133.44562636799</ele>
        <time>2015-09-21T18:04:07Z</time>
      </trkpt>
      <trkpt lat="44.47722" lon="1.57272">
        <ele>132.58363066875</ele>
        <time>2015-09-21T18:04:12Z</time>
      </trkpt>
      <trkpt lat="44.47665" lon="1.57206">
        <ele>132.12899438523</ele>
        <time>2015-09-21T18:04:27Z</time>
      </trkpt>
      <trkpt lat="44.47643" lon="1.57192">
        <ele>131.82332005177</ele>
        <time>2015-09-21T18:04:32Z</time>
      </trkpt>
      <trkpt lat="44.47601" lon="1.5715">
        <ele>131.68615519276</ele>
        <time>2015-09-21T18:04:42Z</time>
      </trkpt>
      <trkpt lat="44.47581" lon="1.57133">
        <ele>131.72070475693</ele>
        <time>2015-09-21T18:04:47Z</time>
      </trkpt>
      <trkpt lat="44.47537" lon="1.57108">
        <ele>132.27529941454</ele>
        <time>2015-09-21T18:04:57Z</time>
      </trkpt>
      <trkpt lat="44.47513" lon="1.57102">
        <ele>132.44625387724</ele>
        <time>2015-09-21T18:05:02Z</time>
      </trkpt>
      <trkpt lat="44.47466" lon="1.57088">
        <ele>132.63667648079</ele>
        <time>2015-09-21T18:05:12Z</time>
      </trkpt>
      <trkpt lat="44.47442" lon="1.57075">
        <ele>132.71559840873</ele>
        <time>2015-09-21T18:05:17Z</time>
      </trkpt>
      <trkpt lat="44.474" lon="1.57042">
        <ele>132.99429827428</ele>
        <time>2015-09-21T18:05:27Z</time>
      </trkpt>
      <trkpt lat="44.47382" lon="1.57027">
        <ele>133.11210872121</ele>
        <time>2015-09-21T18:05:32Z</time>
      </trkpt>
      <trkpt lat="44.47341" lon="1.56997">
        <ele>133.0811565571</ele>
        <time>2015-09-21T18:05:42Z</time>
      </trkpt>
      <trkpt lat="44.47322" lon="1.56986">
        <ele>133.07159929466</ele>
        <time>2015-09-21T18:05:47Z</time>
      </trkpt>
      <trkpt lat="44.47256" lon="1.56957">
        <ele>133.65894012561</ele>
        <time>2015-09-21T18:06:02Z</time>
      </trkpt>
      <trkpt lat="44.47184" lon="1.56948">
        <ele>133.73184779292</ele>
        <time>2015-09-21T18:06:17Z</time>
      </trkpt>
      <trkpt lat="44.47162" lon="1.5694">
        <ele>133.8616902732</ele>
        <time>2015-09-21T18:06:22Z</time>
      </trkpt>
      <trkpt lat="44.47119" lon="1.56912">
        <ele>134.46240092978</ele>
        <time>2015-09-21T18:06:32Z</time>
      </trkpt>
      <trkpt lat="44.47099" lon="1.56897">
        <ele>134.93621755255</ele>
        <time>2015-09-21T18:06:37Z</time>
      </trkpt>
      <trkpt lat="44.47057" lon="1.56865">
        <ele>135.11873566555</ele>
        <time>2015-09-21T18:06:47Z</time>
      </trkpt>
      <trkpt lat="44.47034" lon="1.56849">
        <ele>135.31959316374</ele>
        <time>2015-09-21T18:06:52Z</time>
      </trkpt>
      <trkpt lat="44.46993" lon="1.56817">
        <ele>135.46534680178</ele>
        <time>2015-09-21T18:07:02Z</time>
      </trkpt>
      <trkpt lat="44.46974" lon="1.568">
        <ele>135.41604187453</ele>
        <time>2015-09-21T18:07:07Z</time>
      </trkpt>
      <trkpt lat="44.46932" lon="1.56765">
        <ele>134.79755598874</ele>
        <time>2015-09-21T18:07:17Z</time>
      </trkpt>
      <trkpt lat="44.4691" lon="1.56744">
        <ele>134.14391498244</ele>
        <time>2015-09-21T18:07:22Z</time>
      </trkpt>
      <trkpt lat="44.46896" lon="1.56681">
        <ele>133.3303223953</ele>
        <time>2015-09-21T18:07:32Z</time>
      </trkpt>
      <trkpt lat="44.46897" lon="1.56648">
        <ele>132.70273474771</ele>
        <time>2015-09-21T18:07:37Z</time>
      </trkpt>
      <trkpt lat="44.46905" lon="1.56581">
        <ele>132.14881496542</ele>
        <time>2015-09-21T18:07:47Z</time>
      </trkpt>
      <trkpt lat="44.46914" lon="1.5655">
        <ele>131.82364251335</ele>
        <time>2015-09-21T18:07:52Z</time>
      </trkpt>
      <trkpt lat="44.46958" lon="1.56467">
        <ele>131.2793742941</ele>
        <time>2015-09-21T18:08:07Z</time>
      </trkpt>
      <trkpt lat="44.46975" lon="1.56445">
        <ele>130.92307813661</ele>
        <time>2015-09-21T18:08:12Z</time>
      </trkpt>
      <trkpt lat="44.47014" lon="1.56408">
        <ele>131.00165470609</ele>
        <time>2015-09-21T18:08:22Z</time>
      </trkpt>
      <trkpt lat="44.47034" lon="1.56391">
        <ele>131.2382217572</ele>
        <time>2015-09-21T18:08:27Z</time>
      </trkpt>
      <trkpt lat="44.47078" lon="1.56367">
        <ele>131.46222483043</ele>
        <time>2015-09-21T18:08:37Z</time>
      </trkpt>
      <trkpt lat="44.471" lon="1.56354">
        <ele>131.86150815915</ele>
        <time>2015-09-21T18:08:42Z</time>
      </trkpt>
      <trkpt lat="44.47146" lon="1.56341">
        <ele>132.35019731215</ele>
        <time>2015-09-21T18:08:52Z</time>
      </trkpt>
      <trkpt lat="44.47169" lon="1.56343">
        <ele>132.89168553808</ele>
        <time>2015-09-21T18:08:57Z</time>
      </trkpt>
      <trkpt lat="44.47218" lon="1.56361">
        <ele>133.4951224632</ele>
        <time>2015-09-21T18:09:07Z</time>
      </trkpt>
      <trkpt lat="44.47239" lon="1.56376">
        <ele>134.18321054853</ele>
        <time>2015-09-21T18:09:12Z</time>
      </trkpt>
      <trkpt lat="44.4728" lon="1.56408">
        <ele>134.94791827576</ele>
        <time>2015-09-21T18:09:22Z</time>
      </trkpt>
      <trkpt lat="44.47299" lon="1.56424">
        <ele>135.75276630339</ele>
        <time>2015-09-21T18:09:27Z</time>
      </trkpt>
      <trkpt lat="44.47353" lon="1.5647">
        <ele>136.00181321969</ele>
        <time>2015-09-21T18:09:42Z</time>
      </trkpt>
      <trkpt lat="44.47373" lon="1.56484">
        <ele>136.06677396966</ele>
        <time>2015-09-21T18:09:47Z</time>
      </trkpt>
      <trkpt lat="44.47419" lon="1.56499">
        <ele>136.03318422083</ele>
        <time>2015-09-21T18:09:57Z</time>
      </trkpt>
      <trkpt lat="44.47442" lon="1.56501">
        <ele>136.13910600473</ele>
        <time>2015-09-21T18:10:02Z</time>
      </trkpt>
      <trkpt lat="44.47487" lon="1.565">
        <ele>135.97064292227</ele>
        <time>2015-09-21T18:10:12Z</time>
      </trkpt>
      <trkpt lat="44.47507" lon="1.565">
        <ele>135.5485921607</ele>
        <time>2015-09-21T18:10:17Z</time>
      </trkpt>
      <trkpt lat="44.47551" lon="1.56495">
        <ele>135.71437461991</ele>
        <time>2015-09-21T18:10:27Z</time>
      </trkpt>
      <trkpt lat="44.47573" lon="1.56496">
        <ele>136.06424547997</ele>
        <time>2015-09-21T18:10:32Z</time>
      </trkpt>
      <trkpt lat="44.47621" lon="1.56496">
        <ele>136.19478432608</ele>
        <time>2015-09-21T18:10:42Z</time>
      </trkpt>
      <trkpt lat="44.47645" lon="1.565">
        <ele>136.28044762019</ele>
        <time>2015-09-21T18:10:47Z</time>
      </trkpt>
      <trkpt lat="44.4769" lon="1.5651">
        <ele>136.84328568699</ele>
        <time>2015-09-21T18:10:57Z</time>
      </trkpt>
      <trkpt lat="44.47712" lon="1.56516">
        <ele>137.18395593721</ele>
        <time>2015-09-21T18:11:02Z</time>
      </trkpt>
      <trkpt lat="44.47758" lon="1.56533">
        <ele>137.40449838897</ele>
        <time>2015-09-21T18:11:12Z</time>
      </trkpt>
      <trkpt lat="44.4778" lon="1.56542">
        <ele>137.32599189499</ele>
        <time>2015-09-21T18:11:17Z</time>
      </trkpt>
      <trkpt lat="44.47825" lon="1.56557">
        <ele>137.17260686883</ele>
        <time>2015-09-21T18:11:27Z</time>
      </trkpt>
      <trkpt lat="44.47846" lon="1.56564">
        <ele>137.15226452618</ele>
        <time>2015-09-21T18:11:32Z</time>
      </trkpt>
      <trkpt lat="44.47888" lon="1.56579">
        <ele>137.06814543178</ele>
        <time>2015-09-21T18:11:42Z</time>
      </trkpt>
      <trkpt lat="44.4791" lon="1.56589">
        <ele>136.85336056339</ele>
        <time>2015-09-21T18:11:47Z</time>
      </trkpt>
      <trkpt lat="44.47946" lon="1.56615">
        <ele>136.34542492726</ele>
        <time>2015-09-21T18:11:57Z</time>
      </trkpt>
      <trkpt lat="44.47967" lon="1.56616">
        <ele>135.88458858836</ele>
        <time>2015-09-21T18:12:02Z</time>
      </trkpt>
      <trkpt lat="44.48008" lon="1.56622">
        <ele>135.78597056101</ele>
        <time>2015-09-21T18:12:12Z</time>
      </trkpt>
      <trkpt lat="44.48029" lon="1.56628">
        <ele>135.9658294154</ele>
        <time>2015-09-21T18:12:17Z</time>
      </trkpt>
      <trkpt lat="44.48095" lon="1.56652">
        <ele>136.70606472691</ele>
        <time>2015-09-21T18:12:32Z</time>
      </trkpt>
      <trkpt lat="44.48117" lon="1.56658">
        <ele>137.01252236799</ele>
        <time>2015-09-21T18:12:37Z</time>
      </trkpt>
      <trkpt lat="44.48158" lon="1.56668">
        <ele>137.14700248073</ele>
        <time>2015-09-21T18:12:47Z</time>
      </trkpt>
      <trkpt lat="44.48176" lon="1.56672">
        <ele>137.25167637853</ele>
        <time>2015-09-21T18:12:52Z</time>
      </trkpt>
      <trkpt lat="44.48216" lon="1.56673">
        <ele>137.1124878698</ele>
        <time>2015-09-21T18:13:02Z</time>
      </trkpt>
      <trkpt lat="44.48237" lon="1.56674">
        <ele>137.1082335716</ele>
        <time>2015-09-21T18:13:07Z</time>
      </trkpt>
      <trkpt lat="44.48278" lon="1.56669">
        <ele>137.30128247295</ele>
        <time>2015-09-21T18:13:17Z</time>
      </trkpt>
      <trkpt lat="44.48299" lon="1.56664">
        <ele>137.47505649101</ele>
        <time>2015-09-21T18:13:22Z</time>
      </trkpt>
      <trkpt lat="44.48345" lon="1.56653">
        <ele>137.94774140951</ele>
        <time>2015-09-21T18:13:32Z</time>
      </trkpt>
      <trkpt lat="44.48364" lon="1.56644">
        <ele>138.49451212088</ele>
        <time>2015-09-21T18:13:37Z</time>
      </trkpt>
      <trkpt lat="44.484" lon="1.56618">
        <ele>138.44569851491</ele>
        <time>2015-09-21T18:13:47Z</time>
      </trkpt>
      <trkpt lat="44.48419" lon="1.56604">
        <ele>138.37862179931</ele>
        <time>2015-09-21T18:13:52Z</time>
      </trkpt>
      <trkpt lat="44.48456" lon="1.56577">
        <ele>137.83388156106</ele>
        <time>2015-09-21T18:14:02Z</time>
      </trkpt>
      <trkpt lat="44.48475" lon="1.56561">
        <ele>137.16536646548</ele>
        <time>2015-09-21T18:14:07Z</time>
      </trkpt>
      <trkpt lat="44.48507" lon="1.56527">
        <ele>136.989536465</ele>
        <time>2015-09-21T18:14:17Z</time>
      </trkpt>
      <trkpt lat="44.48523" lon="1.56507">
        <ele>136.80975650572</ele>
        <time>2015-09-21T18:14:22Z</time>
      </trkpt>
      <trkpt lat="44.48565" lon="1.56445">
        <ele>136.38204275421</ele>
        <time>2015-09-21T18:14:37Z</time>
      </trkpt>
      <trkpt lat="44.48607" lon="1.56372">
        <ele>135.49542811571</ele>
        <time>2015-09-21T18:14:52Z</time>
      </trkpt>
      <trkpt lat="44.48619" lon="1.56346">
        <ele>134.73391423915</ele>
        <time>2015-09-21T18:14:57Z</time>
      </trkpt>
      <trkpt lat="44.48639" lon="1.56293">
        <ele>134.2347196115</ele>
        <time>2015-09-21T18:15:07Z</time>
      </trkpt>
      <trkpt lat="44.48646" lon="1.56266">
        <ele>133.86482206536</ele>
        <time>2015-09-21T18:15:12Z</time>
      </trkpt>
      <trkpt lat="44.48655" lon="1.56203">
        <ele>133.54381378095</ele>
        <time>2015-09-21T18:15:22Z</time>
      </trkpt>
      <trkpt lat="44.48658" lon="1.56173">
        <ele>133.39878245349</ele>
        <time>2015-09-21T18:15:27Z</time>
      </trkpt>
      <trkpt lat="44.48659" lon="1.56113">
        <ele>133.38843409715</ele>
        <time>2015-09-21T18:15:37Z</time>
      </trkpt>
      <trkpt lat="44.48658" lon="1.56083">
        <ele>133.30116751957</ele>
        <time>2015-09-21T18:15:42Z</time>
      </trkpt>
      <trkpt lat="44.48659" lon="1.56021">
        <ele>132.8546458378</ele>
        <time>2015-09-21T18:15:52Z</time>
      </trkpt>
      <trkpt lat="44.4866" lon="1.55992">
        <ele>132.1629404835</ele>
        <time>2015-09-21T18:15:57Z</time>
      </trkpt>
      <trkpt lat="44.48659" lon="1.55934">
        <ele>131.70709076554</ele>
        <time>2015-09-21T18:16:07Z</time>
      </trkpt>
      <trkpt lat="44.4866" lon="1.55904">
        <ele>131.54300710067</ele>
        <time>2015-09-21T18:16:12Z</time>
      </trkpt>
      <trkpt lat="44.48662" lon="1.55843">
        <ele>131.41900983016</ele>
        <time>2015-09-21T18:16:22Z</time>
      </trkpt>
      <trkpt lat="44.48662" lon="1.55815">
        <ele>131.49086476745</ele>
        <time>2015-09-21T18:16:27Z</time>
      </trkpt>
      <trkpt lat="44.48658" lon="1.55727">
        <ele>131.39792783117</ele>
        <time>2015-09-21T18:16:42Z</time>
      </trkpt>
      <trkpt lat="44.48645" lon="1.55646">
        <ele>131.15234970998</ele>
        <time>2015-09-21T18:16:57Z</time>
      </trkpt>
      <trkpt lat="44.48642" lon="1.55627">
        <ele>130.96754717074</ele>
        <time>2015-09-21T18:17:02Z</time>
      </trkpt>
      <trkpt lat="44.48629" lon="1.55558">
        <ele>131.05547691759</ele>
        <time>2015-09-21T18:17:12Z</time>
      </trkpt>
      <trkpt lat="44.48623" lon="1.55531">
        <ele>131.2802835284</ele>
        <time>2015-09-21T18:17:17Z</time>
      </trkpt>
      <trkpt lat="44.48614" lon="1.55477">
        <ele>131.64538926607</ele>
        <time>2015-09-21T18:17:27Z</time>
      </trkpt>
      <trkpt lat="44.48609" lon="1.55451">
        <ele>132.03826810679</ele>
        <time>2015-09-21T18:17:32Z</time>
      </trkpt>
      <trkpt lat="44.48597" lon="1.55399">
        <ele>132.23928315463</ele>
        <time>2015-09-21T18:17:42Z</time>
      </trkpt>
      <trkpt lat="44.4859" lon="1.55378">
        <ele>132.52103123707</ele>
        <time>2015-09-21T18:17:47Z</time>
      </trkpt>
      <trkpt lat="44.48578" lon="1.55329">
        <ele>132.76116704479</ele>
        <time>2015-09-21T18:17:57Z</time>
      </trkpt>
      <trkpt lat="44.48572" lon="1.55307">
        <ele>133.03379557697</ele>
        <time>2015-09-21T18:18:02Z</time>
      </trkpt>
      <trkpt lat="44.4856" lon="1.55266">
        <ele>133.30661385124</ele>
        <time>2015-09-21T18:18:12Z</time>
      </trkpt>
      <trkpt lat="44.48553" lon="1.55245">
        <ele>133.57852113938</ele>
        <time>2015-09-21T18:18:17Z</time>
      </trkpt>
      <trkpt lat="44.4855" lon="1.55252">
        <ele>133.57852113938</ele>
        <time>2015-09-21T18:18:27Z</time>
      </trkpt>
      <trkpt lat="44.48555" lon="1.5527">
        <ele>133.83409923974</ele>
        <time>2015-09-21T18:18:32Z</time>
      </trkpt>
      <trkpt lat="44.4857" lon="1.55321">
        <ele>133.90059841035</ele>
        <time>2015-09-21T18:18:47Z</time>
      </trkpt>
      <trkpt lat="44.48576" lon="1.55341">
        <ele>133.94995900991</ele>
        <time>2015-09-21T18:18:52Z</time>
      </trkpt>
      <trkpt lat="44.48585" lon="1.55375">
        <ele>133.86774226417</ele>
        <time>2015-09-21T18:19:02Z</time>
      </trkpt>
      <trkpt lat="44.48592" lon="1.55395">
        <ele>133.72123307726</ele>
        <time>2015-09-21T18:19:07Z</time>
      </trkpt>
      <trkpt lat="44.48621" lon="1.55393">
        <ele>133.67384578434</ele>
        <time>2015-09-21T18:19:17Z</time>
      </trkpt>
      <trkpt lat="44.48636" lon="1.55385">
        <ele>133.94878156453</ele>
        <time>2015-09-21T18:19:22Z</time>
      </trkpt>
      <trkpt lat="44.48668" lon="1.55362">
        <ele>134.37726603567</ele>
        <time>2015-09-21T18:19:32Z</time>
      </trkpt>
      <trkpt lat="44.48683" lon="1.55356">
        <ele>134.77368493411</ele>
        <time>2015-09-21T18:19:37Z</time>
      </trkpt>
      <trkpt lat="44.48698" lon="1.55336">
        <ele>135.29762204611</ele>
        <time>2015-09-21T18:19:47Z</time>
      </trkpt>
      <trkpt lat="44.48685" lon="1.55329">
        <ele>135.83720061541</ele>
        <time>2015-09-21T18:19:52Z</time>
      </trkpt>
      <trkpt lat="44.4866" lon="1.55315">
        <ele>136.24550810414</ele>
        <time>2015-09-21T18:20:02Z</time>
      </trkpt>
      <trkpt lat="44.48642" lon="1.55307">
        <ele>136.58857351633</ele>
        <time>2015-09-21T18:20:07Z</time>
      </trkpt>
      <trkpt lat="44.48607" lon="1.55296">
        <ele>136.8701414784</ele>
        <time>2015-09-21T18:20:17Z</time>
      </trkpt>
      <trkpt lat="44.486" lon="1.55308">
        <ele>137.05064932982</ele>
        <time>2015-09-21T18:20:22Z</time>
      </trkpt>
      <trkpt lat="44.48609" lon="1.55318">
        <ele>137.02169720205</ele>
        <time>2015-09-21T18:20:37Z</time>
      </trkpt>
      <trkpt lat="44.48608" lon="1.55303">
        <ele>136.95727480379</ele>
        <time>2015-09-21T18:20:52Z</time>
      </trkpt>
      <trkpt lat="44.48609" lon="1.55297">
        <ele>136.95727480379</ele>
        <time>2015-09-21T18:20:57Z</time>
      </trkpt>
      <trkpt lat="44.48608" lon="1.55303">
        <ele>136.80254940127</ele>
        <time>2015-09-21T18:21:07Z</time>
      </trkpt>
      <trkpt lat="44.48608" lon="1.55307">
        <ele>136.80254940127</ele>
        <time>2015-09-21T18:21:12Z</time>
      </trkpt>
      <trkpt lat="44.48607" lon="1.55304">
        <ele>136.80254940127</ele>
        <time>2015-09-21T18:21:22Z</time>
      </trkpt>
      <trkpt lat="44.48607" lon="1.55304">
        <ele>136.80254940127</ele>
        <time>2015-09-21T18:21:27Z</time>
      </trkpt>
      <trkpt lat="44.48608" lon="1.55304">
        <ele>136.80254940127</ele>
        <time>2015-09-21T18:21:37Z</time>
      </trkpt>
      <trkpt lat="44.48607" lon="1.55304">
        <ele>136.80254940127</ele>
        <time>2015-09-21T18:21:42Z</time>
      </trkpt>
      <trkpt lat="44.48604" lon="1.55302">
        <ele>136.50699282745</ele>
        <time>2015-09-21T18:21:52Z</time>
      </trkpt>
      <trkpt lat="44.48605" lon="1.55301">
        <ele>136.50699282745</ele>
        <time>2015-09-21T18:21:57Z</time>
      </trkpt>
      <trkpt lat="44.48609" lon="1.55298">
        <ele>136.50699282745</ele>
        <time>2015-09-21T18:22:07Z</time>
      </trkpt>
      <trkpt lat="44.48611" lon="1.55297">
        <ele>136.50699282745</ele>
        <time>2015-09-21T18:22:12Z</time>
      </trkpt>
      <trkpt lat="44.48611" lon="1.55298">
        <ele>136.50699282745</ele>
        <time>2015-09-21T18:22:22Z</time>
      </trkpt>
      <trkpt lat="44.48611" lon="1.55298">
        <ele>136.50699282745</ele>
        <time>2015-09-21T18:22:27Z</time>
      </trkpt>
      <trkpt lat="44.48608" lon="1.55298">
        <ele>136.28360392534</ele>
        <time>2015-09-21T18:22:37Z</time>
      </trkpt>
      <trkpt lat="44.48608" lon="1.55299">
        <ele>136.28360392534</ele>
        <time>2015-09-21T18:22:42Z</time>
      </trkpt>
      <trkpt lat="44.48609" lon="1.55301">
        <ele>136.28360392534</ele>
        <time>2015-09-21T18:22:52Z</time>
      </trkpt>
      <trkpt lat="44.48611" lon="1.55303">
        <ele>136.28360392534</ele>
        <time>2015-09-21T18:22:57Z</time>
      </trkpt>
      <trkpt lat="44.48613" lon="1.55305">
        <ele>136.28360392534</ele>
        <time>2015-09-21T18:23:12Z</time>
      </trkpt>
      <trkpt lat="44.48612" lon="1.55305">
        <ele>136.28360392534</ele>
        <time>2015-09-21T18:23:17Z</time>
      </trkpt>
      <trkpt lat="44.48611" lon="1.55309">
        <ele>135.810748321</ele>
        <time>2015-09-21T18:23:27Z</time>
      </trkpt>
      <trkpt lat="44.48612" lon="1.55309">
        <ele>135.810748321</ele>
        <time>2015-09-21T18:23:32Z</time>
      </trkpt>
      <trkpt lat="44.48615" lon="1.55312">
        <ele>135.810748321</ele>
        <time>2015-09-21T18:23:42Z</time>
      </trkpt>
      <trkpt lat="44.48614" lon="1.55311">
        <ele>135.810748321</ele>
        <time>2015-09-21T18:27:57Z</time>
      </trkpt>
      <trkpt lat="44.48614" lon="1.55311">
        <ele>135.810748321</ele>
        <time>2015-09-21T18:28:07Z</time>
      </trkpt>
      <trkpt lat="44.48615" lon="1.55312">
        <ele>135.810748321</ele>
        <time>2015-09-21T18:29:07Z</time>
      </trkpt>
      <trkpt lat="44.48608" lon="1.5531">
        <ele>135.59636735825</ele>
        <time>2015-09-21T18:29:12Z</time>
      </trkpt>
      <trkpt lat="44.48602" lon="1.55307">
        <ele>135.38198639549</ele>
        <time>2015-09-21T18:29:17Z</time>
      </trkpt>
    </trkseg>
  </trk>
</gpx>